[[{"header":{"parameterUnit":"m.s-1","parameterCategory":1,"la1":30.6,"la2":29.2853,"lo1":-89.7004,"lo2":-87.6739,"dy":0.0162,"dx":0.0183,"nx":112,"ny":82,"refTime":"2025-09-16T12:00:00:Z","depth":0,"parameterNumber":2,"parameterNumberName":"U-component_of_WINDS"},"data":[0.0,0.0,0.0,0.0,0.0,0.0,0.0,0.0,0.0,0.0,0.0,0.0,0.0,0.0,0.0,0.0,0.0,0.0,0.0,0.0,0.0,0.0,0.0,0.0,0.0,0.0,0.0,0.0,0.0,0.0,0.0,0.0,0.0,0.0,0.0,0.0,0.0,0.0,0.0,0.0,0.0,0.0,0.0,0.0,0.0,0.0,0.0,0.0,0.0,0.0,0.0,0.0,0.0,0.0,0.0,0.0,0.0,0.0,0.0,0.0,0.0,0.0,0.0,0.0,0.0,0.0,0.0,0.0,0.0,0.0,0.0,0.0,0.0,0.0,0.0,0.0,0.0,0.0,0.0,0.0,0.0,0.0,0.0,0.0,0.0,0.0,0.0,0.0,0.0,0.0,0.4746,0.542,0.6321,0.6722,0.6302,0.569,0.5079,0.4442,0.0,0.0,0.0,0.0,0.0,0.0,0.0,0.0,0.0,0.0,0.0,0.0,0.0,0.0,0.0,0.0,0.0,0.0,0.0,0.0,0.0,0.0,0.0,0.0,0.0,0.0,0.0,0.0,0.0,0.0,0.0,0.0,0.0,0.0,0.0,0.0,0.0,0.0,0.0,0.0,0.0,0.0,0.0,0.0,0.0,0.0,0.0,0.0,0.0,0.0,0.0,0.0,0.0,0.0,0.0,0.0,0.0,0.0,0.0,0.0,0.0,0.0,0.0,0.0,0.0,0.0,0.0,0.0,0.0,0.0,0.0,0.0,0.0,0.0,0.0,0.0,0.0,0.0,0.0,0.0,0.0,0.0,0.0,0.0,0.0,0.0,0.0,0.0,0.0,0.0,0.0,0.0,0.0,0.0,0.0,0.0,0.0,0.0,0.0,0.0,0.0,0.0,0.0,0.0,0.4808,0.5801,0.6162,0.6265,0.6146,0.5478,0.4879,0.4428,0.0,0.0,0.0,0.0,0.0,0.0,0.0,0.0,0.0,0.0,0.0,0.0,0.0,0.0,0.0,0.0,0.0,0.0,0.0,0.0,0.0,0.0,0.0,0.0,0.0,0.0,0.0,0.0,0.0,0.0,0.0,0.0,0.0,0.0,0.0,0.0,0.0,0.0,0.0,0.0,0.0,0.0,0.0,0.0,0.0,0.0,0.0,0.0,0.0,0.0,0.0,0.0,0.0,0.0,0.0,0.0,0.0,0.0,0.0,0.0,0.0,0.0,0.0,0.0,0.0,0.0,0.0,0.0,0.0,0.0,0.0,0.0,0.0,0.0,0.0,0.0,0.0,0.0,0.0,0.0,0.0,0.0,0.0,0.0,0.0,0.0,0.0,0.0,0.0,0.0,0.0,0.0,0.0,0.0,0.0,0.0,0.0,0.0,0.0,0.0,0.0,0.0,0.0,0.4534,0.5072,0.6108,0.6109,0.5887,0.553,0.5059,0.4538,0.395,0.355,0.0,0.0,0.0,0.0,0.0,0.0,0.0,0.0,0.0,0.0,0.0,0.0,0.0,0.0,0.0,0.0,0.0,0.0,0.0,0.0,0.0,0.0,0.0,0.0,0.0,0.0,0.0,0.0,0.0,0.0,0.0,0.0,0.0,0.0,0.0,0.0,0.0,0.0,0.0,0.0,0.0,0.0,0.0,0.0,0.0,0.0,0.0,0.0,0.0,0.0,0.0,0.0,0.0,0.0,0.0,0.0,0.0,0.0,0.0,0.0,0.0,0.0,0.0,0.0,0.0,0.0,0.0,0.0,0.0,0.0,0.0,0.0,0.0,0.0,0.0,0.0,0.0,0.0,0.0,0.0,0.0,0.0,0.0,0.0,0.0,0.0,0.0,0.0,0.0,0.0,0.0,0.0,0.0,0.0,0.0,0.0,0.0,0.0,0.0,0.0,0.0,0.0,0.496,0.5181,0.6156,0.5936,0.5526,0.4991,0.4588,0.4113,0.352,0.3214,0.0,0.0,0.0,0.0,0.0,0.0,0.0,0.0,0.0,0.0,0.0,0.0,0.0,0.0,0.0,0.0,0.0,0.0,0.0,0.0,0.0,0.0,0.0,0.0,0.0,0.0,0.0,0.0,0.0,0.0,0.0,0.0,0.0,0.0,0.0,0.0,0.0,0.0,0.0,0.0,0.0,0.0,0.0,0.0,0.0,0.0,0.0,0.0,0.0,0.0,0.0,0.0,0.0,0.0,0.0,0.0,0.0,0.0,0.0,0.0,0.0,0.0,0.0,0.0,0.0,0.0,0.0,0.0,0.0,0.0,0.0,0.0,0.0,0.0,0.0,0.0,0.0,0.0,0.0,0.0,0.0,0.0,0.0,0.0,0.0,0.0,0.0,0.0,0.0,0.0,0.0,0.0,0.0,0.0,0.0,0.0,0.0,0.0,0.0,0.0,0.0,0.0,0.4657,0.4861,0.5742,0.5483,0.5143,0.4845,0.4124,0.3588,0.3414,0.2925,0.0,0.0,0.0,0.0,0.0,0.0,0.0,0.0,0.0,0.0,0.0,0.0,0.0,0.0,0.0,0.0,0.0,0.0,0.0,0.0,0.0,0.0,0.0,0.0,0.0,0.0,0.0,0.0,0.0,0.0,0.0,0.0,0.0,0.0,0.0,0.0,0.0,0.0,0.0,0.0,0.0,0.0,0.0,0.0,0.0,0.0,0.0,0.0,0.0,0.0,0.0,0.0,0.0,0.0,0.0,0.0,0.0,0.0,0.0,0.0,0.0,0.0,0.0,0.0,0.0,0.0,0.0,0.0,0.0,0.0,0.0,0.0,0.0,0.0,0.0,0.0,0.0,0.0,0.0,0.0,0.0,0.0,0.0,0.0,0.0,0.0,0.0,0.0,0.0,0.0,0.0,0.0,0.0,0.0,0.0,0.0,0.0,0.0,0.0,0.0,0.0,0.0,0.4296,0.4362,0.0,0.4725,0.4329,0.39,0.3441,0.3051,0.2795,0.0,0.0,0.0,0.0,0.0,0.0,0.0,0.0,0.0,0.0,0.0,0.0,0.0,0.0,0.0,0.0,0.0,0.0,0.0,0.0,0.0,0.0,0.0,0.0,0.0,0.0,0.0,0.0,0.0,0.0,0.0,0.0,0.0,0.0,0.0,0.0,0.0,0.0,0.0,0.0,0.0,0.0,0.0,0.0,0.0,0.0,0.0,0.0,0.0,0.0,0.0,0.0,0.0,0.0,0.0,0.0,0.0,0.0,0.0,0.0,0.0,0.0,0.0,0.0,0.0,0.0,0.0,0.0,0.0,0.0,0.0,0.0,0.0,0.0,0.0,0.0,0.0,0.0,0.0,0.0,0.0,0.0,0.0,0.0,0.0,0.0,0.0,0.0,0.0,0.0,0.0,0.0,0.0,0.0,0.0,0.0,0.0,0.0,0.0,0.0,0.0,0.0,0.4034,0.3764,0.3668,0.0,0.3851,0.3515,0.3054,0.2782,0.2555,0.2316,0.0,0.0,0.0,0.0,0.0,0.0,0.0,0.0,0.0,0.0,0.0,0.0,0.0,0.0,0.0,0.0,0.0,0.0,0.0,0.0,0.0,0.0,0.0,0.0,0.0,0.0,0.0,0.0,0.0,0.0,0.0,0.0,0.0,0.0,0.0,0.0,0.0,0.0,0.0,0.0,0.0,0.0,0.0,0.0,0.0,0.0,0.0,0.0,0.0,0.0,0.0,0.0,0.0,0.0,0.0,0.0,0.0,0.0,0.0,0.0,0.0,0.0,0.0,0.0,0.0,0.0,0.0,0.0,0.0,0.0,0.0,0.0,0.0,0.0,0.0,0.0,0.0,0.0,0.0,0.0,0.0,0.0,0.0,0.0,0.0,0.0,0.0,0.0,0.0,0.0,0.0,0.0,0.0,0.0,0.0,0.0,0.0,0.0,0.0,0.0,0.0,0.0,0.3449,0.3024,0.2776,0.2972,0.2867,0.2688,0.2419,0.2202,0.2092,0.0,0.0,0.0,0.0,0.0,0.0,0.0,0.0,0.0,0.0,0.0,0.0,0.0,0.0,0.0,0.0,0.0,0.0,0.0,0.0,0.0,0.0,0.0,0.0,0.0,0.0,0.0,0.0,0.0,0.0,0.0,0.0,0.0,0.0,0.0,0.0,0.0,0.0,0.0,0.0,0.0,0.0,0.0,0.0,0.0,0.0,0.0,0.0,0.0,0.0,0.0,0.0,0.0,0.0,0.0,0.0,0.0,0.0,0.0,0.0,0.0,0.0,0.0,0.0,0.0,0.0,0.0,0.0,0.0,0.0,0.0,0.0,0.0,0.0,0.0,0.0,0.0,0.0,0.0,0.0,0.0,0.0,0.0,0.0,0.0,0.0,0.0,0.0,0.0,0.0,0.0,0.0,0.0,0.0,0.0,0.0,0.0,0.0,0.0,0.0,0.0,0.0,0.0,0.298,0.2586,0.2244,0.2169,0.2168,0.1978,0.1532,0.1346,0.128,0.1323,0.0,0.0,0.0,0.0,0.0,0.0,0.0,0.0,0.0,0.0,0.0,0.0,0.0,0.0,0.0,0.0,0.0,0.0,0.0,0.0,0.0,0.0,0.0,0.0,0.0,0.0,0.0,0.0,0.0,0.0,0.0,0.0,0.0,0.0,0.0,0.0,0.0,0.0,0.0,0.0,0.0,0.0,0.0,0.0,0.0,0.0,0.0,0.0,0.0,0.0,0.0,0.0,0.0,0.0,0.0,0.0,0.0,0.0,0.0,0.0,0.0,0.0,0.0,0.0,0.0,0.0,0.0,0.0,0.0,0.0,0.0,0.0,0.0,0.0,0.0,0.0,0.0,0.0,0.0,0.0,0.0,0.0,0.0,0.0,0.0,0.0,0.0,0.0,0.0,0.0,0.0,0.0,0.0,0.0,0.0,0.0,0.0,0.0,0.0,0.0,0.0,0.0,0.2442,0.18,0.126,0.1061,0.0948,0.0817,0.0601,0.0579,0.0641,0.0747,0.0,0.0,0.0,0.0,0.0,0.0,0.0,0.0,0.0,0.0,0.0,0.0,0.0,0.0,0.0,0.0,0.0,0.0,0.0,0.0,0.0,0.0,0.0,0.0,0.0,0.0,0.0,0.0,0.0,0.0,0.0,0.0,0.0,0.0,0.0,0.0,0.0,0.0,0.0,0.0,0.0,0.0,0.0,0.0,0.0,0.0,0.0,0.0,0.0,0.0,0.0,0.0,0.0,0.0,0.0,0.0,0.0,0.0,0.0,0.0,0.0,0.0,0.0,0.0,0.0,0.0,0.0,0.0,0.0,0.0,0.0,0.0,0.0,0.0,0.0,0.0,0.0,0.0,0.0,0.0,0.0,0.0,0.0,0.0,0.0,0.0,0.0,0.0,0.0,0.0,0.0,0.0,0.0,0.0,0.0,0.0,0.0,0.0,0.0,0.0,0.0,0.0,0.1795,0.0808,0.0036,-0.0153,-0.0423,-0.0512,-0.0289,-0.0067,0.0125,0.0311,0.0,0.0,0.0,0.0,0.0,0.0,0.0,0.0,0.0,0.0,0.0,0.0,0.0,0.0,0.0,0.0,0.0,0.0,0.0,0.0,0.0,0.0,0.0,0.0,0.0,0.0,0.0,0.0,0.0,0.0,0.0,0.0,0.0,0.0,0.0,0.0,0.0,0.0,0.0,0.0,0.0,0.0,0.0,0.0,0.0,0.0,0.0,0.0,0.0,0.0,0.0,0.0,0.0,0.0,0.0,0.0,0.0,0.0,0.0,0.0,0.2291,0.2452,0.0,0.0,0.0,0.0,0.0,0.0,0.0,0.0,0.0,0.0,0.0,0.0,0.0,0.0,0.0,0.0,0.0,0.0,0.0,0.0,0.0,0.0,0.0,0.0,0.0,0.0,0.0,0.0,0.0,0.0,0.0,0.0,0.0,0.0,0.0,0.0,0.0,0.0,0.0,0.0,0.0847,0.0035,-0.0551,-0.064,-0.0624,-0.0646,-0.0736,-0.0468,-0.0277,-0.0228,0.0018,0.0,0.0,0.0,0.0,0.0,0.0,0.0,0.0,0.0,0.0,0.0,0.0,0.0,0.0,0.0,0.0,0.0,0.0,0.0,0.0,0.0,0.0,0.0,0.0,0.0,0.0,0.0,0.0,0.0,0.0,0.0,0.0,0.0,0.0,0.0,0.0,0.0,0.0,0.0,0.0,0.0,0.0,0.0,0.0,0.0,0.0,0.0,0.0,0.0,0.0,0.0,0.0,0.0,0.0,0.0,0.0,0.0,0.0,0.0,0.1536,0.1772,0.0,0.0,0.0,0.0,0.0,0.0,0.0,0.0,0.0,0.0,0.0,0.0,0.0,0.0,0.0,0.0,0.0,0.0,0.0,0.0,0.0,0.0,0.0,0.0,0.0,0.0,0.0,0.0,0.0,0.0,0.0,0.0,0.0,0.0,0.0,0.0,0.0,0.0,0.0,0.0,0.0222,-0.0632,-0.1248,-0.1452,-0.1529,-0.1507,-0.1336,-0.1178,-0.0943,-0.0666,-0.0446,0.0,0.0,0.0,0.0,0.0,0.0,0.0,0.0,0.0,0.0,0.0,0.0,0.0,0.0,0.0,0.0,0.0,0.0,0.0,0.0,0.0,0.0,0.0,0.0,0.0,0.0,0.0,0.0,0.0,0.0,0.0,0.0,0.0,0.0,0.0,0.0,0.0,0.0,0.0,0.0,0.0,0.0,0.0,0.0,0.0,0.0,0.0,0.0,0.0,0.0,0.0,0.0,0.0,0.0996,0.0732,0.0692,0.0132,-0.0161,-0.0226,0.0251,0.0657,0.0974,0.1373,0.0,0.0,0.0,0.0,0.0,0.0,0.0,0.0,0.0,0.0,0.0,0.0,0.0,0.0,0.0,0.0,0.0,0.0,0.0,0.0,0.0,0.0,0.1295,0.1035,0.0936,0.1175,0.214,0.0,0.0,0.0,0.0,0.0,0.0,0.0,0.0,0.0,0.0,0.0,-0.0427,-0.1295,-0.1965,-0.2241,-0.2454,-0.2394,-0.1957,-0.1869,-0.1598,-0.1084,-0.0883,-0.0705,0.0,0.0,0.0,0.0,0.0,0.0,0.0,0.0,0.0,0.0,0.0,0.0,0.0,0.0,0.0,0.0,0.0,0.0,0.0,0.0,0.0,0.0,0.0,0.0,0.0,0.0,0.0,0.0,0.0,0.0,0.0,0.0,0.3648,0.4059,0.0,0.0,0.0,0.0,0.0,0.0,0.0,0.0,0.0,0.0,0.0,0.0,0.0,0.2539,0.2228,0.1705,0.0992,0.0156,-0.0395,-0.0728,-0.0927,-0.1527,-0.1756,-0.1736,-0.1941,0.0,-0.0081,0.0025,0.0,0.0,0.0,0.0,0.0,0.0,0.0,0.0,0.0,0.0,0.0,0.0,0.0,0.0,0.0,0.0,0.0,0.0,0.0,0.0,0.0,0.0,0.0047,0.0065,0.0114,0.0212,0.0474,0.0925,0.1274,0.1218,0.1038,0.095,0.0,0.0,0.0,0.0,0.0,0.0,-0.1599,-0.2155,-0.249,-0.2536,-0.2529,-0.249,-0.2403,-0.215,-0.1873,-0.162,-0.136,-0.1073,-0.0769,-0.0548,0.0,0.0,0.0,0.0,0.0,0.0,0.0,0.0,0.0,0.0,0.0,0.0,0.0,0.0,0.0,0.0,0.0,0.0,0.0,0.0,0.0,0.0,0.0,0.0,0.0,0.0,0.0,0.0,0.0,0.4172,0.4588,0.4802,0.5025,0.4961,0.0,0.0,0.0,0.0,0.0,0.0,0.0,0.0,0.0,0.1497,0.1194,0.0616,-0.0259,-0.0622,-0.1176,-0.1962,-0.2207,-0.2498,-0.289,-0.3204,-0.3256,-0.3131,-0.3334,-0.3015,-0.2311,-0.1343,-0.0839,-0.064,0.0,0.0,0.0,0.0,0.0,0.0217,0.01,0.0,-0.0025,0.0144,0.0,0.0,0.0,0.0,0.0,0.0,0.0,-0.0559,-0.1094,-0.1168,-0.117,-0.1391,-0.1389,-0.1347,-0.1278,-0.1076,-0.0696,0.0058,-0.0019,-0.0127,0.0112,-0.0156,0.0,0.0,0.0,-0.1742,-0.2229,-0.2705,-0.3056,-0.3211,-0.3196,-0.3111,-0.2961,-0.2735,-0.2498,-0.2215,-0.1945,-0.1658,-0.1325,-0.1076,-0.0691,0.0,0.0,0.0,0.0,0.0,0.0,0.0,0.0,0.0,0.0,0.0,0.0,0.0,0.0,0.0,0.0,0.0,0.0,0.0,0.0,0.0,0.0,0.0,0.0,0.0,0.0,0.0,0.0,0.4752,0.5244,0.5249,0.5438,0.5322,0.0,0.0,0.0,0.0,0.0,0.0,0.1815,0.1435,0.0676,-0.0519,-0.085,-0.1587,-0.2825,-0.3021,-0.3509,-0.428,-0.4279,-0.4582,-0.5109,-0.5184,-0.5123,-0.4985,-0.5018,-0.4988,-0.479,-0.2908,-0.2108,-0.2004,-0.1707,-0.1323,-0.0952,-0.1185,-0.1106,-0.088,-0.0838,-0.0962,-0.1106,-0.0927,-0.0908,-0.0994,-0.1036,0.0,0.0,0.0,0.0,-0.1874,-0.2332,-0.2431,-0.2511,-0.2765,-0.2849,-0.2849,-0.2768,-0.2863,-0.2552,-0.1218,-0.1172,-0.1288,-0.1048,-0.1285,0.0,-0.1281,0.0,-0.2428,-0.2849,-0.3205,-0.3514,-0.3703,-0.3723,-0.364,-0.3437,-0.3345,-0.3132,-0.2762,-0.2498,-0.2215,-0.1818,-0.1519,-0.1132,-0.0633,0.0,0.0,0.0,0.0,0.0,0.0,0.0,0.0,0.0,0.0,0.0,0.0,0.0,0.0,0.0,0.0,0.0,0.0,0.0,0.0,0.0,0.0,0.0,0.0,0.0,0.0,0.0,0.0,0.0,0.4854,0.5236,0.0,0.0,0.0,0.0,0.2331,0.1517,0.0741,-0.0029,-0.0911,-0.183,-0.2798,-0.3107,-0.3651,-0.4576,-0.4888,-0.5618,-0.6733,-0.6719,-0.7018,-0.7633,-0.7617,-0.7608,-0.7608,-0.7546,-0.7521,-0.7319,-0.4881,-0.3728,-0.3477,-0.3477,-0.3218,-0.2874,-0.3102,-0.2879,-0.2492,-0.2552,-0.2338,-0.2057,-0.2103,-0.1955,-0.1893,-0.2627,-0.2358,0.0,0.0,-0.3152,-0.322,-0.3745,-0.4025,-0.4089,-0.3792,-0.3973,-0.4118,-0.3803,-0.3991,-0.386,-0.2712,-0.2553,-0.2563,-0.2418,0.0,-0.2655,-0.2783,-0.2942,-0.3204,-0.3674,-0.3751,-0.3772,-0.3792,-0.3792,-0.3792,-0.3772,-0.3772,-0.3569,-0.3111,-0.295,-0.2639,-0.2112,-0.1769,-0.1387,-0.0978,-0.0639,0.0,0.0,0.0,0.0,0.0,0.0,0.0,0.0,0.0,0.0,0.0,0.0,0.0,0.0,0.0,0.0,0.0,0.0,0.0,0.0,0.0,0.0,0.0,0.0,0.0,0.0,0.0,0.0,0.4202,0.4091,0.0,0.311,0.1913,0.1032,0.0686,-0.074,-0.1773,-0.224,-0.2837,-0.3779,-0.521,-0.5376,-0.604,-0.7211,-0.7306,-0.7714,-0.8386,-0.8383,-0.8566,-0.8934,-0.8787,-0.8766,-0.8853,-0.8434,-0.8307,-0.8379,-0.7237,-0.6449,-0.5957,-0.555,-0.5081,-0.4565,-0.4351,-0.3925,-0.3506,-0.3515,-0.344,-0.3318,-0.3357,-0.3295,-0.3269,-0.3621,-0.3768,-0.4018,-0.4722,-0.5042,-0.5304,-0.5754,-0.5799,-0.5688,-0.5568,-0.5487,-0.5396,-0.5201,-0.5114,-0.4896,-0.4271,-0.4011,-0.3813,-0.3508,-0.3681,-0.3757,-0.3468,-0.3791,-0.4075,-0.4122,-0.424,-0.426,-0.4142,-0.4122,-0.4122,-0.4122,-0.4048,-0.3911,-0.3689,-0.3437,-0.3093,-0.2644,-0.2379,-0.1935,-0.1277,-0.1062,-0.0666,0.0,0.0,0.0,0.0,0.0,0.0,0.0,0.0,0.0,0.0,0.0,0.0,0.0,0.0,0.0,0.0,0.0,0.0,0.0,0.0,0.0,0.0,0.0,0.0,0.0,0.0,0.3698,0.349,0.3079,0.2561,0.184,0.0204,-0.0944,-0.126,-0.2864,-0.3998,-0.4428,-0.4997,-0.6003,-0.7531,-0.7584,-0.8245,-0.9596,-0.9596,-0.9827,-1.0253,-1.025,-1.0338,-1.0437,-1.0256,-1.0246,-1.035,-0.9866,-0.9737,-0.9891,-0.9561,-0.915,-0.8639,-0.7497,-0.6715,-0.6192,-0.5681,-0.5215,-0.4796,-0.4582,-0.4449,-0.4383,-0.4383,-0.4383,-0.4416,-0.457,-0.4826,-0.5198,-0.5663,-0.5974,-0.6211,-0.6473,-0.6505,-0.6496,-0.6435,-0.6435,-0.6374,-0.6213,-0.6129,-0.6006,-0.5716,-0.5175,-0.4651,-0.4357,-0.4388,-0.4433,-0.4354,-0.4374,-0.4453,-0.4612,-0.4548,-0.4451,-0.4333,-0.4354,-0.4366,-0.4366,-0.4273,-0.4158,-0.4042,-0.3758,-0.3416,-0.3019,-0.2697,-0.2239,-0.1579,-0.1283,-0.0953,-0.0562,0.0,0.0,0.0,0.0,0.0,0.0,0.0,0.0,0.0,0.0,0.0,0.0,0.0,0.0,0.0,0.0,0.0,0.0,0.0,0.0,0.0,0.0,0.0,0.2493,0.3394,0.3603,0.2608,0.2165,0.1384,-0.0142,-0.1269,-0.2353,-0.3414,-0.4729,-0.5811,-0.6571,-0.7415,-0.8456,-0.9711,-0.97,-1.0292,-1.1638,-1.1659,-1.1908,-1.2363,-1.2402,-1.2359,-1.2232,-1.2196,-1.2184,-1.2196,-1.2016,-1.1932,-1.1932,-1.1689,-1.1605,-1.1395,-0.9236,-0.8123,-0.7694,-0.708,-0.6739,-0.6448,-0.579,-0.5374,-0.516,-0.5148,-0.5142,-0.5211,-0.5548,-0.5498,-0.5449,-0.5763,-0.5927,-0.5966,-0.5888,-0.6222,-0.6521,-0.6376,-0.6725,-0.7038,-0.679,-0.6961,-0.7148,-0.7017,-0.5945,-0.5033,-0.4967,-0.4696,-0.4743,-0.5507,-0.4761,0.0,-0.5214,-0.4748,-0.4362,-0.4407,-0.4472,-0.4512,-0.4504,-0.446,-0.4317,-0.4109,-0.3917,-0.3633,-0.3229,-0.2707,-0.2265,-0.1915,-0.1306,-0.0969,-0.0911,0.0,0.0,0.0,0.0,0.0,0.0,0.0,0.0,0.0,0.0,0.0,0.0,0.0,0.0,0.0,0.0,0.0,0.0,0.0,0.0,0.0,0.0572,0.0658,0.1854,0.1616,0.1028,0.0227,-0.0592,-0.1462,-0.2345,-0.3682,-0.4771,-0.5536,-0.6868,-0.7958,-0.8711,-0.9265,-0.9954,-1.0897,-1.1358,-1.1886,-1.2519,-1.3263,-1.3819,-1.4195,-1.4525,-1.4811,-1.5036,-1.4424,-1.4275,-1.4498,-1.3172,-1.273,-1.2845,-1.213,-1.1799,-1.1634,-1.0534,-0.9732,-0.9152,-0.8655,-0.8111,-0.7509,-0.7047,-0.6825,-0.6704,-0.6371,-0.6254,-0.6285,-0.6489,-0.6681,-0.6909,-0.739,-0.7494,-0.7494,-0.775,-0.7679,-0.7511,-0.7452,-0.7244,-0.7046,-0.7114,-0.6872,-0.665,-0.6768,-0.6495,-0.6282,-0.6403,-0.6337,-0.6319,-0.6397,-0.6187,-0.5928,-0.5621,-0.5346,-0.5099,-0.4923,-0.4826,-0.4782,-0.473,-0.4738,-0.4566,-0.4125,-0.3994,-0.3835,-0.3584,-0.3181,-0.2662,-0.1996,-0.1421,-0.1131,0.0,0.0,0.0,0.0,0.0,0.0,0.0,0.0,0.0,0.0,0.0,0.0,0.0,0.0,0.0,0.0,0.0,0.0,0.0,0.0,0.0,0.0,-0.0537,-0.066,0.0218,-0.0183,-0.072,-0.1275,-0.2356,-0.3337,-0.4058,-0.5333,-0.6416,-0.7155,-0.8253,-0.9204,-1.0021,-1.0586,-1.1271,-1.2118,-1.2641,-1.3332,-1.4144,-1.4606,-1.4992,-1.5336,-1.544,-1.5594,-1.5684,-1.5158,-1.5158,-1.5459,-1.445,-1.3889,-1.3631,-1.3058,-1.2578,-1.2151,0.0,0.0,0.0,0.0,-0.8603,-0.7982,-0.7887,-0.7766,-0.7618,-0.7319,-0.7138,-0.7009,-0.7089,-0.7101,-0.7167,-0.749,-0.7521,-0.7521,-0.775,-0.7692,-0.7608,-0.7608,-0.7453,-0.7346,-0.7443,-0.7111,-0.6859,-0.7104,-0.705,0.0,-0.7344,-0.7005,-0.6772,-0.6937,-0.6625,-0.629,-0.6001,-0.5652,-0.532,-0.4976,-0.4837,-0.4751,-0.4669,-0.4642,0.0,0.0,0.0,-0.3814,-0.3429,-0.3132,0.0,0.0,0.0,0.0,0.0,0.0,0.0,0.0,-0.0429,-0.0267,0.0,0.0,0.0,0.0,0.0,0.0,0.0,0.0,0.0,0.0,0.0,0.0,0.0,0.0,0.0,0.0,-0.1487,-0.2118,-0.2075,-0.213,-0.2208,-0.2386,-0.3538,-0.466,-0.553,-0.6561,-0.7543,-0.8578,-0.9217,-0.9999,-1.1012,-1.1633,0.0,0.0,0.0,-1.4578,-1.584,-1.5657,-1.5724,-1.6051,-1.5806,-1.557,-1.5351,-1.5274,-1.5376,-1.563,-1.5527,-1.5041,-1.4298,-1.4198,-1.363,-1.2817,-1.1968,-1.1223,-1.0494,-0.9558,-0.8847,-0.8371,-0.8562,0.0,0.0,-0.814,-0.7868,-0.7595,-0.7595,-0.7274,-0.6881,-0.6881,-0.6855,-0.682,-0.682,-0.7038,-0.7255,-0.7255,-0.7492,-0.7704,-0.7656,-0.7415,-0.7297,-0.7575,-0.7392,-0.7343,-0.7748,-0.7055,-0.6692,-0.7279,-0.6593,-0.6137,-0.6365,-0.5918,-0.5379,-0.4906,-0.4797,0.0,-0.4584,-0.4387,-0.4247,-0.4207,-0.4042,-0.3682,-0.3062,-0.2848,-0.2562,-0.2167,-0.2092,-0.2052,-0.2052,-0.2011,-0.1776,-0.1364,-0.09,-0.0565,0.0,0.0,0.0,0.0,0.0,0.0,0.0,0.0,0.0,0.0,0.0,0.0,0.0,0.0,0.0,-0.226,-0.3141,-0.3841,-0.4166,-0.4667,-0.4834,-0.4401,-0.5005,-0.6064,-0.7563,-0.7867,-0.8766,-1.0651,-1.0526,-1.1195,-1.3088,-1.3029,-1.3328,-1.4225,-1.4813,-1.5237,-1.5472,-1.6174,-1.6712,-1.7031,-1.733,0.0,-1.7409,-1.7022,-1.6738,-1.652,-1.5731,-1.5277,-1.498,-1.4538,-1.3972,-1.3263,-1.2373,-1.192,-1.1689,-1.0829,-1.0462,-1.0243,-0.9606,-0.9352,-0.9238,-0.8904,-0.8742,-0.8675,-0.8675,-0.8412,0.0,-0.8076,-0.7806,-0.751,-0.751,-0.7539,-0.7608,-0.7608,-0.7404,-0.7217,-0.7227,-0.6881,-0.6587,-0.6666,-0.6617,-0.673,-0.7166,-0.743,-0.7626,-0.7686,-0.7587,-0.7362,-0.6985,-0.6745,-0.6414,-0.588,-0.5724,-0.548,-0.5036,-0.4855,-0.4598,-0.4223,-0.3869,-0.3549,-0.3254,-0.3041,-0.2826,-0.2589,-0.242,-0.2315,-0.2315,-0.21,-0.1928,-0.1776,-0.1363,-0.0968,0.0,0.0,0.0,0.0,0.0,0.0,0.0,0.0,0.0,0.0,0.0,-0.1478,-0.1928,0.0,-0.2957,-0.3617,-0.4414,-0.5055,-0.5277,-0.607,-0.6452,-0.5913,-0.6482,-0.7419,-0.8683,-0.8852,-0.9542,-1.1064,-1.1348,-1.2033,-1.3395,-1.3864,-1.4293,-1.4728,-1.529,-1.5697,-1.5855,-1.6157,-1.6454,-1.6811,-1.6866,-1.685,-1.6782,-1.6537,-1.6314,-1.6057,-1.5828,-1.5461,-1.4987,-1.4517,-1.4171,-1.3843,-1.3077,-1.2527,-1.2041,-1.1442,-1.1217,-1.1148,-1.0683,-1.0536,-1.0531,-1.0313,-0.9944,-0.9621,-0.9829,-0.92,-0.8442,-0.8652,-0.8208,-0.7695,-0.7695,-0.7695,-0.7695,-0.7695,-0.754,-0.7384,-0.7384,-0.7061,-0.6758,-0.6758,-0.6572,-0.6484,-0.6709,-0.7163,-0.7555,-0.7715,-0.7773,-0.7616,-0.7158,-0.708,-0.6842,-0.6318,-0.6138,-0.5778,-0.5154,-0.4669,-0.4305,-0.4071,-0.3869,-0.3612,-0.3317,-0.3211,-0.3019,-0.2745,-0.2616,-0.2551,-0.2551,-0.2423,-0.2273,-0.215,-0.1919,-0.1492,0.0,0.0,0.0,0.0,0.0,0.0,0.0,0.0,-0.1863,-0.2079,-0.2333,-0.2658,-0.3282,-0.3582,-0.402,-0.481,-0.5566,-0.6076,-0.6149,-0.7043,-0.7626,-0.7383,-0.7784,-0.8456,-0.9323,-0.9674,-1.0297,-1.1358,-1.2125,-1.2896,-1.3586,-1.4495,-1.5071,-1.5157,-1.5576,-1.5913,-1.6194,-1.5913,-1.5957,-1.6312,-1.6032,-1.5807,-1.5583,-1.5583,-1.5404,-1.5146,-1.5667,-1.5558,-1.4965,-1.4724,-1.4542,-1.4397,-1.3975,-1.3222,-1.2313,-1.1808,-1.1553,-1.1479,-1.1404,-1.133,-1.1255,-1.1255,-1.0777,-1.0293,-1.0606,-0.9726,-0.8701,-0.892,-0.843,-0.7802,-0.7725,-0.7695,-0.7695,-0.7695,-0.7695,-0.7676,-0.7598,-0.7344,-0.707,-0.6982,-0.666,-0.6436,-0.6523,-0.6855,-0.7217,-0.753,-0.7647,-0.7579,-0.7266,-0.7207,-0.7005,-0.6482,-0.6275,-0.5887,-0.5157,-0.4514,-0.4118,-0.4075,-0.3994,-0.3787,-0.3464,-0.3364,-0.3169,-0.2859,-0.281,-0.2767,-0.2724,-0.2724,-0.2637,-0.2464,-0.2413,-0.2023,-0.2389,-0.2301,-0.2262,-0.2608,-0.245,-0.2442,0.0,0.0,-0.34,-0.391,-0.4314,-0.4704,-0.5111,-0.5465,-0.5769,-0.6079,-0.6651,-0.7133,-0.7467,-0.7998,-0.8602,-0.9204,-0.8804,-0.8804,-0.9658,-1.0406,-1.1419,-1.2853,-1.3323,-1.4136,-1.5413,-1.5217,-1.5297,-1.5708,-1.5768,-1.5836,-1.5881,-1.5836,-1.5957,-1.6312,-1.6269,-1.6008,-1.5583,-1.5583,-1.5163,-1.4444,-1.4938,-1.5326,-1.57,-1.5656,-1.5336,-1.4917,-1.4857,-1.4209,-1.3237,-1.2359,-1.1811,-1.1442,-1.1105,-1.0725,-1.0428,-1.0428,-1.036,-1.0282,-1.0321,-0.9948,-0.9414,-0.9101,-0.8665,-0.8223,-0.7802,-0.7695,-0.7695,-0.7695,-0.7695,-0.7598,-0.7246,-0.7139,-0.6982,-0.6562,-0.6445,-0.6543,-0.6953,-0.707,-0.7119,-0.7168,-0.7462,-0.7686,-0.7637,-0.7376,-0.7034,-0.6638,-0.6313,-0.5834,-0.517,-0.5006,-0.4882,-0.4697,-0.4314,-0.4064,-0.4018,-0.356,-0.3232,-0.3068,-0.3068,-0.2961,-0.2794,-0.2794,-0.2745,-0.2659,-0.2721,-0.2437,-0.3339,-0.3607,-0.3864,0.0,-0.4372,-0.468,-0.461,-0.4982,-0.5385,-0.5514,-0.5831,-0.6156,-0.6361,-0.6373,-0.6585,0.0,-0.7617,-0.8072,-0.8414,-0.9088,-0.9663,-0.9903,-0.9914,-1.0244,-1.118,-1.1336,-1.2087,-1.3718,-1.401,-1.4481,-1.5355,-1.548,-1.5614,-1.5792,-1.5792,-1.5792,-1.5792,-1.5792,-1.5712,-1.5526,-1.5526,-1.513,-1.4391,-1.4391,-1.4191,-1.3855,-1.4357,-1.4886,-1.536,-1.5672,-1.566,-1.5432,-1.5121,-1.4737,-1.4245,-1.3281,-1.2624,-1.215,-1.1737,-1.1479,-1.1292,-1.1067,-1.084,-1.0697,-1.0916,-1.0345,-0.9626,-0.9697,-0.9087,-0.8371,-0.8154,-0.792,-0.7695,-0.7695,-0.7695,-0.7656,-0.7472,-0.7433,-0.7334,-0.6895,-0.6807,-0.6787,-0.6709,-0.6924,-0.71,-0.71,-0.7433,-0.7695,-0.7695,-0.7412,-0.7064,-0.6699,-0.6225,-0.5827,-0.5518,-0.5155,-0.4885,-0.4807,-0.4607,-0.4375,-0.4103,-0.3874,-0.3592,-0.3217,-0.3211,-0.3203,-0.3146,-0.3146,-0.3154,-0.3177,-0.3195,-0.3088,-0.421,0.0,0.0,-0.5341,-0.6039,-0.6536,-0.589,-0.6385,-0.6936,-0.681,-0.7069,-0.7372,-0.7372,-0.7344,-0.7538,-0.8203,-0.8691,-0.9119,-0.9475,-1.0164,-1.0608,-1.0558,-1.0748,-1.1376,-1.2569,-1.2425,-1.2817,-1.4195,-1.4607,-1.4938,-1.5266,-1.5614,-1.5792,-1.5792,-1.5792,-1.5792,-1.5792,-1.5648,-1.5384,-1.5013,-1.4857,-1.4345,-1.3493,-1.3348,-1.336,-1.3517,-1.3903,-1.4418,-1.5037,-1.542,-1.566,-1.5756,-1.5372,-1.5133,-1.4917,-1.4189,-1.343,-1.2674,-1.2232,-1.2041,-1.1884,-1.159,-1.1217,-1.0954,-1.1255,-1.0613,-0.9822,-0.9975,-0.9397,-0.8672,-0.8469,-0.8145,-0.7841,-0.7725,-0.7695,-0.7695,-0.7695,-0.7695,-0.7608,-0.7334,-0.7275,-0.7168,-0.6826,-0.7051,-0.7275,-0.7275,-0.7501,-0.7695,-0.7695,-0.7324,-0.6948,-0.6617,-0.6126,-0.5808,-0.5808,-0.535,-0.5078,-0.5078,-0.499,-0.4784,-0.441,-0.4336,-0.4063,-0.3619,-0.3635,-0.3663,-0.3645,-0.3571,-0.3569,-0.3602,-0.3618,-0.3617,0.0,0.0,-0.6112,-0.6389,-0.6952,-0.747,-0.7421,-0.7598,-0.776,-0.7659,-0.7969,-0.8282,-0.8282,-0.8622,-0.9054,-0.9487,-0.9929,-1.0371,-1.0765,-1.1194,-1.146,-1.1439,-1.1147,-1.1619,0.0,-1.3639,-1.3859,-1.4347,-1.5251,-1.5768,-1.5792,-1.5792,-1.5792,-1.5792,-1.5792,-1.5792,-1.5792,-1.5289,-1.5025,-1.5001,-1.4526,-1.4024,-1.3481,-1.2963,-1.3011,-1.3505,-1.3517,-1.4081,-1.5013,-1.5025,-1.5325,-1.5792,-1.578,-1.5456,-1.5001,-1.4977,-1.408,-1.2808,-1.2275,-1.1847,-1.1516,-1.1516,-1.1217,-1.0916,-1.0916,-1.0611,-1.0176,-0.9746,-0.9573,-0.9369,-0.8594,-0.8401,-0.8252,-0.7802,-0.7695,-0.7695,-0.7695,-0.7695,-0.7695,-0.7686,-0.7676,-0.7676,-0.7656,-0.7666,-0.7676,-0.7676,-0.7695,-0.7695,-0.7695,-0.7127,-0.6617,-0.6337,-0.599,-0.5797,-0.5797,-0.5789,-0.5782,-0.5782,-0.5458,-0.5254,-0.5168,-0.4914,-0.4637,-0.4375,-0.4499,-0.448,-0.4277,-0.4,-0.39,-0.3885,-0.3894,-0.3887,-0.6443,0.0,-0.819,-0.8659,-0.8988,-0.9211,-0.9215,-0.9124,-0.9034,-0.9201,-0.8855,-0.8572,-0.8614,-0.8595,-0.8816,-0.9504,-1.0213,-1.0944,-1.173,-1.2195,-1.2487,-1.2444,-1.2637,0.0,0.0,0.0,0.0,-1.5239,-1.5596,-1.5792,-1.5792,-1.5792,-1.5792,-1.5792,-1.5792,-1.5792,-1.5792,-1.5624,-1.5348,-1.5001,-1.4153,-1.3674,-1.3481,-1.295,-1.2806,-1.2999,-1.3348,-1.3903,-1.455,-1.4857,-1.5325,-1.5792,-1.5468,-1.5229,-1.4998,-1.4313,-1.3747,-1.3262,-1.2508,-1.2141,-1.1894,-1.0981,-1.0621,-1.0505,-1.0505,-1.04,-1.0254,-1.0107,-0.9853,-0.9534,-0.9252,-0.8799,-0.8371,-0.8193,-0.7939,-0.7695,-0.7695,-0.7695,-0.7695,-0.7695,-0.7695,-0.7695,-0.7695,-0.7695,-0.7695,-0.7695,-0.7695,-0.7637,-0.7383,-0.6978,-0.6669,-0.6587,-0.6114,-0.5905,-0.6122,-0.5936,-0.5811,-0.5811,-0.5654,-0.5442,-0.5211,-0.5026,-0.4809,-0.4534,-0.4579,-0.4596,-0.457,-0.4479,-0.4379,-0.429,-0.4289,-0.4266,-0.7882,-0.8748,-0.9665,-1.0127,-1.0382,-1.0499,-1.0483,-1.021,-0.9938,-0.9987,-0.9358,-0.8805,-0.8823,-0.8583,-0.8771,-0.9873,-1.0548,-1.1267,-1.2347,-1.29,-1.319,-1.3162,-1.3478,-1.3912,0.0,0.0,0.0,-1.5688,-1.5792,-1.5792,-1.5792,-1.5792,-1.5792,-1.5792,-1.5792,-1.5792,-1.5792,-1.56,-1.5241,-1.4754,-1.4041,-1.3706,-1.3694,-1.3166,-1.2926,-1.2938,-1.3119,-1.3626,-1.4313,-1.4622,-1.5145,-1.5792,-1.548,-1.5244,-1.5017,-1.4384,-1.3993,-1.3717,-1.2789,-1.2491,-1.2323,-1.1261,-1.0853,-1.0705,-1.0555,-1.039,-1.0283,-1.0283,-1.0078,-0.9824,-0.9631,-0.9228,-0.8789,-0.8643,-0.8271,-0.7959,-0.7959,-0.7812,-0.7695,-0.7695,-0.7608,-0.7569,-0.7666,-0.7569,-0.75,-0.75,-0.7353,-0.7294,-0.7383,-0.6978,-0.6691,-0.6691,-0.6137,-0.585,-0.6067,-0.5842,-0.5686,-0.5686,-0.5662,-0.5514,-0.5286,-0.5206,-0.5079,-0.4885,-0.4906,-0.494,-0.4983,-0.4774,-0.4624,-0.4517,-0.4323,-0.4161,-0.9306,-0.9897,-1.0477,-1.091,-1.1132,-1.125,-1.1225,-1.0916,-1.0476,-1.0066,-0.9436,-0.8893,0.0,0.0,-0.9056,-1.0593,-1.0918,-1.1439,-1.2791,-1.3351,-1.3651,0.0,0.0,0.0,0.0,0.0,0.0,-1.5712,-1.5792,-1.5792,-1.5792,-1.5792,-1.5792,-1.5792,-1.5792,-1.5792,-1.5792,-1.5301,-1.4838,-1.4373,-1.4241,-1.4149,-1.4137,-1.3614,-1.3352,-1.3305,-1.2902,-1.3324,-1.4253,-1.4277,-1.4862,-1.5756,-1.5736,-1.5468,-1.5062,-1.5017,-1.4674,-1.4071,-1.3119,-1.2796,-1.2741,-1.2243,-1.1813,-1.1418,-1.1015,-1.0613,-1.0312,-1.0332,-1.0283,-1.0186,-0.9738,-0.9612,-0.9495,-0.9096,-0.8721,-0.8408,-0.8379,-0.8026,-0.7725,-0.7705,-0.7442,-0.7314,-0.7637,-0.7344,-0.7089,-0.7089,-0.6751,-0.6768,-0.7539,-0.7068,-0.6669,-0.67,-0.6083,-0.5708,-0.5708,-0.5599,-0.5491,-0.5491,-0.5491,-0.5467,-0.5386,-0.5467,-0.5467,-0.5386,-0.5467,-0.5498,-0.5491,-0.4922,-0.4628,-0.4564,-0.3993,-0.3737,-1.0996,-1.1445,-1.1835,-1.2263,-1.2141,-1.1895,-1.193,-1.1009,-1.0081,-0.9781,-0.9018,-0.8177,0.0,0.0,0.0,-0.9643,-1.0916,0.0,-1.3736,-1.4068,0.0,-1.4688,0.0,-1.5215,-1.508,-1.5313,0.0,0.0,-1.5792,-1.5792,-1.5792,-1.5792,-1.5792,-1.5792,-1.5792,-1.5792,-1.5792,-1.566,-1.5528,-1.5428,-1.4989,-1.4767,-1.4755,-1.4257,-1.384,-1.3456,-1.336,-1.3457,-1.3734,-1.4026,-1.4535,-1.5124,-1.5037,-1.4858,-1.4593,-1.3931,-1.3542,-1.3263,-1.273,-1.2731,-1.2822,-1.1999,-1.1644,-1.1479,-1.1043,-1.0833,-1.0684,-1.0371,-1.0283,-1.0254,-1.0146,-0.9808,-0.951,-0.9404,-0.8987,-0.8527,-0.8236,-0.8083,-0.7911,-0.7606,-0.748,-0.7451,-0.7549,-0.7264,-0.7038,-0.7038,-0.673,-0.6579,-0.679,-0.6435,-0.6283,-0.6518,-0.5952,-0.5655,-0.5905,-0.5648,-0.5491,-0.5491,-0.5442,-0.5417,-0.5386,-0.5379,-0.534,-0.5316,-0.534,-0.534,-0.534,-0.5182,-0.4922,-0.4526,-0.4371,-0.4086,-1.1826,-1.226,-1.2578,-1.2822,-1.2541,-1.2092,-1.1757,-1.0791,-0.9689,-0.8874,-0.8017,0.0,-0.6565,-0.7528,0.0,0.0,0.0,0.0,-1.3723,-1.4174,-1.4536,0.0,-1.5367,0.0,-1.5289,-1.5513,-1.5659,0.0,-1.5703,-1.5748,-1.5748,-1.5748,-1.5748,-1.5659,-1.5748,-1.5748,-1.5659,-1.5659,-1.5659,-1.5647,-1.5318,-1.5132,-1.512,-1.4642,-1.4239,-1.3943,-1.3507,-1.3474,-1.37,-1.3694,-1.4026,-1.4518,-1.4656,-1.4541,-1.4203,-1.3716,-1.3351,-1.3025,-1.2618,-1.2609,-1.2666,-1.1992,-1.1766,-1.1679,-1.1252,-1.099,-1.0787,-1.0504,-1.0311,-1.0176,-1.0176,-0.9954,-0.9706,-0.9706,-0.9354,-0.8856,-0.8456,-0.8219,-0.7941,-0.7377,-0.7392,-0.7451,-0.7303,-0.6987,-0.6747,-0.6747,-0.6313,-0.5975,-0.5975,-0.5983,-0.6083,-0.6252,-0.5773,-0.5529,-0.5718,-0.5529,-0.5404,-0.5404,-0.5379,-0.5347,-0.5347,-0.5316,-0.5309,-0.5309,-0.5309,-0.5309,-0.5309,-0.5157,-0.4826,-0.4366,-0.4199,-0.3918,-1.2187,-1.254,-1.2774,-1.2676,-1.2359,-1.1815,-1.1062,-1.0197,-0.916,-0.7712,0.0,-0.6227,-0.5916,-0.6502,-0.7565,-0.9154,0.0,-1.1778,-1.3192,-1.3956,-1.447,-1.4698,-1.5175,-1.5468,-1.5513,-1.5513,-1.5513,-1.5513,-1.557,-1.5671,-1.5659,-1.5659,-1.5614,-1.5513,-1.5614,-1.5614,-1.5513,-1.5513,-1.5513,-1.5513,-1.539,-1.5357,-1.5289,-1.4847,-1.4615,-1.4499,-1.3673,-1.3537,-1.3853,-1.3506,-1.3635,-1.4117,-1.4526,-1.4399,-1.4016,-1.3875,-1.3542,-1.3084,-1.2618,-1.2431,-1.2414,-1.2149,-1.2081,-1.1995,-1.1583,-1.1152,-1.0829,-1.0647,-1.0293,-0.998,-0.998,-0.998,-0.998,-0.998,-0.9667,-0.9244,-0.8847,-0.8432,-0.7972,-0.7332,-0.743,-0.7512,-0.7106,-0.6732,-0.6439,-0.6329,-0.5742,-0.5309,-0.5309,-0.5655,-0.5897,-0.5897,-0.5599,-0.5386,-0.5386,-0.5347,-0.5309,-0.5309,-0.5309,-0.5309,-0.5309,-0.5309,-0.5309,-0.5309,-0.5309,-0.5309,-0.5309,-0.4998,-0.4672,-0.4274,-0.3914,-0.3607,-1.2693,-1.2492,-1.2126,-1.161,-1.127,-1.0851,-1.0048,-0.9042,0.0,0.0,-0.616,-0.5566,-0.4685,-0.6319,-0.796,-0.8444,0.0,0.0,0.0,0.0,-1.4127,0.0,0.0,0.0,0.0,-1.5513,0.0,0.0,-1.5435,-1.5435,-1.5513,-1.5513,-1.5513,-1.5513,-1.5513,-1.5513,-1.5513,-1.5513,-1.5513,-1.5513,-1.5468,-1.5468,-1.5468,-1.5374,-1.506,-1.465,-1.4505,-1.4234,-1.3912,-1.418,-1.4336,-1.4421,-1.4429,-1.4334,-1.4057,-1.3263,-1.2929,-1.2715,-1.2323,-1.2175,-1.2215,-1.2346,-1.2415,-1.2339,-1.1874,-1.1438,-1.1065,-1.069,-1.0293,-0.998,-0.998,-0.9902,-0.9823,-0.9823,-0.9737,-0.9531,-0.9106,-0.8708,-0.8403,-0.8262,-0.8286,-0.8109,-0.7449,-0.7032,-0.6602,-0.6005,-0.5561,-0.5309,-0.5309,-0.5372,-0.5435,-0.5435,-0.5347,-0.5316,-0.5316,-0.5316,-0.5309,-0.5309,-0.5309,-0.5309,-0.5309,-0.5309,-0.5309,-0.5309,-0.5309,-0.5309,-0.5309,-0.5246,-0.503,-0.4678,-0.4312,-0.4018,-1.2387,-1.2058,-1.1619,-1.166,-1.116,-1.0372,-0.9022,0.0,0.0,0.0,-0.5068,-0.4822,-0.4337,0.0,0.0,0.0,0.0,0.0,0.0,0.0,0.0,0.0,0.0,0.0,0.0,-1.5289,-1.5289,-1.5289,-1.5255,-1.5255,-1.539,-1.5334,-1.5334,-1.539,-1.5334,-1.5289,-1.5289,-1.5289,-1.5289,-1.5289,-1.5289,-1.5289,-1.5289,-1.5289,-1.5015,-1.4507,-1.4236,-1.3835,-1.3313,-1.327,-1.3238,-1.3281,-1.348,-1.3514,-1.3407,-1.2974,-1.2774,-1.2696,-1.2274,-1.2076,-1.2126,-1.2274,-1.2323,-1.2344,-1.2137,-1.179,-1.1367,-1.0901,-1.0456,-1.0093,-0.9888,-0.9793,-0.9753,-0.9753,-0.9548,-0.9336,-0.9133,-0.8774,-0.8498,-0.8498,-0.8498,-0.8296,-0.7723,-0.7338,-0.6896,-0.63,-0.5971,-0.5773,-0.5773,-0.5773,-0.5652,-0.5342,-0.5309,-0.5309,-0.5309,-0.5309,-0.5309,-0.5309,-0.5309,-0.5309,-0.5309,-0.5309,-0.5309,-0.5309,-0.5309,-0.5309,-0.5309,-0.5431,-0.5339,-0.4985,-0.4739,-0.4459,-1.1701,-1.144,-1.125,-1.156,-1.0971,-0.9812,-0.8095,-0.7362,0.0,0.0,-0.4171,-0.4163,-0.4226,0.0,0.0,0.0,0.0,0.0,0.0,0.0,0.0,0.0,0.0,0.0,0.0,-1.5108,0.0,-1.5108,-1.5108,-1.5165,-1.5255,-1.5165,-1.5165,-1.5255,-1.5153,-1.5108,-1.5108,-1.5108,-1.5062,-1.4971,-1.4971,-1.488,-1.4777,-1.4777,-1.4605,-1.4212,-1.3766,-1.3369,-1.2929,-1.2556,-1.2412,-1.2443,-1.268,-1.2813,-1.2771,-1.2695,-1.2628,-1.2579,-1.2215,-1.2076,-1.2076,-1.2076,-1.2175,-1.2274,-1.2274,-1.2003,-1.1565,-1.1131,-1.0689,-1.0247,-0.9934,-0.9747,-0.9683,-0.9683,-0.9465,-0.9225,-0.9225,-0.8977,-0.8756,-0.8756,-0.8756,-0.855,-0.7942,-0.7593,-0.7207,-0.6593,-0.6336,-0.6196,-0.6196,-0.6196,-0.6014,-0.5551,-0.5497,-0.5497,-0.5497,-0.5497,-0.547,-0.5377,-0.5463,-0.547,-0.5377,-0.5463,-0.5497,-0.5497,-0.5497,-0.5497,-0.5504,-0.5698,-0.5672,-0.5398,-0.5211,-0.4985,-1.072,-1.0771,-1.0872,-1.032,-0.9663,-0.8769,-0.7313,0.0,0.0,-0.447,-0.392,-0.3731,-0.3988,-0.4631,0.0,0.0,0.0,-0.9271,0.0,0.0,0.0,0.0,0.0,0.0,-1.5062,-1.5108,-1.5108,-1.5108,-1.5108,-1.5108,-1.5108,-1.5108,-1.5108,-1.5108,-1.5108,-1.5108,-1.5108,-1.5108,-1.488,-1.4466,-1.4466,-1.4233,-1.3752,-1.3752,-1.3705,-1.3658,-1.3616,-1.3548,-1.3501,-1.346,-1.3449,-1.3402,-1.2984,-1.2802,-1.2764,-1.2344,-1.2166,-1.2175,-1.2126,-1.2076,-1.2076,-1.2076,-1.2126,-1.2126,-1.2126,-1.1849,-1.1527,-1.1443,-1.0866,-1.0303,-1.0266,-0.999,-0.9683,-0.9683,-0.9695,-0.9667,-0.9667,-0.96,-0.9573,-0.9573,-0.9573,-0.9241,-0.8092,-0.7875,-0.747,-0.6415,-0.6226,-0.6196,-0.6196,-0.6196,-0.6169,-0.6122,-0.6115,-0.6115,-0.6115,-0.6115,-0.5994,-0.5691,-0.5961,-0.5988,-0.5685,-0.5967,-0.6115,-0.6115,-0.6115,-0.6115,-0.6115,-0.6135,-0.6156,-0.6119,-0.5732,-0.5609,-0.9883,-0.9911,-1.002,-1.0387,-0.9516,-0.8296,-0.731,0.0,-0.537,-0.4044,-0.368,-0.3696,-0.4063,-0.456,-0.5263,0.0,0.0,0.0,0.0,0.0,0.0,0.0,0.0,0.0,0.0,0.0,-1.5006,-1.5108,-1.5108,-1.4971,-1.4697,-1.4971,-1.5108,-1.5108,-1.5108,-1.4971,-1.4697,-1.4697,-1.4419,-1.3905,-1.3905,-1.381,-1.3621,-1.3621,-1.342,-1.3112,-1.3112,-1.2977,-1.2706,-1.2706,-1.2706,-1.2706,-1.2452,-1.2403,-1.2353,-1.2166,-1.2076,-1.2076,-1.2076,-1.2076,-1.2076,-1.2076,-1.2076,-1.2076,-1.2076,-1.2015,-1.1792,-1.1553,-1.1251,-1.0893,-1.0441,-1.0017,-0.9683,-0.9683,-0.9683,-0.9683,-0.9683,-0.9683,-0.9603,-0.9355,-0.9266,-0.8964,-0.795,-0.7767,-0.7521,-0.6774,-0.6673,-0.6673,-0.6673,-0.6673,-0.6673,-0.6673,-0.6404,-0.6196,-0.6196,-0.6196,-0.6142,-0.6021,-0.6129,-0.6142,-0.6021,-0.6129,-0.6196,-0.6196,-0.6196,-0.6196,-0.6196,-0.6371,-0.6458,-0.642,-0.6157,-0.6078,-0.9104,-0.9305,-0.9487,-1.0236,-0.9329,-0.8036,0.0,-0.611,-0.512,-0.3774,-0.3541,-0.3703,-0.4125,-0.4479,-0.4978,-0.5862,0.0,-0.698,-0.848,0.0,0.0,0.0,0.0,-1.3354,0.0,-1.4596,-1.4915,-1.488,-1.488,-1.4697,-1.4186,-1.4455,-1.4731,-1.488,-1.4834,-1.4697,-1.4373,-1.4233,-1.3894,-1.3362,-1.3362,-1.3276,-1.3142,-1.3142,-1.2939,-1.2579,-1.2579,-1.2403,-1.2076,-1.2076,-1.2076,-1.2076,-1.2076,-1.2076,-1.2076,-1.2076,-1.2076,-1.2076,-1.2076,-1.2076,-1.2076,-1.2076,-1.2076,-1.2076,-1.2076,-1.2076,-1.1994,-1.1599,-1.1315,-1.0967,-1.0143,-0.9722,-0.9475,-0.9306,-0.9266,-0.9266,-0.9266,-0.9266,-0.9185,-0.8854,-0.8814,-0.8561,-0.7848,-0.7682,-0.7558,-0.7063,-0.6979,-0.6979,-0.6979,-0.6979,-0.6979,-0.6979,-0.666,-0.6451,-0.6451,-0.6451,-0.6418,-0.633,-0.6404,-0.6411,-0.6324,-0.6404,-0.6451,-0.6451,-0.6451,-0.6451,-0.6451,-0.662,-0.6713,-0.672,-0.6588,-0.6416,-0.8399,-0.9047,-0.959,-0.9452,-0.8838,-0.7849,0.0,-0.5595,-0.512,-0.3774,-0.3506,-0.3654,-0.4104,-0.4215,-0.4598,-0.5817,-0.6048,0.0,-0.8812,0.0,0.0,0.0,0.0,-1.2603,-1.3531,-1.4406,-1.4777,-1.4419,-1.4419,-1.4186,-1.3621,-1.361,-1.3858,-1.4384,-1.428,-1.4269,-1.4373,-1.3858,-1.3314,-1.2812,-1.2812,-1.2589,-1.2126,-1.2126,-1.2126,-1.2126,-1.2126,-1.2076,-1.2076,-1.2076,-1.2076,-1.2076,-1.2076,-1.2076,-1.2076,-1.2076,-1.2076,-1.2076,-1.2076,-1.2076,-1.2076,-1.2076,-1.2076,-1.2076,-1.2076,-1.2076,-1.1994,-1.1599,-1.0947,-1.0103,-0.9249,-0.9024,-0.8895,-0.8439,-0.8316,-0.8316,-0.8316,-0.8316,-0.8316,-0.8316,-0.8316,-0.8193,-0.7765,-0.7682,-0.7558,-0.7063,-0.6979,-0.6979,-0.6979,-0.6979,-0.6979,-0.6979,-0.6979,-0.6972,-0.6972,-0.6972,-0.6894,-0.6607,-0.6854,-0.6887,-0.6593,-0.686,-0.6972,-0.6972,-0.6972,-0.6972,-0.6972,-0.7014,-0.6979,-0.6979,-0.6979,-0.6761,-0.6572,-0.7061,-0.7575,-0.7723,-0.7145,-0.6371,-0.582,-0.5211,-0.4498,-0.3667,-0.3506,-0.3654,-0.4104,-0.4055,-0.4392,-0.5778,-0.5894,0.0,0.0,0.0,0.0,0.0,-1.2981,-1.405,0.0,0.0,-1.449,-1.4731,-1.4455,-1.4129,-1.3884,-1.414,-1.415,-1.3858,-1.38,-1.3647,-1.3304,-1.316,-1.2832,-1.2304,-1.2304,-1.2264,-1.2076,-1.2076,-1.2076,-1.2076,-1.2076,-1.2076,-1.2076,-1.2076,-1.2076,-1.2076,-1.2076,-1.2076,-1.2076,-1.2076,-1.2076,-1.2076,-1.2076,-1.2076,-1.2076,-1.2076,-1.2076,-1.2076,-1.2076,-1.2076,-1.2049,-1.1929,-1.1352,-1.0549,-0.9978,-0.9401,-0.8895,-0.8398,-0.8316,-0.8316,-0.8316,-0.8316,-0.8234,-0.7938,-0.7897,-0.7765,-0.7308,-0.7231,-0.7189,-0.7021,-0.6979,-0.6979,-0.6979,-0.6979,-0.6979,-0.6979,-0.6979,-0.6979,-0.6979,-0.6979,-0.6981,-0.6894,-0.6974,-0.6981,-0.6887,-0.6974,-0.6979,-0.6979,-0.6943,-0.695,-0.695,-0.6829,-0.6787,-0.6787,-0.6471,-0.6428,0.0,-0.5964,-0.637,-0.6528,-0.6098,-0.5564,-0.528,-0.4707,-0.4108,-0.3606,-0.3506,-0.3605,-0.3973,-0.3924,-0.4223,-0.55,-0.5591,0.0,0.0,0.0,0.0,-1.1635,0.0,0.0,0.0,-1.3986,-1.3978,-1.4097,-1.3967,-1.3789,-1.3542,-1.3941,-1.3894,-1.3314,-1.342,-1.3266,-1.2812,-1.2628,-1.2403,-1.2076,-1.2076,-1.2076,-1.2076,-1.2076,-1.2076,-1.2076,-1.2076,-1.2076,0.0,-1.2076,-1.2076,-1.2076,-1.2076,-1.2076,-1.2076,-1.2076,-1.2076,-1.2076,-1.2076,-1.2076,-1.2076,-1.2076,-1.2076,-1.2076,-1.2076,-1.1975,-1.1856,-1.1856,-1.123,-1.0445,-1.003,-0.9382,-0.8711,-0.828,-0.815,-0.815,-0.815,-0.815,-0.8026,-0.7681,-0.761,-0.7489,-0.7083,-0.6979,-0.6979,-0.6979,-0.6979,-0.6979,-0.6979,-0.6979,-0.6979,-0.6979,-0.6985,-0.6943,-0.6943,-0.6979,-0.6979,-0.6943,-0.6979,-0.6985,-0.6907,-0.6943,-0.6979,-0.6907,-0.6914,-0.6872,-0.6836,-0.6751,-0.6715,-0.6715,-0.6398,-0.6441,0.0,-0.556,-0.5747,-0.5717,-0.5568,-0.5219,-0.4514,-0.4148,0.0,-0.3566,-0.3506,-0.3576,-0.3815,-0.3843,-0.4141,-0.5093,-0.5294,0.0,0.0,-0.9094,0.0,0.0,-1.2892,0.0,-1.3045,-1.3211,-1.3218,-1.2909,-1.3218,-1.3266,-1.2871,-1.3218,-1.3218,-1.2822,-1.3016,-1.3025,-1.2764,-1.2304,-1.2076,-1.2076,-1.2076,-1.2076,-1.2076,-1.2076,-1.2076,-1.2076,-1.2076,-1.2076,-1.2076,-1.2076,-1.2076,-1.2076,-1.2076,-1.2076,-1.2076,-1.2076,-1.2076,-1.2076,-1.2076,-1.2076,-1.2076,-1.2076,-1.2076,-1.2076,-1.2076,-1.1819,-1.1526,-1.1479,-1.0798,-0.9927,-0.9522,-0.9004,-0.849,-0.8024,-0.7882,-0.7882,-0.7882,-0.7882,-0.7842,-0.7555,-0.754,-0.7415,-0.7092,-0.7045,-0.7045,-0.7038,-0.7038,-0.7038,-0.7038,-0.7038,-0.7038,-0.7038,-0.6967,-0.6937,-0.6937,-0.697,-0.6956,-0.6898,-0.6976,-0.6947,-0.6772,-0.6924,-0.6967,-0.6772,-0.6851,-0.6851,-0.6729,-0.671,-0.6698,-0.6698,-0.6636,-0.6666,-0.3908,0.0,-0.4398,-0.4131,-0.42,-0.4242,0.0,-0.3854,-0.3911,0.0,0.0,-0.3705,-0.4357,-0.4193,-0.4371,-0.5612,0.0,0.0,-0.834,0.0,0.0,-1.2532,-1.3273,-1.3648,-1.3344,-1.3034,-1.3094,-1.3684,-1.3457,-1.3314,-1.3563,-1.3668,-1.3382,-1.2764,-1.2764,-1.2618,-1.2264,-1.2175,-1.2076,-1.2076,-1.2076,-1.2076,-1.2076,-1.2076,-1.2076,-1.2076,-1.2076,-1.2076,-1.2076,-1.1977,-1.2026,-1.2076,-1.1877,-1.1877,-1.1927,-1.1927,-1.1877,-1.1828,-1.1927,-1.1877,-1.1769,-1.1769,-1.1877,-1.1927,-1.1927,-1.1963,-1.1889,-1.1437,-1.0954,-1.032,-0.9458,-0.8949,-0.849,-0.8024,-0.7882,-0.7882,-0.7882,-0.7882,-0.7862,-0.7836,-0.7822,-0.7749,-0.7577,-0.7511,-0.7517,-0.7378,-0.7384,-0.7384,-0.7384,-0.7384,-0.7384,-0.7384,-0.7384,-0.7338,-0.7338,-0.6994,-0.6841,-0.7058,-0.7065,-0.716,-0.7285,-0.7338,-0.7338,-0.7298,-0.7251,-0.7158,-0.7065,-0.6857,-0.6759,-0.6753,-0.6186,-0.6142,-0.3387,-0.3696,-0.3985,-0.3935,-0.3924,-0.3931,-0.3887,0.0,0.0,0.0,0.0,-0.3639,-0.4256,-0.4449,0.0,0.0,-0.6939,0.0,0.0,0.0,-1.3045,-1.3055,-1.34,-1.3511,0.0,-1.2706,-1.2608,-1.3074,-1.2987,-1.3035,-1.3314,-1.342,-1.318,-1.2647,-1.2598,-1.2412,-1.2076,-1.2076,-1.2076,-1.2076,-1.2076,-1.2076,-1.2026,-1.2026,-1.1977,-1.1927,-1.1927,-1.1927,-1.1927,-1.1828,-1.1877,-1.1877,-1.1778,-1.1728,-1.1828,-1.1828,-1.1778,-1.1719,-1.1778,-1.1778,-1.1728,-1.1728,-1.1728,-1.1828,-1.1828,-1.1877,-1.1819,-1.1301,-1.0897,-1.0343,-0.9459,-0.8941,-0.8622,-0.8273,-0.8224,-0.8224,-0.8224,-0.8174,-0.8084,-0.7954,-0.7879,-0.7834,-0.765,-0.7631,-0.7583,-0.7535,-0.7487,-0.7487,-0.7487,-0.7487,-0.7487,-0.7487,-0.7446,-0.7398,-0.7398,-0.7123,-0.7017,-0.7167,-0.7273,-0.7289,-0.7338,-0.744,-0.7487,-0.7398,-0.7302,-0.7254,-0.72,-0.7054,-0.6987,-0.6981,-0.6556,-0.6537,-0.3353,-0.3752,-0.4117,-0.427,-0.41,-0.3997,-0.4205,0.0,0.0,0.0,0.0,0.0,0.0,-0.4825,0.0,0.0,0.0,0.0,-1.136,-1.2591,-1.3212,-1.3186,-1.3186,0.0,-1.2657,-1.2255,-1.2076,-1.2126,-1.2323,-1.2559,-1.2725,-1.2822,-1.2774,-1.2472,-1.2374,-1.2187,-1.2026,-1.2076,-1.2076,-1.2076,-1.2076,-1.2026,-1.1877,-1.1941,-1.1867,-1.1766,-1.1829,-1.1855,-1.1846,-1.1784,-1.1766,-1.1758,-1.1645,-1.1669,-1.1678,-1.1678,-1.1678,-1.1628,-1.1628,-1.1628,-1.1628,-1.1628,-1.1669,-1.1678,-1.1678,-1.1678,-1.161,-1.1082,-1.0669,-1.0167,-0.9361,-0.8956,-0.8699,-0.858,-0.8573,-0.8573,-0.8573,-0.8474,-0.8298,-0.8012,-0.7961,-0.7885,-0.7658,-0.7614,-0.762,-0.7571,-0.7571,-0.7571,-0.7571,-0.7571,-0.7571,-0.7571,-0.7474,-0.7383,-0.7383,-0.7328,-0.7328,-0.7383,-0.7479,-0.7473,-0.7322,-0.7474,-0.7523,-0.7383,-0.7328,-0.7322,-0.7322,-0.7285,-0.7261,-0.7261,-0.7218,-0.72,-0.3805,-0.424,-0.4409,-0.393,-0.3949,-0.4081,-0.4125,0.0,0.0,0.0,0.0,0.0,0.0,-0.5888,-0.6473,0.0,0.0,-1.063,0.0,0.0,-1.245,-1.2154,0.0,-1.204,-1.1877,-1.1819,-1.1877,-1.2224,-1.2332,-1.2323,-1.2372,-1.2421,-1.2215,-1.1868,-1.1819,-1.1769,-1.1778,-1.1877,-1.1927,-1.1927,-1.1927,-1.1927,-1.1886,-1.2075,-1.2122,-1.214,-1.2458,-1.2653,-1.2572,-1.2149,-1.2018,-1.2087,-1.1549,-1.1418,-1.1519,-1.1519,-1.1477,-1.1377,-1.1377,-1.1377,-1.1377,-1.1377,-1.1427,-1.1519,-1.1519,-1.1628,-1.1569,-1.0854,-1.0379,-0.9917,-0.9211,-0.8745,-0.8474,-0.8421,-0.8421,-0.8421,-0.8421,-0.8421,-0.8408,-0.8317,-0.8305,-0.8292,-0.8103,-0.8097,-0.8044,-0.7881,-0.7834,-0.7834,-0.7834,-0.7834,-0.7834,-0.7834,-0.7834,-0.7834,-0.7834,-0.7781,-0.7781,-0.7781,-0.7662,-0.7644,-0.7769,-0.7834,-0.7834,-0.7834,-0.7781,-0.7781,-0.7775,-0.7599,-0.7534,-0.7528,-0.7303,-0.72,-0.3459,-0.3948,-0.4245,-0.4113,-0.4408,-0.4847,-0.5158,0.0,0.0,0.0,0.0,0.0,0.0,0.0,-0.7686,-0.9645,0.0,-1.1399,-1.2183,-1.2129,-1.1983,0.0,-1.1769,-1.1778,-1.1728,-1.1728,-1.1778,-1.1977,-1.1927,-1.1877,-1.1977,-1.1828,-1.1728,-1.1628,-1.1678,-1.1739,-1.1739,-1.2096,-1.2192,-1.2048,-1.2253,-1.2351,-1.2307,-1.2378,-1.2358,-1.2312,-1.2477,-1.2555,-1.2538,-1.2318,-1.2249,-1.2286,-1.1997,-1.1928,-1.1982,-1.1982,-1.1928,-1.185,-1.1653,-1.1713,-1.185,-1.1644,-1.1636,-1.1627,-1.1308,-1.1114,-1.0896,-1.0302,-1.0113,-0.9814,-0.9093,-0.8633,-0.8374,-0.8321,-0.8268,-0.8268,-0.8268,-0.8215,-0.8109,-0.8109,-0.8109,-0.8109,-0.8062,-0.8062,-0.8008,-0.7901,-0.7901,-0.7901,-0.7901,-0.7901,-0.7901,-0.7901,-0.7901,-0.7901,-0.7901,-0.7901,-0.7901,-0.7901,-0.7834,-0.7822,-0.7895,-0.7901,-0.7788,-0.7467,-0.7467,-0.73,-0.6972,-0.6913,-0.7018,-0.7338,-0.6857,-0.7013,-0.3152,-0.3633,-0.4089,-0.4502,0.0,-0.5358,-0.6011,0.0,0.0,0.0,0.0,0.0,0.0,-0.743,0.0,-1.1113,-1.1599,-1.1764,-1.2114,-1.1946,-1.1725,-1.1637,-1.1669,-1.1628,-1.1628,-1.1628,-1.1628,-1.1628,-1.1519,-1.1528,-1.1628,-1.1418,-1.1361,-1.1557,-1.1739,-1.1831,-1.1916,-1.2448,-1.2558,-1.2299,-1.2634,-1.2721,-1.2619,-1.2651,-1.2638,-1.2535,-1.2612,-1.2655,-1.2646,-1.256,-1.2526,-1.2518,-1.2423,-1.2389,-1.2389,-1.2389,-1.2389,-1.2355,-1.2064,-1.2041,-1.2117,-1.1785,-1.1585,-1.1415,-1.0973,-1.0624,-1.0318,-1.0024,-0.9915,-0.9758,-0.9058,-0.8572,-0.8268,-0.8168,-0.8115,-0.8115,-0.8115,-0.8008,-0.7901,-0.7901,-0.7901,-0.7901,-0.7901,-0.7901,-0.7901,-0.7901,-0.7901,-0.7901,-0.7901,-0.7901,-0.7901,-0.7901,-0.7901,-0.7901,-0.7901,-0.7901,-0.7901,-0.7901,-0.7901,-0.7901,-0.7901,-0.7901,-0.7681,-0.73,-0.7139,-0.6864,-0.6426,-0.6263,-0.6426,-0.6864,-0.6426,-0.6642,-0.3365,-0.3776,-0.418,-0.4958,-0.4994,0.0,-0.5829,-0.578,0.0,-0.6233,0.0,0.0,0.0,-0.8397,-0.9738,-1.0849,-1.1366,-1.1701,-1.2,0.0,-1.1878,-1.1563,-1.1519,-1.1477,-1.1326,-1.1326,-1.1326,-1.1326,-1.1326,-1.1326,-1.1326,-1.1318,-1.1439,-1.179,-1.1771,-1.2004,-1.2346,-1.2797,-1.2854,-1.2567,-1.2602,-1.261,-1.2628,-1.2889,-1.2995,-1.2954,-1.3288,-1.3425,-1.3399,-1.3074,-1.2937,-1.2903,-1.2535,-1.2389,-1.2389,-1.2389,-1.2389,-1.2389,-1.2363,-1.1967,-1.1471,-1.1447,-1.0982,-1.0472,-1.0472,-1.04,-1.0386,-1.035,-1.0008,-0.9539,-0.9092,-0.8457,-0.7955,-0.7901,-0.7901,-0.7901,-0.7901,-0.7901,-0.7901,-0.7901,-0.7901,-0.7901,-0.7901,-0.7901,-0.7901,-0.7901,-0.7901,-0.7901,-0.7901,-0.7901,-0.7901,-0.7901,-0.7901,-0.7901,-0.7901,-0.7901,-0.7901,-0.7901,-0.7901,-0.7901,-0.7901,-0.7901,-0.7901,-0.7848,-0.7359,-0.7085,-0.7025,-0.648,-0.6209,-0.6263,-0.6209,-0.6263,-0.2983,-0.3663,-0.4369,-0.4843,-0.5134,0.0,0.0,-0.6721,-0.7007,-0.7395,-0.7948,0.0,0.0,0.0,-1.0415,-1.0937,-1.1157,-1.142,-1.1807,-1.1688,-1.1532,-1.1394,-1.1377,-1.1377,-1.1326,-1.1326,-1.1326,-1.1326,-1.1326,-1.1326,-1.1326,-1.1326,-1.1447,-1.1771,-1.2064,-1.2372,-1.2757,-1.3125,-1.3237,-1.3141,-1.3141,-1.3141,-1.315,-1.3237,-1.3305,-1.3314,-1.3451,-1.3511,-1.3502,-1.3365,-1.3305,-1.3297,-1.3143,-1.284,-1.2478,-1.2478,-1.2174,-1.1786,-1.1585,-1.1529,-1.1421,-1.1225,-1.099,-1.0696,-1.0328,-1.0086,-0.9867,-0.9636,-0.9328,-0.9066,-0.9304,-0.8909,-0.8381,-0.8381,-0.8261,-0.8141,-0.8141,-0.8015,-0.7901,-0.7901,-0.7901,-0.7901,-0.7901,-0.7901,-0.7901,-0.7901,-0.8039,-0.8087,-0.7919,-0.8045,-0.8081,-0.7919,-0.7901,-0.7901,-0.7901,-0.7901,-0.7901,-0.7901,-0.7901,-0.7901,-0.7901,-0.7901,-0.7681,-0.7295,-0.6972,-0.6426,-0.5719,-0.5395,-0.5285,-0.5391,-0.5007,-0.5226,-0.2788,-0.3538,-0.4387,0.0,0.0,0.0,-0.6797,-0.7192,-0.7602,-0.83,-0.8837,0.0,0.0,0.0,0.0,0.0,-1.1014,-1.1292,-1.1592,-1.1439,-1.1326,-1.1326,-1.1326,-1.1326,-1.1326,-1.1326,-1.1326,-1.1326,-1.1326,-1.1326,-1.1326,-1.1387,-1.1627,-1.2004,-1.2381,-1.2757,-1.3143,-1.3391,-1.3511,-1.3511,-1.3511,-1.3511,-1.3511,-1.3511,-1.3511,-1.3511,-1.3511,-1.3511,-1.3511,-1.3511,-1.3381,-1.3199,-1.3199,-1.2757,-1.2197,-1.2197,-1.1888,-1.1487,-1.1214,-1.1164,-1.1176,-1.0916,-1.073,-1.0424,-1.005,-0.9736,-0.9513,-0.9272,-0.907,-0.9053,-0.9475,-0.9163,-0.8681,-0.8681,-0.8543,-0.8411,-0.8411,-0.8273,-0.8147,-0.8147,-0.8147,-0.8147,-0.8147,-0.8147,-0.8147,-0.8147,-0.8297,-0.8345,-0.8171,-0.8303,-0.8345,-0.8116,-0.8092,-0.8043,-0.7987,-0.7982,-0.7982,-0.7982,-0.7982,-0.8001,-0.7973,-0.8105,-0.7865,-0.73,-0.685,-0.6174,-0.5333,-0.483,-0.4639,-0.4643,-0.4254,-0.4507,-0.2895,-0.3436,0.0,0.0,0.0,0.0,-0.6963,-0.7006,-0.7263,-0.8782,0.0,-0.9398,-1.0275,-1.0009,0.0,-1.0169,-1.0898,-1.1389,-1.1327,-1.1326,-1.1326,-1.1326,-1.1326,-1.1326,-1.1326,-1.1326,-1.1326,-1.1326,-1.1326,-1.1326,-1.1276,-1.1636,-1.2012,-1.2381,-1.2774,-1.3151,-1.3502,-1.3511,-1.3511,-1.3511,-1.3511,-1.3511,-1.3511,-1.3511,-1.3511,-1.3511,-1.3511,-1.3511,-1.3511,-1.3502,-1.307,-1.2512,-1.2504,-1.2074,-1.1509,-1.1509,-1.1516,-1.1454,-1.1454,-1.1031,-1.0485,-1.0485,-1.0047,-0.9484,-0.9484,-0.9484,-0.9484,-0.9484,-0.9484,-0.9484,-0.9484,-0.9088,-0.8687,-0.8687,-0.8687,-0.8681,-0.8681,-0.8681,-0.8681,-0.8681,-0.8681,-0.8681,-0.8681,-0.8681,-0.8681,-0.8681,-0.8681,-0.8681,-0.8681,-0.8681,-0.8622,-0.851,-0.851,-0.8398,-0.8215,-0.8221,-0.8221,-0.8221,-0.8221,-0.8172,-0.809,-0.8485,-0.8563,-0.8221,-0.7126,-0.652,-0.6284,-0.5022,-0.4354,-0.4229,-0.417,-0.4101,-0.2792,-0.3689,0.0,0.0,0.0,0.0,0.0,-0.7514,0.0,0.0,-1.0544,-1.0711,-1.0887,-1.0817,0.0,-1.0272,-1.074,-1.12,-1.1293,-1.1326,-1.1326,-1.1326,-1.1326,-1.1326,-1.1326,-1.1326,-1.1326,-1.1326,-1.1326,-1.1387,-1.1661,-1.1728,-1.2086,-1.2783,-1.292,-1.3151,-1.3502,-1.3511,-1.3511,-1.3511,-1.3511,-1.3511,-1.3511,-1.3511,-1.3511,-1.3511,-1.3511,-1.3511,-1.3442,-1.3009,-1.2696,-1.2451,-1.195,-1.1399,-1.0787,-1.0787,-1.0478,-1.0098,-1.0098,-0.9983,-0.9798,-0.9798,-0.9676,-0.9484,-0.9484,-0.9484,-0.9484,-0.9484,-0.9484,-0.9484,-0.9484,-0.9364,-0.9244,-0.9244,-0.9094,-0.9011,-0.9011,-0.8807,-0.8681,-0.8681,-0.8681,-0.8681,-0.8681,-0.8681,-0.8681,-0.8681,-0.8831,-0.9011,-0.9011,-0.8789,-0.8681,-0.8622,-0.8569,-0.8451,-0.8392,-0.8274,-0.8221,-0.8221,-0.838,-0.8363,-0.8177,-0.8293,-0.8274,-0.8091,-0.7493,-0.7021,-0.6602,-0.5566,-0.4884,-0.455,-0.4186,-0.3985,-0.3336,0.0,0.0,0.0,0.0,0.0,-0.781,0.0,0.0,0.0,0.0,-1.1447,-1.1453,-1.1328,0.0,-1.0621,-1.0978,-1.1293,-1.1293,-1.1326,-1.1326,-1.1326,-1.1326,-1.1326,-1.1326,-1.1326,-1.1326,-1.1326,-1.1326,-1.1439,-1.1771,-1.1925,-1.2338,-1.2963,-1.3117,-1.3297,-1.3511,-1.3511,-1.3511,-1.3511,-1.3511,-1.3511,-1.3511,-1.3511,-1.3511,-1.3511,-1.3511,-1.3511,-1.345,-1.3025,-1.265,-1.2343,-1.1655,-1.1038,-1.0364,-1.0174,-0.9862,-0.9484,-0.9484,-0.9484,-0.9484,-0.9484,-0.9484,-0.9484,-0.9484,-0.9484,-0.9484,-0.9484,-0.9484,-0.9484,-0.9484,-0.9484,-0.9484,-0.9484,-0.9352,-0.9232,-0.9232,-0.9112,-0.8998,-0.8998,-0.8998,-0.8992,-0.8932,-0.8932,-0.8932,-0.881,-0.9001,-0.9164,-0.9101,-0.8965,-0.8871,-0.8755,-0.8694,-0.8571,-0.8516,-0.8393,-0.8332,-0.8332,-0.8471,-0.8482,-0.8337,-0.8449,-0.8388,-0.8198,-0.7768,-0.7397,-0.7026,-0.6145,-0.5424,-0.4875,-0.4501,-0.4162,-0.4097,0.0,0.0,0.0,0.0,0.0,-0.8346,-0.9494,-1.0436,-1.0986,0.0,-1.178,-1.1962,-1.1664,-1.132,-1.114,-1.136,-1.1513,-1.1319,-1.1326,-1.1326,-1.1326,-1.1326,-1.1326,-1.1326,-1.1326,-1.1326,-1.1326,-1.1326,-1.1439,-1.1771,-1.2192,-1.2569,-1.2963,-1.3322,-1.3511,-1.3511,-1.3511,-1.3511,-1.3511,-1.3511,-1.3511,-1.3511,-1.3511,-1.3511,-1.3511,-1.3511,-1.3511,-1.3511,-1.3224,-1.2805,-1.2174,-1.1428,-1.0737,-1.018,-0.967,-0.9484,-0.9484,-0.9484,-0.9484,-0.9484,-0.9484,-0.9484,-0.9484,-0.9484,-0.9484,-0.9484,-0.9484,-0.9484,-0.9484,-0.9484,-0.9484,-0.9484,-0.9484,-0.9478,-0.9484,-0.9484,-0.9478,-0.9484,-0.9484,-0.9478,-0.9414,-0.9274,-0.9274,-0.921,-0.9017,-0.9145,-0.921,-0.9017,-0.9145,-0.9151,-0.8899,-0.8835,-0.877,-0.8582,-0.8511,-0.8517,-0.8517,-0.8517,-0.8517,-0.8517,-0.8765,-0.8829,-0.8517,-0.7977,-0.7712,-0.7587,-0.6666,-0.5933,-0.5343,-0.5145,-0.4634,0.0,-0.4345,0.0,0.0,0.0,0.0,-0.8534,-0.9545,-1.0564,-1.1223,-1.2062,-1.2609,-1.2237,-1.2056,-1.1814,-1.1192,-1.1243,-1.1362,-1.1285,-1.1326,-1.1326,-1.1326,-1.1326,-1.1326,-1.1326,-1.1326,-1.1326,-1.1326,-1.1326,-1.1439,-1.1771,-1.2192,-1.2569,-1.2963,-1.3322,-1.3511,-1.3511,-1.3511,-1.3511,-1.3511,-1.3511,-1.3511,-1.3511,-1.3511,-1.3511,-1.3511,-1.3511,-1.3511,-1.3442,-1.2328,-1.1834,-1.1524,-1.0351,-0.9798,-0.9676,-0.9548,-0.9484,-0.9484,-0.9484,-0.9484,-0.9484,-0.9484,-0.9484,-0.9484,-0.9484,-0.9484,-0.9484,-0.9344,-0.9338,-0.9274,-0.9145,-0.9087,-0.9087,-0.9087,-0.9215,-0.9338,-0.9338,-0.9215,-0.9087,-0.9087,-0.9215,-0.928,-0.9081,-0.921,-0.9274,-0.9157,-0.9087,-0.9081,-0.9157,-0.9227,-0.9227,-0.9098,-0.9022,-0.8958,-0.8894,-0.8641,-0.8517,-0.8517,-0.8517,-0.8517,-0.8517,-0.8576,-0.8576,-0.8517,-0.8236,-0.8102,-0.8037,-0.7326,-0.6846,-0.6538,-0.6082,-0.548,0.0,0.0,0.0,0.0,0.0,0.0,-0.8527,-0.9388,-1.0367,-1.0934,-1.1928,-1.2552,-1.2159,-1.2265,-1.2201,-1.1565,-1.1498,-1.1482,-1.1293,-1.1326,-1.1326,-1.1326,-1.1326,-1.1326,-1.1326,-1.1326,-1.1326,-1.1326,-1.1326,-1.1516,-1.2072,-1.2286,-1.2646,-1.3211,-1.3408,-1.3511,-1.3511,-1.3511,-1.3511,-1.3511,-1.3511,-1.3511,-1.3511,-1.3511,-1.3511,-1.3511,-1.3511,-1.3511,-1.345,-1.2589,-1.2097,-1.1779,-1.0667,-1.011,-0.9862,-0.9606,-0.9484,-0.9484,-0.9484,-0.9484,-0.9484,-0.9484,-0.9484,-0.9484,-0.9484,-0.9484,-0.9478,-0.9338,-0.9274,-0.9274,-0.9081,-0.9017,-0.9017,-0.9017,-0.9081,-0.9145,-0.9145,-0.9081,-0.9017,-0.9017,-0.9081,-0.9081,-0.8958,-0.8894,-0.8899,-0.884,-0.8899,-0.8899,-0.884,-0.8969,-0.8969,-0.8905,-0.877,-0.877,-0.877,-0.8576,-0.8517,-0.8517,-0.8517,-0.8517,-0.8517,-0.8517,-0.8517,-0.8517,-0.8376,-0.8376,-0.8371,-0.7917,-0.7521,-0.719,-0.6802,-0.6276,0.0,0.0,0.0,0.0,0.0,0.0,-0.8302,-0.9072,-0.9915,-1.0144,-1.1262,-1.2091,-1.1969,-1.2299,-1.2411,-1.1899,-1.1788,-1.1677,-1.1413,-1.1319,-1.1326,-1.1326,-1.1326,-1.1326,-1.1326,-1.1326,-1.1326,-1.1326,-1.1326,-1.1576,-1.2261,-1.2355,-1.2706,-1.3399,-1.3476,-1.3511,-1.3511,-1.3511,-1.3511,-1.3511,-1.345,-1.339,-1.3329,-1.3329,-1.339,-1.3511,-1.3511,-1.3511,-1.345,-1.3033,-1.2613,-1.2182,-1.1178,-1.0555,-1.018,-0.9606,-0.942,-0.942,-0.942,-0.942,-0.942,-0.942,-0.942,-0.942,-0.942,-0.942,-0.9414,-0.928,-0.921,-0.9145,-0.8958,-0.8888,-0.8888,-0.8888,-0.8888,-0.8952,-0.8952,-0.8958,-0.8888,-0.8888,-0.8888,-0.8894,-0.8835,-0.8646,-0.8517,-0.8517,-0.8641,-0.8705,-0.8511,-0.8641,-0.8705,-0.8511,-0.8517,-0.8517,-0.8517,-0.8517,-0.8517,-0.8517,-0.8517,-0.8517,-0.8517,-0.8517,-0.8517,-0.8517,-0.8517,-0.8517,-0.8517,-0.8306,-0.8042,-0.7587,-0.7461,-0.7003,0.0,0.0,0.0,0.0,0.0,0.0,0.0,0.0,-0.9011,0.0,-1.0172,-1.1543,-1.1622,-1.1977,-1.2163,-1.1856,-1.1788,-1.1771,-1.172,-1.1482,-1.1326,-1.1326,-1.1326,-1.1326,-1.1326,-1.1326,-1.1326,-1.1326,-1.1326,-1.1456,-1.1839,-1.2218,-1.2595,-1.304,-1.3348,-1.3511,-1.3511,-1.3511,-1.3511,-1.3511,-1.3224,-1.292,-1.2605,-1.2605,-1.2964,-1.3511,-1.3511,-1.3511,-1.345,-1.2536,-1.2112,-1.1919,-1.0491,-0.9926,-0.9798,-0.928,-0.9087,-0.9087,-0.9087,-0.9087,-0.9087,-0.9087,-0.9087,-0.9087,-0.9087,-0.9087,-0.9022,-0.8899,-0.8899,-0.8835,-0.8641,-0.8576,-0.8576,-0.8576,-0.8576,-0.8641,-0.877,-0.8705,-0.8576,-0.8576,-0.8576,-0.8641,-0.877,-0.8646,-0.8517,-0.8517,-0.8517,-0.8517,-0.8517,-0.8517,-0.8517,-0.8517,-0.8517,-0.8517,-0.8517,-0.8517,-0.8517,-0.8517,-0.8517,-0.8517,-0.8517,-0.8517,-0.8517,-0.8517,-0.8517,-0.8517,-0.8517,-0.8447,-0.8312,-0.8107,-0.8107,-0.7717,-0.3155,0.0,0.0,0.0,0.0,0.0,-0.7442,0.0,-0.8334,-0.8413,-0.9357,-1.0337,-1.0839,-1.1336,-1.1718,-1.1688,-1.1735,-1.1711,-1.155,-1.1379,-1.1326,-1.1326,-1.1326,-1.1326,-1.1326,-1.1326,-1.1326,-1.1326,-1.1326,-1.1524,-1.2115,-1.2303,-1.2663,-1.3254,-1.3425,-1.3511,-1.3511,-1.3511,-1.339,-1.3216,-1.285,-1.2666,-1.2482,-1.2482,-1.2666,-1.2964,-1.2964,-1.2964,-1.2903,-1.2359,-1.1856,-1.1219,-1.0485,-0.9856,-0.9344,-0.9081,-0.9017,-0.9017,-0.9017,-0.9017,-0.9017,-0.9017,-0.9017,-0.9017,-0.9017,-0.9017,-0.8952,-0.8835,-0.8864,-0.8904,-0.8771,-0.8807,-0.8877,-0.8797,-0.884,-0.8877,-0.8925,-0.8701,-0.8517,-0.8517,-0.8619,-0.8777,-0.8843,-0.8815,-0.8759,-0.8716,-0.8597,-0.8517,-0.8517,-0.8517,-0.8565,-0.8694,-0.8711,-0.8759,-0.8894,-0.8662,-0.8624,-0.8883,-0.8899,-0.8899,-0.8899,-0.8899,-0.8899,-0.8899,-0.8646,-0.8517,-0.8517,-0.8517,-0.8447,-0.8376,-0.8376,-0.8177,0.0,0.0,0.0,0.0,0.0,0.0,0.0,0.0,-0.7735,0.0,-0.8678,-0.9298,-1.0036,-1.0804,-1.1391,-1.1564,-1.1735,-1.1686,-1.1456,-1.1336,-1.1326,-1.1326,-1.1326,-1.1326,-1.1326,-1.1326,-1.1326,-1.1326,-1.1326,-1.1559,-1.2218,-1.2338,-1.2632,-1.3228,-1.3408,-1.3398,-1.339,-1.339,-1.3155,-1.2797,-1.2552,-1.2297,-1.205,-1.205,-1.1981,-1.1911,-1.2297,-1.2482,-1.2482,-1.2182,-1.1608,-1.0905,-1.0415,-0.9716,-0.9081,-0.8952,-0.8894,-0.8894,-0.8894,-0.8894,-0.8894,-0.8894,-0.8894,-0.8894,-0.8894,-0.8933,-0.8924,-0.8864,-0.8964,-0.9078,-0.9015,-0.9077,-0.9174,-0.906,-0.912,-0.9174,-0.906,-0.8851,-0.8689,-0.8689,-0.8829,-0.8937,-0.8899,-0.8942,-0.8969,-0.8953,-0.8802,-0.8689,-0.8689,-0.8727,-0.8824,-0.8996,-0.898,-0.9001,-0.9136,-0.8867,-0.8834,-0.9179,-0.9319,-0.9351,-0.9276,-0.9227,-0.9206,-0.9206,-0.8867,-0.8689,-0.8689,-0.8689,-0.8657,-0.8603,-0.8603,-0.85,0.0,0.0,0.0,0.0,0.0,0.0,0.0,0.0,-0.728,-0.7422,-0.808,-0.8791,-0.9351,-1.0515,-1.144,-1.1584,-1.1735,-1.178,-1.1763,-1.1499,-1.1326,-1.1326,-1.1326,-1.1326,-1.1326,-1.1326,-1.1326,-1.1326,-1.1326,-1.1447,-1.1797,-1.2201,-1.2465,-1.2572,-1.3057,-1.3241,-1.3042,-1.3042,-1.2736,-1.2127,-1.2127,-1.1685,-1.0863,-1.0863,-1.0604,-1.0205,-1.1787,-1.2482,-1.2421,-1.1677,-1.1303,-1.1178,-0.9843,-0.9338,-0.921,-0.8705,-0.8517,-0.8517,-0.8517,-0.8517,-0.8517,-0.8517,-0.8517,-0.8517,-0.8517,-0.8733,-0.8912,-0.8912,-0.9007,-0.9184,-0.919,-0.9195,-0.92,-0.9195,-0.92,-0.92,-0.9195,-0.9179,-0.9168,-0.9168,-0.9179,-0.9141,-0.8996,-0.8974,-0.9023,-0.9163,-0.9174,-0.9168,-0.9168,-0.9314,-0.9421,-0.9432,-0.9287,-0.913,-0.9001,-0.9098,-0.9179,-0.92,-0.9631,-0.975,-0.9464,-0.9292,-0.9206,-0.9206,-0.9179,-0.9168,-0.9168,-0.9168,-0.9055,-0.8845,-0.8845,-0.8727,0.0,0.0,0.0,0.0,-0.5034,-0.5534,-0.613,-0.6613,-0.7049,-0.7464,-0.8184,-0.8871,-0.9325,-1.0075,-1.0785,-1.1216,-1.137,-1.1473,-1.1473,-1.1362,-1.1326,-1.1326,-1.1326,-1.1326,-1.1326,-1.1326,-1.1326,-1.1326,-1.1326,-1.1388,-1.1506,-1.1856,-1.2109,-1.2254,-1.2619,-1.2736,-1.2674,-1.2174,-1.1802,-1.1553,-1.1038,-1.0591,-1.0281,-1.0281,-1.0148,-1.0015,-1.0647,-1.0905,-1.0843,-1.0591,-1.0281,-0.997,-0.946,-0.9087,-0.877,-0.8576,-0.8517,-0.8517,-0.8517,-0.8517,-0.8517,-0.8517,-0.8619,-0.8737,-0.8737,-0.8899,-0.9082,-0.9082,-0.926,-0.9443,-0.9443,-0.9556,-0.9663,-0.9663,-0.9663,-0.9663,-0.9663,-0.9421,-0.9206,-0.9206,-0.9335,-0.941,-0.9308,-0.9453,-0.9599,-0.9658,-0.9663,-0.9556,-0.9244,-0.926,-0.9362,-0.9523,-0.9437,-0.9432,-0.9572,-0.9631,-0.9663,-0.9663,-0.9825,-0.9873,-0.976,-0.9696,-0.9663,-0.9663,-0.9663,-0.9513,-0.9206,-0.9206,-0.9087,-0.8929,-0.8929,-0.8737,-0.1971,0.0,0.0,0.0,0.0,-0.4953,-0.5761,0.0,-0.6574,-0.711,-0.7892,-0.8644,-0.9147,-0.97,-1.0295,-1.0998,-1.1217,-1.1326,-1.1326,-1.1326,-1.1326,-1.1326,-1.1326,-1.1326,-1.1326,-1.1326,-1.1326,-1.1326,-1.1226,-1.1183,-1.1218,-1.157,-1.1881,-1.2134,-1.231,-1.2305,-1.2297,-1.1615,-1.124,-1.1115,-1.0338,-0.9894,-0.9767,-0.9767,-0.9646,-0.9518,-0.9518,-0.9703,-1.0021,-0.9831,-0.9582,-0.9274,-0.9081,-0.8829,-0.8517,-0.8517,-0.8517,-0.8517,-0.8517,-0.8565,-0.863,-0.863,-0.8791,-0.898,-0.898,-0.9141,-0.933,-0.933,-0.9507,-0.969,-0.969,-0.9809,-0.9922,-0.9922,-0.9922,-0.9922,-0.9922,-0.9669,-0.9443,-0.9443,-0.9583,-0.968,-0.9626,-0.9787,-0.9922,-0.9922,-0.9922,-0.9803,-0.9486,-0.9443,-0.9507,-0.9674,-0.9647,-0.9701,-0.99,-0.9922,-0.9922,-0.9922,-0.9922,-0.9922,-0.9922,-0.9922,-0.9884,-0.9809,-0.9803,-0.961,-0.9206,-0.9287,-0.9168,-0.8929,-0.8929,-0.8737,0.0,0.0,0.0,0.0,0.0,0.0,-0.5367,0.0,-0.5797,-0.627,-0.7133,-0.8031,-0.8827,-0.9411,-1.0059,-1.0889,-1.1167,-1.1267,-1.1267,-1.1276,-1.1267,-1.1267,-1.1267,-1.1267,-1.1267,-1.1276,-1.1267,-1.1267,-1.1023,-1.0871,-1.0871,-1.1277,-1.1697,-1.2266,-1.212,-1.1996,-1.174,-1.1428,-1.1052,-1.0744,-1.0218,-0.9709,-0.9274,-0.9274,-0.9022,-0.8517,-0.8517,-0.9081,-0.9894,-0.946,-0.9274,-0.921,-0.8705,-0.8517,-0.8517,-0.8517,-0.8517,-0.8517,-0.8522,-0.8673,-0.8929,-0.894,-0.9028,-0.9217,-0.9217,-0.9389,-0.9588,-0.9588,-0.975,-0.9922,-0.9922,-0.9922,-0.9922,-0.9922,-0.9922,-0.9922,-0.9922,-0.9922,-0.9922,-0.9922,-0.9922,-0.9922,-0.9922,-0.9922,-0.9922,-0.9922,-0.9922,-0.9922,-0.9922,-0.9922,-0.9922,-0.9922,-0.9922,-0.9922,-0.9922,-0.9922,-0.9916,-0.9906,-0.9906,-0.9906,-0.99,-0.99,-0.9793,-0.9572,-0.9567,-0.9443,-0.9195,-0.9448,-0.9324,-0.8929,-0.8923,-0.8732,-0.1433,0.0,0.0,0.0,0.0,0.0,0.0,0.0,-0.5288,-0.6101,-0.6743,-0.7397,-0.8133,-0.8645,-0.9122,-0.9616,-1.0237,-1.0659,-1.0659,-1.0285,-1.0079,-1.0079,-1.0079,-1.0079,-1.0079,-1.0328,-1.0482,-1.0379,-1.0608,-1.0616,-1.0257,-1.0621,-1.101,-1.1436,-1.125,-1.1115,-1.1052,-1.0288,-0.9779,-0.9716,-0.9145,-0.8829,-0.8705,-0.8705,-0.8641,-0.8517,-0.8517,-0.8641,-0.8894,-0.8765,-0.8705,-0.8705,-0.8582,-0.8517,-0.8517,-0.8517,-0.8517,-0.8538,-0.8711,-0.8807,-0.8894,-0.9055,-0.9276,-0.9475,-0.9475,-0.9642,-0.9825,-0.9825,-0.9873,-0.9922,-0.9922,-0.9922,-0.9922,-0.9922,-0.9922,-0.9922,-0.9922,-0.9922,-0.9922,-0.9922,-0.9922,-0.9922,-0.9922,-0.9922,-0.9922,-0.9922,-0.9922,-0.9922,-0.9922,-0.9922,-0.9922,-0.9922,-0.9922,-0.9922,-0.9922,-0.9922,-0.9825,-0.9604,-0.9416,-0.9218,-0.9272,-0.9124,-0.9098,-0.9177,-0.9237,-0.919,-0.8958,-0.9195,-0.9152,-0.8929,-0.8689,-0.8576,0.0,0.0,0.0,0.0,0.0,0.0,-0.4443,-0.4593,-0.4751,0.0,-0.6073,-0.6615,-0.7321,-0.7811,-0.8268,-0.8786,-0.9254,-0.9672,-1.0012,-0.9769,-0.9562,-0.951,-0.951,-0.951,-0.9451,-0.9651,-0.9806,-0.9909,-1.0087,-1.0104,-1.0038,-1.0428,-1.0675,-1.0763,-1.0767,-1.0674,-1.0478,-0.9716,-0.9274,-0.9274,-0.8765,-0.8517,-0.8517,-0.8517,-0.8517,-0.8517,-0.8517,-0.8517,-0.8517,-0.8517,-0.8517,-0.8517,-0.8517,-0.8517,-0.8528,-0.8624,-0.8662,-0.8694,-0.8926,-0.9077,-0.9184,-0.9319,-0.9523,-0.9723,-0.9723,-0.9814,-0.9922,-0.9922,-0.9922,-0.9922,-0.9922,-0.9922,-0.9922,-0.9922,-0.9922,-0.9922,-0.9922,-0.9922,-0.9922,-0.9922,-0.9922,-0.9922,-0.9922,-0.9922,-0.9922,-0.9922,-0.9922,-0.9922,-0.9922,-0.9922,-0.9922,-0.9922,-0.9922,-0.9691,-0.9196,-0.918,-0.9114,-0.8944,-0.8749,-0.8638,-0.8654,-0.8584,-0.8473,-0.8518,-0.8577,-0.8533,-0.8312,-0.8811,-0.8942,-0.8716,-0.8581,-0.8517,0.0,0.0,0.0,0.0,0.0,0.0,-0.4478,-0.4354,-0.4182,0.0,-0.5281,-0.5745,-0.6412,-0.6903,-0.741,-0.8027,-0.8146,-0.8457,-0.9357,-0.9436,-0.9354,-0.9204,-0.9204,-0.9145,-0.9026,-0.9072,-0.9235,-0.9658,-0.951,-0.9588,-1.0031,-1.0353,-1.0451,-1.0227,-1.0533,-1.0451,-0.9958,-0.946,-0.921,-0.921,-0.8705,-0.8517,-0.8517,-0.8517,-0.8517,-0.8517,-0.8517,-0.8517,-0.8517,-0.8517,-0.8517,-0.8517,-0.8517,-0.8517,-0.8544,-0.8775,-0.8929,-0.8899,-0.9157,-0.9394,-0.9583,-0.961,-0.9755,-0.9922,-0.9922,-0.9922,-0.9922,-0.9922,-0.9922,-0.9922,-0.9922,-0.9922,-0.9922,-0.9922,-0.9922,-0.9922,-0.9922,-0.9922,-0.9922,-0.9922,-0.9922,-0.9922,-0.9922,-0.9922,-0.9922,-0.9922,-0.9922,-0.9846,-0.9841,-0.9846,-0.9922,-0.9922,-0.9841,-0.9337,-0.8127,-0.8117,-0.8131,-0.8122,-0.8122,-0.8108,-0.8089,-0.8089,-0.7929,-0.7749,-0.7744,-0.7717,-0.7521,-0.8384,-0.865,-0.8382,-0.8382,-0.8382,0.0,0.0,0.0,0.0,0.0,0.0,-0.3208,-0.3295,-0.3534,0.0,-0.4454,-0.4771,-0.5389,-0.5807,-0.6151,-0.6476,-0.669,-0.721,-0.845,-0.8378,-0.8156,-0.8043,-0.8037,-0.7984,-0.783,-0.815,-0.8468,-0.883,-0.9302,-0.9591,-0.9709,-1.0016,-1.0122,-0.9914,-0.9866,-0.9693,-0.946,-0.8894,-0.8641,-0.8641,-0.8576,-0.8517,-0.8517,-0.8517,-0.8517,-0.8517,-0.8517,-0.8517,-0.8517,-0.8517,-0.8517,-0.8517,-0.8517,-0.8517,-0.8544,-0.8775,-0.8929,-0.8926,-0.9357,-0.954,-0.961,-0.9793,-0.9884,-0.9922,-0.9922,-0.9922,-0.9922,-0.9922,-0.9922,-0.9922,-0.9922,-0.9922,-0.9922,-0.9922,-0.9922,-0.9922,-0.9922,-0.9922,-0.9922,-0.9922,-0.9922,-0.9922,-0.9922,-0.9922,-0.9922,-0.9922,-0.9922,-0.9765,-0.9311,-0.9614,-0.9922,-0.9922,-0.9311,-0.8475,-0.7252,-0.7523,-0.7762,-0.7844,-0.7628,-0.7419,-0.7394,-0.7256,-0.7171,-0.7329,-0.7649,-0.7756,-0.7712,-0.7952,-0.7887,-0.7722,-0.7847,-0.7847,0.0,0.0,0.0,-0.2752,0.0,0.0,0.0,-0.3154,-0.3236,-0.3796,-0.3925,-0.4094,-0.4476,-0.4784,-0.5106,-0.5397,-0.5787,-0.6327,-0.7062,-0.7248,-0.7296,-0.7195,-0.7138,-0.7138,-0.7111,-0.728,-0.7588,-0.8137,-0.8672,-0.9099,-0.9309,-0.939,-0.9471,-0.9427,-0.93,-0.9146,-0.8894,-0.8641,-0.8517,-0.8517,-0.8517,-0.8517,-0.8517,-0.8517,-0.8517,-0.8517,-0.8517,-0.8517,-0.8517,-0.8517,-0.8587,-0.8689,-0.8689,-0.8689,-0.8732,-0.9087,-0.9222,-0.927,-0.9626,-0.975,-0.9766,-0.9884,-0.9922,-0.9922,-0.9922,-0.9922,-0.9922,-0.9922,-0.9922,-0.9922,-0.9922,-0.9922,-0.9922,-0.9922,-0.9922,-0.9922,-0.9922,-0.9922,-0.9846,-0.962,-0.962,-0.9695,-0.9846,-0.969,-0.9614,-0.9846,-0.9922,-0.969,-0.9008,-0.8673,-0.862,-0.9059,-0.8738,-0.7983,-0.6907,-0.6937,-0.7059,-0.7091,-0.6953,-0.6843,-0.6815,-0.6679,-0.6679,-0.6811,-0.7003,-0.7129,-0.7129,-0.7129,-0.7195,-0.7326,-0.7521,-0.7587,0.0,0.0,0.0,0.0,0.0,-0.3221,0.0,0.0,0.0,0.0,0.0,0.0,0.0,0.0,0.0,-0.4526,-0.5081,-0.5478,-0.5519,-0.6074,-0.649,-0.6496,-0.6551,-0.6608,-0.6654,-0.6678,-0.6968,-0.7576,-0.8026,-0.8443,-0.8912,-0.8823,-0.8858,-0.9091,-0.889,-0.872,-0.8511,-0.8517,-0.8517,-0.8517,-0.8517,-0.8517,-0.8517,-0.8517,-0.8517,-0.8517,-0.8517,-0.8517,-0.8517,-0.8565,-0.8694,-0.8929,-0.8929,-0.8956,-0.8985,-0.9421,-0.9577,-0.9615,-0.9841,-0.9922,-0.9922,-0.9922,-0.9922,-0.9922,-0.9922,-0.9922,-0.9922,-0.9922,-0.9922,-0.9846,-0.9771,-0.9771,-0.9771,-0.969,-0.969,-0.9765,-0.9771,-0.9846,-0.9711,-0.9397,-0.9254,-0.9311,-0.963,-0.9311,-0.916,-0.9614,-0.9614,-0.9311,-0.8546,-0.7677,-0.7363,-0.7988,-0.8079,-0.77,-0.6896,-0.6635,-0.6513,-0.6489,-0.6477,-0.6473,-0.6473,-0.6436,-0.642,-0.642,-0.642,-0.6453,-0.6522,-0.6522,-0.6706,-0.7078,-0.7277,-0.7357,0.0,0.0,0.0,0.0,-0.3159,0.0,0.0,0.0,-0.2907,-0.2961,0.0,0.0,0.0,0.0,0.0,0.0,-0.4338,-0.4573,-0.4165,-0.4733,-0.546,-0.6162,-0.6451,-0.6541,-0.6428,-0.6613,-0.6907,-0.741,-0.7672,-0.8026,-0.8627,-0.8521,-0.8661,-0.9078,-0.8711,-0.8482,-0.8511,-0.8517,-0.8517,-0.8517,-0.8517,-0.8517,-0.8517,-0.8517,-0.8517,-0.8517,-0.8517,-0.8517,-0.8533,-0.8737,-0.884,-0.8929,-0.8929,-0.899,-0.92,-0.9475,-0.9577,-0.9615,-0.9841,-0.9922,-0.9922,-0.9922,-0.9922,-0.9922,-0.9922,-0.9922,-0.9922,-0.9922,-0.9922,-0.9846,-0.9473,-0.9397,-0.9246,-0.8932,-0.9003,-0.9155,-0.9322,-0.9473,-0.9627,-0.9503,-0.9077,-0.876,-0.8823,-0.878,-0.8775,-0.8856,-0.8627,-0.8246,-0.771,-0.7524,-0.7354,-0.7253,-0.7468,-0.7439,-0.7032,-0.6978,-0.6846,-0.6749,-0.6692,-0.6664,-0.6664,-0.6505,-0.642,-0.642,-0.642,-0.6574,-0.6962,-0.6962,-0.6909,-0.6806,-0.6879,-0.6933,0.0,0.0,0.0,0.0,0.0,0.0,-0.2937,0.0,-0.2816,0.0,0.0,0.0,0.0,0.0,0.0,0.0,-0.3566,0.0,-0.3539,-0.4005,-0.4496,-0.4839,-0.5353,-0.5837,-0.6251,-0.6442,-0.667,-0.6968,-0.6815,-0.705,-0.7873,-0.7596,-0.7811,-0.8663,-0.8269,-0.821,-0.8511,-0.8517,-0.8517,-0.8517,-0.8517,-0.8517,-0.8517,-0.8517,-0.8517,-0.8517,-0.8517,-0.8592,-0.8727,-0.8824,-0.9028,-0.9276,-0.9276,-0.934,-0.9453,-0.969,-0.9776,-0.9787,-0.9884,-0.9922,-0.9922,-0.9922,-0.9922,-0.9922,-0.9922,-0.9922,-0.9922,-0.9922,-0.9695,-0.9549,-0.9322,-0.9094,-0.8937,-0.878,-0.8775,-0.8889,-0.9251,-0.9331,-0.9326,-0.9305,-0.9094,-0.8755,-0.8482,-0.8319,-0.819,-0.8051,-0.794,-0.7787,-0.7561,-0.7358,-0.7285,-0.7326,-0.7236,-0.72,-0.7257,-0.7261,-0.7179,-0.6989,-0.6895,-0.6846,-0.6846,-0.6769,-0.6696,-0.6631,-0.6631,-0.6737,-0.7023,-0.7017,-0.7098,-0.7183,-0.6976,-0.6978,-0.31,0.0,0.0,0.0,0.0,0.0,0.0,0.0,0.0,0.0,0.0,0.0,0.0,0.0,0.0,0.0,0.0,-0.3142,0.0,-0.3397,0.0,-0.3805,-0.4506,-0.5206,-0.5891,-0.5976,-0.6107,-0.6464,-0.6094,-0.6246,-0.7256,-0.6901,-0.7224,-0.8363,-0.8032,-0.8027,-0.8511,-0.8517,-0.8517,-0.8517,-0.8517,-0.8517,-0.8517,-0.8517,-0.8517,-0.8517,-0.8581,-0.8705,-0.8945,-0.9007,-0.9265,-0.9583,-0.9647,-0.9674,-0.969,-0.9712,-0.9771,-0.9846,-0.9771,-0.9846,-0.9922,-0.9922,-0.9922,-0.9922,-0.9922,-0.9846,-0.9771,-0.9771,-0.9468,-0.9094,-0.9018,-0.8784,-0.8489,-0.8471,-0.8481,-0.8613,-0.9058,-0.9061,-0.9027,-0.9052,-0.8973,-0.8769,-0.8369,-0.8113,-0.789,-0.7663,-0.7545,-0.7484,-0.7484,-0.733,-0.7285,-0.7464,-0.7253,-0.7204,-0.746,-0.7484,-0.7407,-0.7232,-0.7143,-0.7126,-0.7027,-0.7052,-0.696,-0.6875,-0.694,-0.7017,-0.7171,-0.7179,-0.7309,-0.7476,-0.7171,-0.7054,-0.3959,-0.4234,-0.4298,-0.3574,-0.3668,-0.3746,-0.3061,-0.3042,-0.3172,-0.3021,0.0,0.0,0.0,0.0,0.0,0.0,0.0,0.0,0.0,0.0,0.0,0.0,0.0,0.0,-0.5273,-0.5044,-0.5187,-0.5946,-0.5599,-0.5802,-0.6961,-0.6806,-0.7224,-0.8363,-0.8032,-0.8027,-0.8511,-0.8517,-0.8517,-0.8517,-0.8517,-0.8517,-0.8517,-0.8517,-0.8517,-0.8528,-0.8754,-0.8923,-0.8967,-0.9362,-0.9567,-0.9604,-0.9825,-0.9906,-0.9836,-0.9468,-0.9473,-0.9549,-0.9397,-0.9549,-0.9922,-0.9922,-0.9922,-0.9922,-0.9922,-0.962,-0.9322,-0.9322,-0.9013,-0.8627,-0.8255,-0.8102,-0.8073,-0.7865,-0.7986,-0.8192,-0.8543,-0.8742,-0.8873,-0.8901,-0.8717,-0.8638,-0.8582,-0.8162,-0.7882,-0.7979,-0.7703,-0.7484,-0.7484,-0.7476,-0.7476,-0.7484,-0.7472,-0.7472,-0.7484,-0.7484,-0.748,-0.7472,-0.7468,-0.7309,-0.704,-0.7058,-0.7114,-0.711,-0.7338,-0.746,-0.7468,-0.7472,-0.7476,-0.748,-0.7301,-0.7305,-0.4395,-0.4956,-0.5277,-0.4455,-0.4665,-0.478,-0.3667,-0.3534,-0.3455,-0.3014,-0.318,0.0,0.0,0.0,0.0,0.0,0.0,0.0,0.0,0.0,0.0,0.0,0.0,0.0,0.0,-0.4889,-0.5209,-0.5865,-0.569,-0.5886,-0.6546,-0.6661,-0.7041,-0.772,-0.7779,-0.8027,-0.8511,-0.8517,-0.8517,-0.8517,-0.8517,-0.8517,-0.8517,-0.8517,-0.8517,-0.8528,-0.8764,-0.8947,-0.9114,-0.9443,-0.9669,-0.9814,-0.989,-0.9922,-0.9846,-0.9473,-0.9322,-0.9322,-0.9013,-0.9008,-0.916,-0.9231,-0.9387,-0.9544,-0.9695,-0.9549,-0.9322,-0.9322,-0.8789,-0.825,-0.8102,-0.7966,-0.7919,-0.7823,-0.7926,-0.8139,-0.8488,-0.8501,-0.8493,-0.8724,-0.8518,-0.8296,-0.8093,-0.7951,-0.7801,-0.7679,-0.7561,-0.7484,-0.7484,-0.7484,-0.7484,-0.7484,-0.7484,-0.7484,-0.7484,-0.7484,-0.7484,-0.7484,-0.7484,-0.7431,-0.7309,-0.7342,-0.7362,-0.7362,-0.7439,-0.7484,-0.7484,-0.7484,-0.7484,-0.748,-0.7423,-0.7427,-0.4884,-0.5406,-0.5743,-0.4988,-0.5222,-0.5339,-0.4216,-0.4045,-0.4022,-0.3547,-0.3695,-0.3853,0.0,0.0,0.0,0.0,0.0,0.0,0.0,-0.2117,0.0,0.0,0.0,0.0,0.0,0.0,-0.4834,-0.5689,-0.5567,-0.5707,-0.6358,-0.6611,-0.6903,-0.7378,-0.7677,-0.7989,-0.8377,-0.8474,-0.8517,-0.8517,-0.8517,-0.8517,-0.8517,-0.8517,-0.856,-0.8651,-0.8883,-0.912,-0.9357,-0.9599,-0.9787,-0.9922,-0.9922,-0.9846,-0.962,-0.9241,-0.9018,-0.8865,-0.8632,-0.8627,-0.8699,-0.8851,-0.9008,-0.9089,-0.9241,-0.9089,-0.8865,-0.8865,-0.8408,-0.7889,-0.7957,-0.7911,-0.7793,-0.7918,-0.8032,-0.8162,-0.8516,-0.8389,-0.832,-0.8489,-0.8301,-0.8004,-0.7866,-0.7768,-0.7691,-0.7618,-0.7537,-0.7484,-0.7484,-0.7484,-0.7484,-0.7484,-0.7484,-0.7484,-0.7484,-0.7484,-0.7484,-0.7484,-0.7484,-0.7484,-0.7484,-0.7484,-0.7484,-0.7484,-0.7484,-0.7484,-0.7484,-0.7484,-0.7484,-0.7484,-0.7484,-0.7484]},{"header":{"parameterUnit":"m.s-1","parameterCategory":1,"la1":30.6,"la2":29.2853,"lo1":-89.7004,"lo2":-87.6739,"dy":0.0162,"dx":0.0183,"nx":112,"ny":82,"refTime":"2025-09-16T12:00:00:Z","depth":0,"parameterNumber":3,"parameterNumberName":"V-component_of_WINDS"},"data":[0.0,0.0,0.0,0.0,0.0,0.0,0.0,0.0,0.0,0.0,0.0,0.0,0.0,0.0,0.0,0.0,0.0,0.0,0.0,0.0,0.0,0.0,0.0,0.0,0.0,0.0,0.0,0.0,0.0,0.0,0.0,0.0,0.0,0.0,0.0,0.0,0.0,0.0,0.0,0.0,0.0,0.0,0.0,0.0,0.0,0.0,0.0,0.0,0.0,0.0,0.0,0.0,0.0,0.0,0.0,0.0,0.0,0.0,0.0,0.0,0.0,0.0,0.0,0.0,0.0,0.0,0.0,0.0,0.0,0.0,0.0,0.0,0.0,0.0,0.0,0.0,0.0,0.0,0.0,0.0,0.0,0.0,0.0,0.0,0.0,0.0,0.0,0.0,0.0,0.0,-0.4504,-0.4448,-0.1157,0.2958,0.7714,0.8436,0.7973,0.6403,0.0,0.0,0.0,0.0,0.0,0.0,0.0,0.0,0.0,0.0,0.0,0.0,0.0,0.0,0.0,0.0,0.0,0.0,0.0,0.0,0.0,0.0,0.0,0.0,0.0,0.0,0.0,0.0,0.0,0.0,0.0,0.0,0.0,0.0,0.0,0.0,0.0,0.0,0.0,0.0,0.0,0.0,0.0,0.0,0.0,0.0,0.0,0.0,0.0,0.0,0.0,0.0,0.0,0.0,0.0,0.0,0.0,0.0,0.0,0.0,0.0,0.0,0.0,0.0,0.0,0.0,0.0,0.0,0.0,0.0,0.0,0.0,0.0,0.0,0.0,0.0,0.0,0.0,0.0,0.0,0.0,0.0,0.0,0.0,0.0,0.0,0.0,0.0,0.0,0.0,0.0,0.0,0.0,0.0,0.0,0.0,0.0,0.0,0.0,0.0,0.0,0.0,0.0,0.0,-0.3382,-0.0013,0.2474,0.505,0.7938,0.8599,0.812,0.6413,0.0,0.0,0.0,0.0,0.0,0.0,0.0,0.0,0.0,0.0,0.0,0.0,0.0,0.0,0.0,0.0,0.0,0.0,0.0,0.0,0.0,0.0,0.0,0.0,0.0,0.0,0.0,0.0,0.0,0.0,0.0,0.0,0.0,0.0,0.0,0.0,0.0,0.0,0.0,0.0,0.0,0.0,0.0,0.0,0.0,0.0,0.0,0.0,0.0,0.0,0.0,0.0,0.0,0.0,0.0,0.0,0.0,0.0,0.0,0.0,0.0,0.0,0.0,0.0,0.0,0.0,0.0,0.0,0.0,0.0,0.0,0.0,0.0,0.0,0.0,0.0,0.0,0.0,0.0,0.0,0.0,0.0,0.0,0.0,0.0,0.0,0.0,0.0,0.0,0.0,0.0,0.0,0.0,0.0,0.0,0.0,0.0,0.0,0.0,0.0,0.0,0.0,0.0,-0.2806,-0.1371,0.2656,0.4005,0.5685,0.8355,0.8852,0.8315,0.6672,0.6783,0.0,0.0,0.0,0.0,0.0,0.0,0.0,0.0,0.0,0.0,0.0,0.0,0.0,0.0,0.0,0.0,0.0,0.0,0.0,0.0,0.0,0.0,0.0,0.0,0.0,0.0,0.0,0.0,0.0,0.0,0.0,0.0,0.0,0.0,0.0,0.0,0.0,0.0,0.0,0.0,0.0,0.0,0.0,0.0,0.0,0.0,0.0,0.0,0.0,0.0,0.0,0.0,0.0,0.0,0.0,0.0,0.0,0.0,0.0,0.0,0.0,0.0,0.0,0.0,0.0,0.0,0.0,0.0,0.0,0.0,0.0,0.0,0.0,0.0,0.0,0.0,0.0,0.0,0.0,0.0,0.0,0.0,0.0,0.0,0.0,0.0,0.0,0.0,0.0,0.0,0.0,0.0,0.0,0.0,0.0,0.0,0.0,0.0,0.0,0.0,0.0,0.0,-0.0631,0.1172,0.425,0.5228,0.6556,0.8733,0.8908,0.8294,0.6909,0.6776,0.0,0.0,0.0,0.0,0.0,0.0,0.0,0.0,0.0,0.0,0.0,0.0,0.0,0.0,0.0,0.0,0.0,0.0,0.0,0.0,0.0,0.0,0.0,0.0,0.0,0.0,0.0,0.0,0.0,0.0,0.0,0.0,0.0,0.0,0.0,0.0,0.0,0.0,0.0,0.0,0.0,0.0,0.0,0.0,0.0,0.0,0.0,0.0,0.0,0.0,0.0,0.0,0.0,0.0,0.0,0.0,0.0,0.0,0.0,0.0,0.0,0.0,0.0,0.0,0.0,0.0,0.0,0.0,0.0,0.0,0.0,0.0,0.0,0.0,0.0,0.0,0.0,0.0,0.0,0.0,0.0,0.0,0.0,0.0,0.0,0.0,0.0,0.0,0.0,0.0,0.0,0.0,0.0,0.0,0.0,0.0,0.0,0.0,0.0,0.0,0.0,0.0,0.1765,0.4263,0.4733,0.7018,0.8644,0.897,0.855,0.7873,0.6962,0.6308,0.0,0.0,0.0,0.0,0.0,0.0,0.0,0.0,0.0,0.0,0.0,0.0,0.0,0.0,0.0,0.0,0.0,0.0,0.0,0.0,0.0,0.0,0.0,0.0,0.0,0.0,0.0,0.0,0.0,0.0,0.0,0.0,0.0,0.0,0.0,0.0,0.0,0.0,0.0,0.0,0.0,0.0,0.0,0.0,0.0,0.0,0.0,0.0,0.0,0.0,0.0,0.0,0.0,0.0,0.0,0.0,0.0,0.0,0.0,0.0,0.0,0.0,0.0,0.0,0.0,0.0,0.0,0.0,0.0,0.0,0.0,0.0,0.0,0.0,0.0,0.0,0.0,0.0,0.0,0.0,0.0,0.0,0.0,0.0,0.0,0.0,0.0,0.0,0.0,0.0,0.0,0.0,0.0,0.0,0.0,0.0,0.0,0.0,0.0,0.0,0.0,0.0,0.3092,0.5339,0.0,0.848,0.9231,0.9357,0.9264,0.8616,0.7233,0.0,0.0,0.0,0.0,0.0,0.0,0.0,0.0,0.0,0.0,0.0,0.0,0.0,0.0,0.0,0.0,0.0,0.0,0.0,0.0,0.0,0.0,0.0,0.0,0.0,0.0,0.0,0.0,0.0,0.0,0.0,0.0,0.0,0.0,0.0,0.0,0.0,0.0,0.0,0.0,0.0,0.0,0.0,0.0,0.0,0.0,0.0,0.0,0.0,0.0,0.0,0.0,0.0,0.0,0.0,0.0,0.0,0.0,0.0,0.0,0.0,0.0,0.0,0.0,0.0,0.0,0.0,0.0,0.0,0.0,0.0,0.0,0.0,0.0,0.0,0.0,0.0,0.0,0.0,0.0,0.0,0.0,0.0,0.0,0.0,0.0,0.0,0.0,0.0,0.0,0.0,0.0,0.0,0.0,0.0,0.0,0.0,0.0,0.0,0.0,0.0,0.0,0.2786,0.4465,0.6385,0.0,0.9355,0.9528,0.9686,0.9544,0.8837,0.74,0.0,0.0,0.0,0.0,0.0,0.0,0.0,0.0,0.0,0.0,0.0,0.0,0.0,0.0,0.0,0.0,0.0,0.0,0.0,0.0,0.0,0.0,0.0,0.0,0.0,0.0,0.0,0.0,0.0,0.0,0.0,0.0,0.0,0.0,0.0,0.0,0.0,0.0,0.0,0.0,0.0,0.0,0.0,0.0,0.0,0.0,0.0,0.0,0.0,0.0,0.0,0.0,0.0,0.0,0.0,0.0,0.0,0.0,0.0,0.0,0.0,0.0,0.0,0.0,0.0,0.0,0.0,0.0,0.0,0.0,0.0,0.0,0.0,0.0,0.0,0.0,0.0,0.0,0.0,0.0,0.0,0.0,0.0,0.0,0.0,0.0,0.0,0.0,0.0,0.0,0.0,0.0,0.0,0.0,0.0,0.0,0.0,0.0,0.0,0.0,0.0,0.0,0.4394,0.6,0.7678,0.9425,0.9601,0.9693,0.9884,0.9173,0.8315,0.0,0.0,0.0,0.0,0.0,0.0,0.0,0.0,0.0,0.0,0.0,0.0,0.0,0.0,0.0,0.0,0.0,0.0,0.0,0.0,0.0,0.0,0.0,0.0,0.0,0.0,0.0,0.0,0.0,0.0,0.0,0.0,0.0,0.0,0.0,0.0,0.0,0.0,0.0,0.0,0.0,0.0,0.0,0.0,0.0,0.0,0.0,0.0,0.0,0.0,0.0,0.0,0.0,0.0,0.0,0.0,0.0,0.0,0.0,0.0,0.0,0.0,0.0,0.0,0.0,0.0,0.0,0.0,0.0,0.0,0.0,0.0,0.0,0.0,0.0,0.0,0.0,0.0,0.0,0.0,0.0,0.0,0.0,0.0,0.0,0.0,0.0,0.0,0.0,0.0,0.0,0.0,0.0,0.0,0.0,0.0,0.0,0.0,0.0,0.0,0.0,0.0,0.0,0.4655,0.6243,0.789,0.9682,0.9882,0.9942,1.0099,0.9889,0.911,0.7601,0.0,0.0,0.0,0.0,0.0,0.0,0.0,0.0,0.0,0.0,0.0,0.0,0.0,0.0,0.0,0.0,0.0,0.0,0.0,0.0,0.0,0.0,0.0,0.0,0.0,0.0,0.0,0.0,0.0,0.0,0.0,0.0,0.0,0.0,0.0,0.0,0.0,0.0,0.0,0.0,0.0,0.0,0.0,0.0,0.0,0.0,0.0,0.0,0.0,0.0,0.0,0.0,0.0,0.0,0.0,0.0,0.0,0.0,0.0,0.0,0.0,0.0,0.0,0.0,0.0,0.0,0.0,0.0,0.0,0.0,0.0,0.0,0.0,0.0,0.0,0.0,0.0,0.0,0.0,0.0,0.0,0.0,0.0,0.0,0.0,0.0,0.0,0.0,0.0,0.0,0.0,0.0,0.0,0.0,0.0,0.0,0.0,0.0,0.0,0.0,0.0,0.0,0.5583,0.6716,0.8066,0.9885,1.0073,1.0104,1.0197,1.0198,0.947,0.7757,0.0,0.0,0.0,0.0,0.0,0.0,0.0,0.0,0.0,0.0,0.0,0.0,0.0,0.0,0.0,0.0,0.0,0.0,0.0,0.0,0.0,0.0,0.0,0.0,0.0,0.0,0.0,0.0,0.0,0.0,0.0,0.0,0.0,0.0,0.0,0.0,0.0,0.0,0.0,0.0,0.0,0.0,0.0,0.0,0.0,0.0,0.0,0.0,0.0,0.0,0.0,0.0,0.0,0.0,0.0,0.0,0.0,0.0,0.0,0.0,0.0,0.0,0.0,0.0,0.0,0.0,0.0,0.0,0.0,0.0,0.0,0.0,0.0,0.0,0.0,0.0,0.0,0.0,0.0,0.0,0.0,0.0,0.0,0.0,0.0,0.0,0.0,0.0,0.0,0.0,0.0,0.0,0.0,0.0,0.0,0.0,0.0,0.0,0.0,0.0,0.0,0.0,0.6818,0.7378,0.8281,1.0018,1.0206,1.0202,1.0191,1.0195,0.9511,0.7904,0.0,0.0,0.0,0.0,0.0,0.0,0.0,0.0,0.0,0.0,0.0,0.0,0.0,0.0,0.0,0.0,0.0,0.0,0.0,0.0,0.0,0.0,0.0,0.0,0.0,0.0,0.0,0.0,0.0,0.0,0.0,0.0,0.0,0.0,0.0,0.0,0.0,0.0,0.0,0.0,0.0,0.0,0.0,0.0,0.0,0.0,0.0,0.0,0.0,0.0,0.0,0.0,0.0,0.0,0.0,0.0,0.0,0.0,0.0,0.0,0.7673,0.6736,0.0,0.0,0.0,0.0,0.0,0.0,0.0,0.0,0.0,0.0,0.0,0.0,0.0,0.0,0.0,0.0,0.0,0.0,0.0,0.0,0.0,0.0,0.0,0.0,0.0,0.0,0.0,0.0,0.0,0.0,0.0,0.0,0.0,0.0,0.0,0.0,0.0,0.0,0.0,0.0,0.7157,0.8066,0.9007,1.0097,1.0196,1.0194,1.0208,1.0204,0.9762,0.8708,0.8027,0.0,0.0,0.0,0.0,0.0,0.0,0.0,0.0,0.0,0.0,0.0,0.0,0.0,0.0,0.0,0.0,0.0,0.0,0.0,0.0,0.0,0.0,0.0,0.0,0.0,0.0,0.0,0.0,0.0,0.0,0.0,0.0,0.0,0.0,0.0,0.0,0.0,0.0,0.0,0.0,0.0,0.0,0.0,0.0,0.0,0.0,0.0,0.0,0.0,0.0,0.0,0.0,0.0,0.0,0.0,0.0,0.0,0.0,0.0,0.9565,0.8808,0.0,0.0,0.0,0.0,0.0,0.0,0.0,0.0,0.0,0.0,0.0,0.0,0.0,0.0,0.0,0.0,0.0,0.0,0.0,0.0,0.0,0.0,0.0,0.0,0.0,0.0,0.0,0.0,0.0,0.0,0.0,0.0,0.0,0.0,0.0,0.0,0.0,0.0,0.0,0.0,0.7282,0.8257,0.9173,1.0012,1.008,1.0083,1.0147,1.0147,0.9798,0.896,0.8504,0.0,0.0,0.0,0.0,0.0,0.0,0.0,0.0,0.0,0.0,0.0,0.0,0.0,0.0,0.0,0.0,0.0,0.0,0.0,0.0,0.0,0.0,0.0,0.0,0.0,0.0,0.0,0.0,0.0,0.0,0.0,0.0,0.0,0.0,0.0,0.0,0.0,0.0,0.0,0.0,0.0,0.0,0.0,0.0,0.0,0.0,0.0,0.0,0.0,0.0,0.0,0.0,0.0,1.1108,1.1559,1.2676,1.2109,1.2284,1.2947,1.1501,1.1133,1.1423,0.9767,0.0,0.0,0.0,0.0,0.0,0.0,0.0,0.0,0.0,0.0,0.0,0.0,0.0,0.0,0.0,0.0,0.0,0.0,0.0,0.0,0.0,0.0,0.893,0.8,0.8543,0.8927,0.7717,0.0,0.0,0.0,0.0,0.0,0.0,0.0,0.0,0.0,0.0,0.0,0.7527,0.8416,0.9247,0.9906,0.9936,0.9971,1.0065,1.0082,0.9812,0.9155,0.8961,0.8271,0.0,0.0,0.0,0.0,0.0,0.0,0.0,0.0,0.0,0.0,0.0,0.0,0.0,0.0,0.0,0.0,0.0,0.0,0.0,0.0,0.0,0.0,0.0,0.0,0.0,0.0,0.0,0.0,0.0,0.0,0.0,0.0,0.5408,0.619,0.0,0.0,0.0,0.0,0.0,0.0,0.0,0.0,0.0,0.0,0.0,0.0,0.0,1.122,1.2637,1.3644,1.4184,1.4276,1.5073,1.5158,1.4639,1.4529,1.4562,1.4663,1.45,0.0,1.2441,1.1445,0.0,0.0,0.0,0.0,0.0,0.0,0.0,0.0,0.0,0.0,0.0,0.0,0.0,0.0,0.0,0.0,0.0,0.0,0.0,0.0,0.0,0.0,1.082,0.9941,1.041,1.0799,0.9871,0.8446,0.751,0.8033,0.7625,0.6868,0.0,0.0,0.0,0.0,0.0,0.0,0.8424,0.9244,0.9806,0.9895,0.9957,0.9987,1.0009,1.0006,0.9982,0.9947,0.9236,0.8743,0.8579,0.7167,0.0,0.0,0.0,0.0,0.0,0.0,0.0,0.0,0.0,0.0,0.0,0.0,0.0,0.0,0.0,0.0,0.0,0.0,0.0,0.0,0.0,0.0,0.0,0.0,0.0,0.0,0.0,0.0,0.0,0.5587,0.6492,0.6795,0.7211,0.7184,0.0,0.0,0.0,0.0,0.0,0.0,0.0,0.0,0.0,1.1564,1.2992,1.4108,1.4861,1.5828,1.6305,1.6269,1.6218,1.5998,1.5594,1.5073,1.4842,1.4889,1.4885,1.4494,1.3812,1.3056,1.2805,1.2738,0.0,0.0,0.0,0.0,1.0547,1.1053,1.1425,1.1582,1.1523,1.0995,0.0,0.0,0.0,0.0,0.0,0.0,0.0,1.0239,1.0627,1.1346,1.1876,1.1538,1.1734,1.2054,1.216,1.1179,0.9956,0.8887,0.8809,0.8319,0.6405,0.6482,0.0,0.0,0.0,0.8196,0.8542,0.9282,0.9767,0.9738,0.9764,0.9791,0.9838,0.9862,0.9925,0.9992,0.967,0.9287,0.8866,0.8172,0.7174,0.0,0.0,0.0,0.0,0.0,0.0,0.0,0.0,0.0,0.0,0.0,0.0,0.0,0.0,0.0,0.0,0.0,0.0,0.0,0.0,0.0,0.0,0.0,0.0,0.0,0.0,0.0,0.0,0.6662,0.763,0.7602,0.8578,0.8901,0.0,0.0,0.0,0.0,0.0,0.0,1.1459,1.2594,1.346,1.3975,1.5563,1.6486,1.6657,1.7356,1.7643,1.7492,1.6848,1.6383,1.6083,1.538,1.5092,1.5117,1.5106,1.5239,1.5426,1.4456,1.4318,1.4491,1.2541,1.2076,1.2444,1.2032,1.2333,1.2998,1.3235,1.3344,1.3313,1.2857,1.2584,1.2284,1.1555,0.0,0.0,0.0,0.0,1.1509,1.1723,1.2221,1.2624,1.2471,1.2592,1.2852,1.3309,1.3049,1.2137,1.0103,1.0088,0.9621,0.7229,0.729,0.0,0.6913,0.0,0.8609,0.8768,0.9307,0.9654,0.9583,0.9575,0.9607,0.964,0.9714,0.9784,0.9875,0.9925,0.9691,0.9137,0.8954,0.8184,0.6728,0.0,0.0,0.0,0.0,0.0,0.0,0.0,0.0,0.0,0.0,0.0,0.0,0.0,0.0,0.0,0.0,0.0,0.0,0.0,0.0,0.0,0.0,0.0,0.0,0.0,0.0,0.0,0.0,0.0,0.8988,1.0331,0.0,0.0,0.0,0.0,1.0966,1.2132,1.3045,1.3437,1.4894,1.5753,1.5868,1.6765,1.7554,1.8183,1.8243,1.8093,1.7771,1.7735,1.7155,1.6094,1.6059,1.6041,1.6041,1.6092,1.6598,1.7241,1.5479,1.4287,1.3565,1.3444,1.2906,1.2326,1.3175,1.3545,1.378,1.4662,1.4975,1.5115,1.5975,1.564,1.488,1.4709,1.3546,0.0,0.0,1.2761,1.2341,1.3169,1.3372,1.3169,1.2402,1.2796,1.316,1.2439,1.2852,1.3136,1.2362,1.1637,1.0573,0.8795,0.0,0.842,0.8316,0.8365,0.8686,0.9447,0.9585,0.9577,0.9506,0.9506,0.9506,0.9514,0.9577,0.9675,0.9791,0.98,0.9848,0.9934,0.9207,0.8402,0.7554,0.6786,0.0,0.0,0.0,0.0,0.0,0.0,0.0,0.0,0.0,0.0,0.0,0.0,0.0,0.0,0.0,0.0,0.0,0.0,0.0,0.0,0.0,0.0,0.0,0.0,0.0,0.0,0.0,0.0,1.1544,1.2779,0.0,1.2952,1.3399,1.3887,1.428,1.4728,1.5268,1.5937,1.6952,1.7407,1.7176,1.8004,1.8451,1.8424,1.8429,1.8283,1.7985,1.7381,1.6811,1.6284,1.5852,1.5573,1.5412,1.5778,1.6043,1.6182,1.5697,1.5763,1.6039,1.5044,1.4549,1.437,1.4232,1.4275,1.4464,1.4783,1.4901,1.4969,1.53,1.5174,1.4899,1.4798,1.4701,1.4614,1.4751,1.4541,1.4281,1.4422,1.4087,1.3647,1.3359,1.3582,1.3786,1.3548,1.3769,1.3827,1.3049,1.2722,1.1822,0.951,0.9528,0.9478,0.8373,0.8617,0.9046,0.9368,0.9358,0.9348,0.9359,0.9368,0.9368,0.9368,0.9421,0.95,0.9609,0.964,0.9735,0.9867,0.9632,0.8913,0.7628,0.7326,0.647,0.0,0.0,0.0,0.0,0.0,0.0,0.0,0.0,0.0,0.0,0.0,0.0,0.0,0.0,0.0,0.0,0.0,0.0,0.0,0.0,0.0,0.0,0.0,0.0,0.0,0.0,1.2288,1.3138,1.4641,1.5513,1.5261,1.5585,1.6007,1.6475,1.667,1.6977,1.7435,1.8173,1.8339,1.7851,1.8422,1.8628,1.8433,1.8433,1.8289,1.8031,1.7401,1.687,1.6462,1.6022,1.5703,1.5564,1.5944,1.6046,1.5906,1.6152,1.6678,1.7233,1.5986,1.563,1.5719,1.4995,1.5039,1.5444,1.5224,1.5141,1.516,1.516,1.516,1.5151,1.5064,1.5189,1.5314,1.5148,1.507,1.4995,1.4799,1.4357,1.3931,1.3959,1.3959,1.3987,1.4038,1.4096,1.3979,1.3466,1.3307,1.2607,1.0584,1.0465,1.0318,0.9391,0.9274,0.9388,0.9615,0.9429,0.9281,0.9293,0.9284,0.9257,0.9257,0.9321,0.9394,0.9466,0.954,0.9647,0.9799,0.9893,0.9325,0.803,0.7568,0.6888,0.597,0.0,0.0,0.0,0.0,0.0,0.0,0.0,0.0,0.0,0.0,0.0,0.0,0.0,0.0,0.0,0.0,0.0,0.0,0.0,0.0,0.0,0.0,0.0,0.9906,1.2557,1.4319,1.3739,1.5908,1.7112,1.6308,1.7082,1.7578,1.7363,1.7962,1.8155,1.7811,1.8469,1.8555,1.7885,1.7958,1.8099,1.8268,1.8301,1.8163,1.7904,1.7877,1.7406,1.6606,1.6633,1.6617,1.6633,1.6691,1.6727,1.6727,1.685,1.6885,1.6815,1.616,1.6028,1.613,1.5447,1.5875,1.6688,1.6017,1.5831,1.5882,1.5845,1.5826,1.5804,1.5668,1.5105,1.4477,1.4355,1.4309,1.4314,1.4304,1.4141,1.3984,1.4072,1.3865,1.3665,1.3768,1.3661,1.3586,1.3698,1.3431,1.2942,1.2065,1.1268,1.0908,1.1417,1.0387,0.0,1.0233,0.9788,0.9409,0.9345,0.9271,0.9251,0.9234,0.9298,0.9365,0.9394,0.9455,0.9589,0.9794,0.9931,0.962,0.8818,0.7504,0.7122,0.77,0.0,0.0,0.0,0.0,0.0,0.0,0.0,0.0,0.0,0.0,0.0,0.0,0.0,0.0,0.0,0.0,0.0,0.0,0.0,0.0,0.0,1.2487,1.3695,1.3624,1.4461,1.5689,1.7303,1.8076,1.8575,1.876,1.8942,1.896,1.8689,1.8617,1.8412,1.796,1.7989,1.7774,1.7188,1.7658,1.7873,1.7796,1.8006,1.7929,1.7608,1.7311,1.6963,1.6554,1.7039,1.7164,1.6975,1.7244,1.7282,1.7124,1.685,1.6773,1.677,1.6144,1.6118,1.6342,1.5613,1.5749,1.6195,1.5462,1.5241,1.5145,1.4566,1.4383,1.4369,1.4321,1.4577,1.4816,1.4582,1.4551,1.4551,1.4349,1.3854,1.3411,1.3444,1.3068,1.2843,1.3449,1.3201,1.3052,1.3649,1.3694,1.3319,1.2366,1.1982,1.1637,1.1192,1.0771,1.0425,1.0193,1.0054,1.0006,1.0094,1.0119,1.014,1.0143,1.0161,0.9961,0.943,0.9465,0.9552,0.9649,0.9789,0.9518,0.882,0.7861,0.7454,0.0,0.0,0.0,0.0,0.0,0.0,0.0,0.0,0.0,0.0,0.0,0.0,0.0,0.0,0.0,0.0,0.0,0.0,0.0,0.0,0.0,0.0,1.4482,1.5904,1.6678,1.6796,1.7348,1.8824,1.9192,1.9422,1.9724,1.956,1.9314,1.9011,1.8646,1.8261,1.7803,1.7883,1.7691,1.7146,1.7805,1.81,1.8023,1.828,1.8268,1.7956,1.784,1.7471,1.6967,1.7361,1.7361,1.7093,1.7297,1.7228,1.6984,1.6789,1.6616,1.6496,0.0,0.0,0.0,0.0,1.6439,1.6098,1.5993,1.5748,1.5363,1.4923,1.4555,1.4292,1.4296,1.4399,1.4453,1.4311,1.4295,1.4295,1.4127,1.3735,1.3379,1.3379,1.304,1.2853,1.3359,1.2896,1.2633,1.3432,1.3329,0.0,1.272,1.2508,1.228,1.2075,1.1533,1.1005,1.0607,1.0355,1.0112,0.9872,0.9918,0.996,0.9956,1.0011,0.0,0.0,0.0,0.956,0.9684,0.9784,0.0,0.0,0.0,0.0,0.0,0.0,0.0,0.0,0.7018,0.7183,0.0,0.0,0.0,0.0,0.0,0.0,0.0,0.0,0.0,0.0,0.0,0.0,0.0,0.0,0.0,0.0,1.6182,1.7253,1.8949,1.9061,1.9013,1.909,1.9565,1.9791,1.9606,1.9327,1.9028,1.8714,1.8385,1.8039,1.7623,1.8086,0.0,0.0,0.0,1.8576,1.8629,1.891,1.8906,1.8628,1.8837,1.8474,1.7659,1.7726,1.7611,1.7359,1.7321,1.7151,1.6889,1.6846,1.6608,1.6258,1.6701,1.7118,1.7551,1.8166,1.7457,1.634,1.6987,0.0,0.0,1.6063,1.561,1.5069,1.5069,1.4509,1.3876,1.3876,1.3824,1.3754,1.3754,1.3665,1.3573,1.3573,1.3377,1.3211,1.3261,1.2588,1.2204,1.2924,1.2488,1.2221,1.2958,1.286,1.2855,1.3405,1.2465,1.1602,1.1366,1.0788,1.0169,0.9424,0.9415,0.0,0.9347,0.9462,0.9483,0.9394,0.9466,0.9591,0.9786,0.985,0.9908,0.9982,1.0058,1.0086,1.0086,0.9995,0.9583,0.886,0.7465,0.7185,0.0,0.0,0.0,0.0,0.0,0.0,0.0,0.0,0.0,0.0,0.0,0.0,0.0,0.0,0.0,1.6881,1.7811,1.8671,1.9601,1.9629,1.9568,1.965,1.9706,1.9529,1.8957,1.8875,1.8799,1.8636,1.8796,1.8725,1.8349,1.8607,1.8514,1.7884,1.8539,1.89,1.8936,1.9191,1.9141,1.8832,1.8584,0.0,1.8186,1.8496,1.8753,1.892,1.8747,1.8616,1.8581,1.8034,1.7486,1.6976,1.6721,1.6712,1.685,1.7415,1.7411,1.7132,1.6893,1.67,1.6496,1.5899,1.5609,1.549,1.549,1.4944,0.0,1.4348,1.3939,1.3479,1.3479,1.3462,1.3446,1.3446,1.2955,1.25,1.2517,1.1859,1.1352,1.1487,1.1403,1.154,1.2349,1.2805,1.3143,1.3312,1.3075,1.2687,1.216,1.1982,1.163,1.0942,1.0937,1.0755,1.0212,1.0235,1.0032,0.943,0.9517,0.962,0.9724,0.9793,0.9857,0.9922,0.9984,1.0029,1.0029,0.9377,0.8975,0.8827,0.9256,0.9207,0.0,0.0,0.0,0.0,0.0,0.0,0.0,0.0,0.0,0.0,0.0,1.4063,1.4895,0.0,1.7209,1.798,1.8745,1.9371,1.9696,1.9548,1.9425,1.9494,1.9374,1.9077,1.8514,1.8455,1.8527,1.8689,1.861,1.8618,1.8779,1.8994,1.8968,1.8682,1.9308,1.9558,1.9405,1.9688,1.9696,1.9339,1.9317,1.9046,1.8557,1.8775,1.8685,1.839,1.8614,1.859,1.8425,1.8251,1.7976,1.7638,1.712,1.6776,1.6649,1.7043,1.7191,1.7166,1.6931,1.6862,1.6772,1.6425,1.6148,1.5934,1.5806,1.5161,1.4476,1.4329,1.3866,1.3396,1.3396,1.3396,1.3396,1.3396,1.3125,1.2854,1.2854,1.2229,1.1705,1.1705,1.1383,1.1231,1.162,1.2283,1.289,1.3295,1.3329,1.3059,1.2398,1.2263,1.1972,1.1281,1.1246,1.104,1.0394,1.0128,0.9842,0.9475,0.9517,0.9597,0.9702,0.9738,0.9799,0.99,0.9935,0.9952,0.9952,0.9541,0.9377,0.9406,0.9874,0.9691,0.0,0.0,0.0,0.0,0.0,0.0,0.0,0.0,1.4392,1.4559,1.5608,1.6546,1.6692,1.7807,1.8714,1.8768,1.9251,1.9567,1.9503,1.9219,1.8995,1.8986,1.891,1.8662,1.82,1.8194,1.8387,1.8809,1.8582,1.8676,1.9313,1.95,1.9553,1.9487,2.0027,2.0185,1.9909,2.0185,2.015,1.9788,2.0065,1.9695,1.882,1.882,1.8358,1.7578,1.8263,1.8459,1.8316,1.851,1.853,1.8345,1.7807,1.7231,1.6716,1.6863,1.6968,1.7018,1.7068,1.7117,1.7167,1.7167,1.6917,1.6553,1.6331,1.5641,1.4845,1.4485,1.4029,1.3583,1.3447,1.3396,1.3396,1.3396,1.3396,1.3362,1.3227,1.272,1.2246,1.2094,1.1536,1.1147,1.1299,1.1874,1.25,1.3108,1.3312,1.3193,1.2584,1.2483,1.2194,1.1457,1.1439,1.1248,1.0632,1.0198,0.9943,0.996,0.9825,0.9802,0.992,0.9769,0.9752,0.9888,0.9882,0.9894,0.9906,0.9906,0.9929,0.9974,1.0147,0.9833,0.967,1.0273,1.112,1.1885,1.2755,1.4027,0.0,0.0,1.617,1.6937,1.7141,1.7403,1.8121,1.8303,1.8578,1.9279,1.9317,1.9206,1.9079,1.8842,1.8552,1.8261,1.8457,1.8457,1.8069,1.8393,1.8726,1.8965,1.9567,2.0001,2.0177,2.0471,2.0485,2.0196,2.0273,2.027,2.0235,2.027,2.015,1.9788,1.9823,1.9506,1.882,1.882,1.8558,1.8159,1.8864,1.9528,2.0005,2.0039,1.9718,1.9179,1.9102,1.8269,1.7096,1.6779,1.6789,1.7043,1.7264,1.7502,1.7704,1.7704,1.7676,1.7631,1.7609,1.7057,1.6306,1.5606,1.4934,1.4242,1.3583,1.3396,1.3396,1.3396,1.3396,1.3227,1.2551,1.2365,1.2094,1.1367,1.1164,1.1333,1.2043,1.2246,1.2331,1.2415,1.299,1.3379,1.3295,1.3375,1.316,1.2419,1.2457,1.23,1.168,1.1582,1.1571,1.1626,1.1022,1.0658,1.0675,1.0052,0.9731,0.9805,0.9805,0.9838,0.9906,0.9906,0.99,0.9923,1.0715,1.0662,1.1741,1.2579,1.3257,0.0,1.5001,1.6457,1.7206,1.8117,1.8937,1.9387,1.9376,1.9378,1.9722,1.9328,1.8988,0.0,1.9461,1.9488,1.8788,1.8841,1.8662,1.7958,1.7885,1.7924,1.7979,1.8319,1.8792,1.9411,1.9732,2.0115,2.0563,2.0543,2.0441,2.0304,2.0304,2.0304,2.0304,2.0304,2.002,1.9519,1.9519,1.8936,1.7851,1.7851,1.7761,1.7654,1.8377,1.9054,1.9749,2.015,2.0135,1.9842,1.9441,1.8947,1.8315,1.7308,1.6753,1.657,1.6841,1.7018,1.7142,1.7288,1.7432,1.7542,1.7384,1.7048,1.6589,1.6139,1.5275,1.4427,1.4124,1.3718,1.3396,1.3396,1.3396,1.3328,1.3007,1.2939,1.2703,1.1942,1.1789,1.1756,1.162,1.1992,1.2297,1.2297,1.2939,1.3396,1.3396,1.351,1.3498,1.329,1.2979,1.2713,1.2466,1.207,1.1866,1.1898,1.162,1.125,1.0831,1.05,1.0144,0.9757,0.9738,1.0008,1.0536,1.0536,1.0819,1.1361,1.1721,1.1729,1.3151,0.0,0.0,1.5512,1.7172,1.8716,1.854,1.9797,2.1034,2.1116,2.0825,2.0533,2.0533,1.9774,1.9135,1.9094,1.952,1.9668,1.9108,1.9016,1.875,1.8013,1.7626,1.7601,1.8118,1.8335,1.8824,1.9719,1.983,2.0095,2.063,2.0441,2.0304,2.0304,2.0304,2.0304,2.0304,2.0119,1.978,1.9302,1.9102,1.8361,1.7193,1.7009,1.7024,1.7224,1.7715,1.8454,1.9333,1.9826,2.0135,2.0258,1.9765,1.9456,1.9179,1.8161,1.7267,1.6592,1.6606,1.6649,1.6738,1.6942,1.7191,1.7361,1.7167,1.7067,1.6927,1.6519,1.5795,1.502,1.4596,1.4107,1.365,1.3447,1.3396,1.3396,1.3396,1.3396,1.3244,1.2703,1.2601,1.2415,1.1823,1.2212,1.2601,1.2601,1.3057,1.3396,1.3396,1.3559,1.3711,1.3874,1.3521,1.3278,1.3278,1.2836,1.2568,1.2568,1.235,1.1991,1.1487,1.1223,1.0867,1.0363,1.0336,1.0637,1.1302,1.1325,1.1674,1.2357,1.2617,1.2718,0.0,0.0,1.7022,1.7794,1.9231,2.0664,2.1551,2.1758,2.1763,2.1778,2.0895,2.012,2.012,1.9251,1.877,1.945,1.9382,1.9504,2.0246,1.9292,1.8518,1.8485,1.7839,1.7722,0.0,1.8602,1.8901,1.9657,2.0055,2.0273,2.0304,2.0304,2.0304,2.0304,2.0304,2.0304,2.0304,1.9657,1.9317,1.9287,1.8592,1.7869,1.7178,1.6517,1.6578,1.7208,1.7224,1.8023,1.9302,1.9317,1.9703,2.0304,2.0289,1.9873,1.9287,1.9256,1.8516,1.7468,1.6817,1.6763,1.6993,1.6993,1.7191,1.7384,1.7384,1.7572,1.7625,1.6881,1.6665,1.6309,1.4885,1.4477,1.4293,1.3583,1.3396,1.3396,1.3396,1.3396,1.3396,1.3379,1.3362,1.3362,1.3328,1.3345,1.3362,1.3362,1.3396,1.3396,1.3396,1.3619,1.3874,1.4068,1.4198,1.4257,1.4257,1.4239,1.4221,1.4221,1.3509,1.3086,1.312,1.2318,1.1923,1.2021,1.1955,1.1983,1.2078,1.2131,1.2184,1.223,1.3146,1.3555,1.5088,0.0,1.8075,1.8784,2.0307,2.17,2.1974,2.2582,2.2933,2.2213,2.151,2.0824,2.0171,1.9306,1.8905,1.9486,1.9829,1.9949,1.9815,1.99,1.9695,1.898,1.8474,0.0,0.0,0.0,0.0,2.004,2.0234,2.0304,2.0304,2.0304,2.0304,2.0304,2.0304,2.0304,2.0304,2.0088,1.9734,1.9287,1.8115,1.7423,1.7178,1.6502,1.6317,1.6563,1.7009,1.7715,1.8623,1.9102,1.9703,2.0304,2.0527,2.0487,2.0269,2.0067,1.9725,1.9206,1.7946,1.7583,1.7633,1.7574,1.7589,1.7658,1.7658,1.7743,1.776,1.7507,1.7067,1.6597,1.6106,1.524,1.4427,1.4191,1.3752,1.3396,1.3396,1.3396,1.3396,1.3396,1.3396,1.3396,1.3396,1.3396,1.3396,1.3396,1.3396,1.343,1.3527,1.3696,1.3827,1.3888,1.4145,1.4255,1.4163,1.4242,1.4293,1.4293,1.4083,1.3726,1.3229,1.2924,1.2527,1.2046,1.2008,1.2294,1.2906,1.2917,1.3281,1.3924,1.4251,1.4401,1.6711,1.8137,1.9384,2.0092,2.1404,2.2516,2.2481,2.2799,2.2855,2.1914,2.1019,2.0131,1.9138,1.8302,1.8083,1.9169,1.9631,2.0016,2.0448,2.0544,2.0312,1.9605,1.8983,1.8886,0.0,0.0,0.0,2.0261,2.0304,2.0304,2.0304,2.0304,2.0304,2.0304,2.0304,2.0304,2.0304,2.0058,1.9595,1.8885,1.8053,1.7622,1.7606,1.6928,1.662,1.6635,1.6791,1.7362,1.8238,1.8715,1.9472,2.0304,2.0543,2.0695,2.0764,2.0543,2.0552,2.0432,1.8961,1.8432,1.8356,1.8021,1.7973,1.7994,1.7742,1.7726,1.7811,1.7811,1.7456,1.7016,1.6766,1.5984,1.5223,1.4969,1.4327,1.3785,1.3785,1.3599,1.3396,1.3396,1.3446,1.3446,1.3413,1.3446,1.3462,1.3462,1.3543,1.3575,1.3527,1.3696,1.3795,1.3795,1.4114,1.4299,1.4208,1.4281,1.4344,1.4344,1.4374,1.418,1.3682,1.365,1.3406,1.2895,1.2866,1.3125,1.3692,1.3766,1.4126,1.4774,1.4832,1.4878,1.8165,1.953,2.09,2.1644,2.245,2.3067,2.3014,2.2382,2.1597,2.0754,1.9453,1.8132,0.0,0.0,1.6507,1.8534,1.891,1.9714,2.1933,2.116,2.0335,0.0,0.0,0.0,0.0,0.0,0.0,2.0292,2.0304,2.0304,2.0304,2.0304,2.0304,2.0304,2.0304,2.0304,2.0304,1.9672,1.8992,1.8315,1.8393,1.8439,1.8424,1.7742,1.7401,1.7339,1.6589,1.6978,1.8161,1.8192,1.9023,2.0258,2.0323,2.0527,2.0827,2.086,2.1055,2.1158,1.9821,1.9332,1.9158,1.841,1.8365,1.8452,1.7714,1.7662,1.7862,1.7805,1.7811,1.7642,1.6953,1.6733,1.6529,1.5835,1.5105,1.4563,1.4513,1.3972,1.3447,1.3413,1.3494,1.3542,1.343,1.3526,1.3617,1.3617,1.3766,1.3801,1.3462,1.365,1.3827,1.3813,1.4159,1.4398,1.4398,1.4399,1.4399,1.4399,1.4399,1.4429,1.4501,1.4429,1.4429,1.4501,1.4429,1.4417,1.4399,1.4603,1.4678,1.4698,1.4904,1.499,1.9046,2.0229,2.1242,2.201,2.2478,2.2609,2.1859,2.1375,2.0442,1.8203,1.7698,1.7047,0.0,0.0,0.0,1.8232,1.9002,0.0,2.1354,2.1254,0.0,2.0687,0.0,2.0009,2.0379,2.0229,0.0,0.0,2.0304,2.0304,2.0304,2.0304,2.0304,2.0304,2.0304,2.0304,2.0304,2.0135,1.9965,1.9746,1.9271,1.9072,1.9057,1.8331,1.7715,1.7222,1.7024,1.7147,1.75,1.8115,1.8857,1.971,2.0508,2.0926,2.1135,2.1554,2.1777,2.1857,2.172,2.1083,2.0223,1.9677,1.9572,1.9488,1.8747,1.8576,1.8504,1.7963,1.7811,1.776,1.7574,1.716,1.6723,1.6537,1.5965,1.5304,1.4706,1.4434,1.4127,1.3582,1.3495,1.3511,1.3479,1.3591,1.3665,1.3665,1.3798,1.387,1.3768,1.3959,1.4028,1.3899,1.4193,1.4356,1.4255,1.4338,1.4399,1.4399,1.4459,1.4489,1.4501,1.4483,1.4476,1.4506,1.4476,1.4476,1.4476,1.4533,1.4603,1.469,1.4757,1.4859,2.0077,2.1022,2.1786,2.2209,2.2167,2.1814,2.0994,2.0188,1.8913,1.6429,1.5906,0.0,1.3095,1.4158,0.0,0.0,0.0,0.0,2.0733,2.1113,2.115,0.0,2.0579,0.0,2.0662,2.0494,2.0407,0.0,2.0373,2.0339,2.0339,2.0339,2.0339,2.0407,2.0339,2.0339,2.0407,2.0407,2.0407,2.0392,2.0053,1.99,1.9884,1.9168,1.8641,1.8253,1.7602,1.748,1.7774,1.7927,1.8361,1.9092,1.9988,2.048,2.0763,2.1529,2.1895,2.2113,2.2415,2.2061,2.1395,2.0771,2.0586,2.0433,1.9687,1.9229,1.8873,1.8472,1.8133,1.7895,1.7895,1.7594,1.7331,1.7331,1.6789,1.606,1.5255,1.4828,1.4401,1.3729,1.3544,1.3511,1.3592,1.3713,1.3833,1.3833,1.4015,1.4162,1.4162,1.418,1.4159,1.4042,1.4288,1.4405,1.4331,1.4405,1.4453,1.4453,1.4483,1.4494,1.4494,1.4506,1.4488,1.4488,1.4488,1.4488,1.4488,1.4563,1.4635,1.4738,1.4766,1.4883,2.1109,2.183,2.2349,2.2405,2.1844,2.1097,2.0374,1.8977,1.7228,1.5054,0.0,1.3129,1.1365,1.2491,1.4005,1.4938,0.0,1.8941,2.0217,2.0789,2.1054,2.0991,2.0697,2.0527,2.0494,2.0494,2.0494,2.0494,2.0475,2.0423,2.0407,2.0407,2.0441,2.0494,2.0441,2.0441,2.0494,2.0494,2.0494,2.0494,2.061,2.066,2.0662,2.0065,1.9751,1.9594,1.831,1.8046,1.8467,1.7922,1.8094,1.8734,1.9452,1.9909,2.0299,2.1264,2.1777,2.2101,2.2415,2.2542,2.2395,2.1693,2.1462,2.1309,2.0577,1.9811,1.9141,1.9109,1.8569,1.8005,1.8005,1.8005,1.8005,1.8005,1.7531,1.685,1.6043,1.529,1.4607,1.4085,1.3901,1.3834,1.3872,1.4035,1.4129,1.405,1.4301,1.4488,1.4488,1.4356,1.4237,1.4237,1.4399,1.4501,1.4501,1.4494,1.4488,1.4488,1.4488,1.4488,1.4488,1.4488,1.4488,1.4488,1.4488,1.4488,1.4488,1.4618,1.4705,1.4785,1.4865,1.5022,2.1765,2.2307,2.2685,2.291,2.2359,2.1411,2.0044,1.8036,0.0,0.0,1.2424,1.1475,0.9991,1.1637,1.3513,1.4407,0.0,0.0,0.0,0.0,2.046,0.0,0.0,0.0,0.0,2.0494,0.0,0.0,2.0577,2.0577,2.0494,2.0494,2.0494,2.0494,2.0494,2.0494,2.0494,2.0494,2.0494,2.0494,2.0527,2.0527,2.0527,2.0403,2.0077,1.953,1.9248,1.889,1.8546,1.9076,1.9374,1.9578,2.0607,2.1052,2.1238,2.1857,2.2169,2.236,2.2579,2.2659,2.2615,2.2388,2.2283,2.2146,2.1421,2.0636,1.986,1.9286,1.8569,1.8005,1.8005,1.8048,1.8091,1.8091,1.8027,1.7738,1.6947,1.6207,1.5639,1.5538,1.5502,1.5331,1.4859,1.4909,1.4827,1.4319,1.4393,1.4488,1.4488,1.4464,1.4441,1.4441,1.4494,1.4506,1.4506,1.4506,1.4488,1.4488,1.4488,1.4488,1.4488,1.4488,1.4488,1.4488,1.4488,1.4488,1.4488,1.4511,1.4607,1.4724,1.4794,1.5261,2.2231,2.2677,2.2927,2.2884,2.2021,2.069,1.8915,0.0,0.0,0.0,1.1384,1.0766,0.9571,0.0,0.0,0.0,0.0,0.0,0.0,0.0,0.0,0.0,0.0,0.0,0.0,2.0662,2.0662,2.0662,2.0711,2.0711,2.061,2.0628,2.0628,2.061,2.0628,2.0662,2.0662,2.0662,2.0662,2.0662,2.0662,2.0662,2.0662,2.0662,2.0572,2.0432,2.005,1.9759,1.9644,1.9673,1.9719,1.9783,2.0659,2.1009,2.1147,2.1916,2.2237,2.2326,2.2605,2.2712,2.2685,2.2605,2.2579,2.25,2.2124,2.149,2.0719,1.9973,1.9258,1.8589,1.8211,1.813,1.8151,1.8151,1.7862,1.7466,1.7087,1.6415,1.5899,1.5899,1.5899,1.5851,1.566,1.5736,1.5765,1.5592,1.5658,1.5753,1.5753,1.5753,1.5423,1.4579,1.4488,1.4488,1.4488,1.4488,1.4488,1.4488,1.4488,1.4488,1.4488,1.4488,1.4488,1.4488,1.4488,1.4488,1.4488,1.4921,1.5182,1.5343,1.587,1.6356,2.2358,2.282,2.3067,2.2935,2.1766,2.0117,1.8075,1.6155,0.0,0.0,1.0658,1.0304,0.9492,0.0,0.0,0.0,0.0,0.0,0.0,0.0,0.0,0.0,0.0,0.0,0.0,2.0794,0.0,2.0794,2.0794,2.0777,2.0711,2.0777,2.0777,2.0711,2.0761,2.0794,2.0794,2.0794,2.0827,2.0893,2.0893,2.0958,2.1007,2.1007,2.1151,2.137,2.0798,2.0685,2.0893,2.0389,2.0157,2.0206,2.0794,2.1011,2.115,2.1989,2.232,2.2347,2.2615,2.2712,2.2712,2.2712,2.2659,2.2605,2.2605,2.2108,2.1412,2.0825,1.9998,1.9171,1.8586,1.8331,1.8211,1.8211,1.7707,1.7259,1.7259,1.6794,1.6381,1.6381,1.6381,1.6424,1.6466,1.6565,1.6673,1.6737,1.6835,1.6908,1.6908,1.6908,1.6413,1.5148,1.5001,1.5001,1.5001,1.5001,1.4928,1.4774,1.4909,1.4928,1.4774,1.4909,1.5001,1.5001,1.5001,1.5001,1.5019,1.5655,1.6018,1.6133,1.6911,1.7385,2.1978,2.2582,2.3183,2.3455,2.2357,2.0657,1.8447,0.0,0.0,1.1275,1.0211,0.9656,0.951,1.0103,0.0,0.0,0.0,1.5506,0.0,0.0,0.0,0.0,0.0,0.0,2.0827,2.0794,2.0794,2.0794,2.0794,2.0794,2.0794,2.0794,2.0794,2.0794,2.0794,2.0794,2.0794,2.0794,2.0958,2.1246,2.1246,2.1402,2.1691,2.1691,2.1721,2.1751,2.1685,2.1681,2.1711,2.1645,2.1628,2.1657,2.1933,2.2062,2.2107,2.25,2.2642,2.2659,2.2685,2.2712,2.2712,2.2712,2.2685,2.2685,2.2685,2.2169,2.1566,2.1522,2.0435,1.9275,1.9206,1.8689,1.8211,1.8211,1.8138,1.8086,1.8086,1.8056,1.8004,1.8004,1.8004,1.7847,1.7453,1.7381,1.7283,1.6931,1.6876,1.6908,1.6908,1.6908,1.6835,1.6707,1.6688,1.6688,1.6688,1.6688,1.6358,1.5637,1.6266,1.634,1.5619,1.6285,1.6688,1.6688,1.6688,1.6688,1.6688,1.6743,1.6798,1.6812,1.7009,1.7523,2.1939,2.293,2.3606,2.3468,2.2016,2.0029,1.7648,0.0,1.2806,1.0603,0.9842,0.9565,0.9457,1.0006,1.0732,0.0,0.0,0.0,0.0,0.0,0.0,0.0,0.0,0.0,0.0,0.0,2.0844,2.0794,2.0794,2.0893,2.1087,2.0893,2.0794,2.0794,2.0794,2.0893,2.1087,2.1087,2.1277,2.1617,2.1617,2.1678,2.1797,2.1797,2.1899,2.2039,2.2039,2.2141,2.2343,2.2343,2.2343,2.2343,2.2463,2.249,2.2517,2.2642,2.2712,2.2712,2.2712,2.2712,2.2712,2.2712,2.2712,2.2712,2.2712,2.2479,2.2177,2.1729,2.116,2.0487,1.9533,1.8741,1.8211,1.8211,1.8211,1.8211,1.8211,1.8211,1.8253,1.836,1.8383,1.838,1.8394,1.8409,1.8384,1.8361,1.8335,1.8335,1.8335,1.8335,1.8335,1.8335,1.7477,1.6908,1.6908,1.6908,1.6762,1.6431,1.6725,1.6762,1.6431,1.6725,1.6908,1.6908,1.6908,1.6908,1.6908,1.7385,1.7624,1.7638,1.8268,1.8705,2.0938,2.219,2.3046,2.2723,2.1202,1.9164,0.0,1.4571,1.236,1.0162,0.9665,0.9583,0.943,0.9828,1.0436,1.1261,0.0,1.3409,1.5864,0.0,0.0,0.0,0.0,2.0368,0.0,2.0943,2.0909,2.0958,2.0958,2.1087,2.1433,2.123,2.1039,2.0958,2.099,2.1087,2.1309,2.1402,2.1601,2.1911,2.1911,2.1986,2.2089,2.2089,2.2186,2.2347,2.2347,2.249,2.2712,2.2712,2.2712,2.2712,2.2712,2.2712,2.2712,2.2712,2.2712,2.2712,2.2712,2.2712,2.2712,2.2712,2.2712,2.2712,2.2712,2.2712,2.2556,2.1815,2.128,2.0625,1.9381,1.8676,1.8298,1.8363,1.8383,1.8383,1.8383,1.8383,1.8423,1.8563,1.8582,1.8678,1.8947,1.9014,1.9064,1.9274,1.9305,1.9305,1.9305,1.9305,1.9305,1.9305,1.8298,1.7605,1.7605,1.7605,1.7513,1.7275,1.7477,1.7495,1.7257,1.7477,1.7605,1.7605,1.7605,1.7605,1.7605,1.8188,1.8445,1.8463,1.9132,1.9458,1.8537,1.9852,2.1043,2.1105,1.9967,1.8268,0.0,1.4296,1.236,1.0162,0.9698,0.9644,0.9439,0.9412,0.986,1.1174,1.2131,0.0,1.6572,0.0,0.0,0.0,0.0,1.9783,2.0251,2.067,2.1007,2.1277,2.1277,2.1433,2.1797,2.1781,2.1648,2.1325,2.1371,2.1355,2.1309,2.1648,2.194,2.2192,2.2192,2.2364,2.2685,2.2685,2.2685,2.2685,2.2685,2.2712,2.2712,2.2712,2.2712,2.2712,2.2712,2.2712,2.2712,2.2712,2.2712,2.2712,2.2712,2.2712,2.2712,2.2712,2.2712,2.2712,2.2712,2.2712,2.2556,2.1815,2.0481,1.9203,1.8653,1.8502,1.8544,1.8734,1.8789,1.8789,1.8789,1.8789,1.8789,1.8789,1.8789,1.8843,1.8981,1.9014,1.9064,1.9274,1.9305,1.9305,1.9305,1.9305,1.9305,1.9305,1.9305,1.9286,1.9286,1.9286,1.8941,1.8151,1.8831,1.8922,1.8115,1.8849,1.9286,1.9286,1.9286,1.9286,1.9286,1.9271,1.9305,1.9305,1.9305,1.9361,1.6577,1.7812,1.8868,1.8194,1.7356,1.6173,1.4227,1.3061,1.1872,1.0076,0.9698,0.9644,0.9439,0.9439,1.0102,1.2045,1.2639,0.0,0.0,0.0,0.0,0.0,2.0976,2.143,0.0,0.0,2.1182,2.1039,2.123,2.1448,2.1584,2.1464,2.1481,2.1648,2.1661,2.1735,2.1924,2.201,2.2226,2.2544,2.2544,2.2588,2.2712,2.2712,2.2712,2.2712,2.2712,2.2712,2.2712,2.2712,2.2712,2.2712,2.2712,2.2712,2.2712,2.2712,2.2712,2.2712,2.2712,2.2712,2.2712,2.2712,2.2712,2.2712,2.2712,2.2712,2.266,2.2436,2.1238,2.005,2.0014,1.9275,1.8544,1.8752,1.8789,1.8789,1.8789,1.8789,1.8825,1.893,1.8948,1.8981,1.9162,1.9212,1.9227,1.9289,1.9305,1.9305,1.9305,1.9305,1.9305,1.9305,1.9305,1.9305,1.9305,1.9305,1.9179,1.8941,1.9161,1.9179,1.8922,1.9161,1.9305,1.9305,1.9338,1.9357,1.9357,1.942,1.9435,1.9435,1.9481,1.9495,0.0,1.564,1.6488,1.5857,1.5189,1.4308,1.2907,1.2105,1.1287,0.9974,0.9698,0.9641,0.9474,0.9473,1.0132,1.2068,1.2412,0.0,0.0,0.0,0.0,2.0255,0.0,0.0,0.0,2.1332,2.1524,2.1399,2.1507,2.1645,2.1777,2.157,2.1601,2.194,2.1899,2.1969,2.2192,2.232,2.249,2.2712,2.2712,2.2712,2.2712,2.2712,2.2712,2.2712,2.2712,2.2712,0.0,2.2712,2.2712,2.2712,2.2712,2.2712,2.2712,2.2712,2.2712,2.2712,2.2712,2.2712,2.2712,2.2712,2.2712,2.2712,2.2712,2.2522,2.2298,2.2298,2.1458,2.061,2.0793,2.0235,1.9682,1.9867,1.9921,1.9921,1.9921,1.9921,1.9866,1.9625,1.9568,1.951,1.9329,1.9305,1.9305,1.9305,1.9305,1.9305,1.9305,1.9305,1.9305,1.9305,1.9323,1.9338,1.9338,1.9305,1.9305,1.9338,1.9305,1.9323,1.9372,1.9338,1.9305,1.9372,1.939,1.9405,1.9438,1.9468,1.9501,1.9501,1.9546,1.9532,0.0,1.3341,1.3961,1.3889,1.3359,1.2679,1.2074,1.1397,0.0,0.9864,0.9698,0.9693,0.9686,0.9633,1.0123,1.1714,1.2031,0.0,0.0,1.8141,0.0,0.0,2.167,0.0,2.0775,2.1454,2.1998,2.2136,2.1998,2.1969,2.2181,2.1998,2.1998,2.2209,2.2096,2.2113,2.222,2.2544,2.2712,2.2712,2.2712,2.2712,2.2712,2.2712,2.2712,2.2712,2.2712,2.2712,2.2712,2.2712,2.2712,2.2712,2.2712,2.2712,2.2712,2.2712,2.2712,2.2712,2.2712,2.2712,2.2712,2.2712,2.2712,2.2712,2.2712,2.2229,2.1677,2.1702,2.1307,2.0929,2.1138,2.1342,2.1552,2.1751,2.1803,2.1803,2.1803,2.1803,2.1547,2.0758,2.0576,2.0372,1.9617,1.9488,1.9488,1.947,1.947,1.947,1.947,1.947,1.947,1.947,1.9537,1.9589,1.9589,1.9412,1.9375,1.9479,1.943,1.9482,1.9667,1.9552,1.9537,1.9667,1.9619,1.9619,1.9682,1.9627,1.959,1.959,1.9549,1.9497,1.0383,0.0,1.1533,1.0904,1.1086,1.1196,0.0,1.059,1.0673,0.0,0.0,1.0042,1.1131,1.0922,1.146,1.4247,0.0,0.0,1.8092,0.0,0.0,2.2038,2.2534,2.2491,2.167,2.2017,2.2118,2.1688,2.1853,2.194,2.1811,2.1768,2.1945,2.2332,2.2332,2.2415,2.2588,2.2659,2.2712,2.2712,2.2712,2.2712,2.2712,2.2712,2.2712,2.2712,2.2712,2.2712,2.2712,2.2764,2.2738,2.2712,2.2816,2.2816,2.279,2.279,2.2816,2.2842,2.279,2.2816,2.285,2.285,2.2816,2.279,2.279,2.2617,2.2479,2.2691,2.2212,2.1759,2.2147,2.1873,2.1552,2.1751,2.1803,2.1803,2.1803,2.1803,2.1748,2.1528,2.1492,2.1435,2.1248,2.1209,2.1228,2.1277,2.1295,2.1295,2.1295,2.1295,2.1295,2.1295,2.1295,2.1311,2.1311,2.0169,1.9726,2.0354,2.0372,2.0649,2.1309,2.1311,2.1311,2.1345,2.1361,2.1393,2.1424,2.0793,2.0496,2.0478,1.9921,1.9628,0.9699,1.0294,1.0875,1.081,1.0855,1.0874,1.0827,0.0,0.0,0.0,0.0,1.0066,1.1233,1.1367,0.0,0.0,1.5959,0.0,0.0,0.0,2.2824,2.2841,2.3093,2.2937,0.0,2.2343,2.2398,2.2084,2.2158,2.213,2.194,2.1899,2.2044,2.2354,2.2381,2.2508,2.2712,2.2712,2.2712,2.2712,2.2712,2.2712,2.2738,2.2738,2.2764,2.279,2.279,2.279,2.279,2.2842,2.2816,2.2816,2.2868,2.2893,2.2842,2.2842,2.2868,2.2876,2.2868,2.2868,2.2893,2.2893,2.2893,2.2842,2.2842,2.2816,2.2825,2.3042,2.2847,2.2696,2.312,2.2991,2.2757,2.2886,2.2904,2.2904,2.2904,2.2922,2.283,2.2461,2.2405,2.2276,2.1906,2.185,2.1867,2.1884,2.19,2.19,2.19,2.19,2.19,2.19,2.1935,2.1951,2.1951,2.1137,2.0822,2.1266,2.1272,2.1472,2.193,2.1916,2.19,2.1951,2.1983,2.1999,2.1996,2.1551,2.1346,2.1328,2.0951,2.0732,1.002,1.0668,1.1388,1.1811,1.1498,1.1286,1.1958,0.0,0.0,0.0,0.0,0.0,0.0,1.2017,0.0,0.0,0.0,0.0,2.1478,2.2832,2.3471,2.3306,2.3306,0.0,2.2371,2.2571,2.2712,2.2685,2.2579,2.2426,2.2265,2.2209,2.2237,2.2385,2.2439,2.2563,2.2738,2.2712,2.2712,2.2712,2.2712,2.2738,2.2816,2.2937,2.3041,2.3093,2.3215,2.3267,2.325,2.3128,2.3093,2.3076,2.2979,2.2902,2.2919,2.2919,2.2919,2.2944,2.2944,2.2944,2.2944,2.2944,2.2902,2.2919,2.2919,2.2919,2.291,2.3105,2.3277,2.3522,2.3917,2.4113,2.4228,2.4229,2.421,2.421,2.421,2.4266,2.41,2.3434,2.3286,2.3064,2.2399,2.227,2.2288,2.2305,2.2305,2.2305,2.2305,2.2305,2.2305,2.2305,2.2337,2.2388,2.2388,2.2386,2.2386,2.2388,2.2191,2.2173,2.2367,2.2337,2.2321,2.2388,2.2386,2.2367,2.2367,2.2256,2.2182,2.2182,2.2052,2.1996,1.1455,1.2401,1.2714,1.1413,1.1551,1.2022,1.2151,0.0,0.0,0.0,0.0,0.0,0.0,1.4852,1.5627,0.0,0.0,2.1674,0.0,0.0,2.3663,2.298,0.0,2.2885,2.2816,2.2825,2.2816,2.2632,2.2596,2.2579,2.2552,2.2525,2.2615,2.2799,2.2825,2.285,2.2868,2.2816,2.279,2.279,2.279,2.279,2.2834,2.3571,2.392,2.3955,2.4582,2.4833,2.4809,2.4235,2.3973,2.385,2.329,2.3028,2.2977,2.2977,2.302,2.307,2.307,2.307,2.307,2.307,2.3045,2.2977,2.2977,2.2944,2.2952,2.3277,2.345,2.3649,2.3996,2.419,2.4266,2.4284,2.4284,2.4284,2.4284,2.4284,2.4248,2.4155,2.4118,2.4081,2.4042,2.4024,2.4041,2.4075,2.4111,2.4111,2.4111,2.4111,2.4111,2.4111,2.4111,2.4111,2.4111,2.4128,2.4128,2.4128,2.3407,2.3351,2.4091,2.4111,2.4111,2.4111,2.4128,2.4128,2.4109,2.3386,2.3017,2.2998,2.2312,2.1996,1.0726,1.1798,1.2688,1.2382,1.3271,1.4278,1.4666,0.0,0.0,0.0,0.0,0.0,0.0,0.0,1.7572,2.0566,0.0,2.2863,2.3911,2.3676,2.3267,0.0,2.285,2.2868,2.2893,2.2893,2.2868,2.2764,2.279,2.2816,2.2764,2.2842,2.2893,2.2944,2.3422,2.3675,2.3675,2.3999,2.3928,2.3519,2.3919,2.411,2.4155,2.4557,2.4785,2.483,2.5162,2.532,2.5285,2.4979,2.4839,2.4777,2.4462,2.4322,2.4296,2.4296,2.4322,2.4295,2.3892,2.4015,2.4295,2.3874,2.3726,2.3708,2.3841,2.3565,2.3366,2.4123,2.397,2.3692,2.3999,2.421,2.4321,2.4339,2.4358,2.4358,2.4358,2.4375,2.4411,2.4411,2.4411,2.4411,2.4447,2.4447,2.4465,2.45,2.45,2.45,2.45,2.45,2.45,2.45,2.45,2.45,2.45,2.45,2.45,2.45,2.4111,2.4074,2.4481,2.45,2.4515,2.4615,2.4615,2.4645,2.4719,2.4309,2.4076,2.4001,2.3716,2.3487,1.031,1.1265,1.2492,1.3754,0.0,1.5899,1.6975,0.0,0.0,0.0,0.0,0.0,0.0,1.8274,0.0,2.2786,2.3265,2.3466,2.4034,2.3572,2.3136,2.2962,2.2902,2.2944,2.2944,2.2944,2.2944,2.2944,2.2977,2.2995,2.2944,2.3028,2.3165,2.3307,2.3936,2.4392,2.4567,2.5242,2.5187,2.44,2.4931,2.5237,2.531,2.5512,2.5627,2.57,2.5858,2.5946,2.5928,2.5752,2.5682,2.5665,2.5472,2.5401,2.5401,2.5401,2.5401,2.5331,2.4734,2.4963,2.5403,2.4847,2.4703,2.4761,2.4939,2.458,2.4307,2.5125,2.4853,2.4306,2.4388,2.4376,2.4358,2.4412,2.443,2.443,2.443,2.4465,2.45,2.45,2.45,2.45,2.45,2.45,2.45,2.45,2.45,2.45,2.45,2.45,2.45,2.45,2.45,2.45,2.45,2.45,2.45,2.45,2.45,2.45,2.45,2.45,2.4549,2.4645,2.4692,2.4749,2.4847,2.4888,2.4847,2.4749,2.4847,2.479,1.1734,1.2162,1.2771,1.5147,1.5258,0.0,1.7677,1.7529,0.0,1.8901,0.0,0.0,0.0,2.1316,2.2665,2.4225,2.4375,2.4259,2.42,0.0,2.3824,2.3065,2.2977,2.302,2.3095,2.3095,2.3095,2.3095,2.3095,2.3095,2.3095,2.3077,2.3453,2.4173,2.4269,2.4611,2.5314,2.6093,2.6065,2.5205,2.5275,2.5292,2.5327,2.6135,2.6497,2.656,2.7245,2.7526,2.7473,2.6806,2.6525,2.6455,2.57,2.5401,2.5401,2.5401,2.5401,2.5401,2.5349,2.5517,2.5765,2.5711,2.5871,2.6082,2.6082,2.6068,2.6032,2.6109,2.6242,2.6209,2.5498,2.4912,2.4482,2.45,2.45,2.45,2.45,2.45,2.45,2.45,2.45,2.45,2.45,2.45,2.45,2.45,2.45,2.45,2.45,2.45,2.45,2.45,2.45,2.45,2.45,2.45,2.45,2.45,2.45,2.45,2.45,2.45,2.45,2.4517,2.4647,2.4707,2.4704,2.4832,2.4902,2.4888,2.4902,2.4888,1.0665,1.189,1.3346,1.4794,1.5685,0.0,0.0,1.952,2.0351,2.1477,2.1986,0.0,0.0,0.0,2.3392,2.4421,2.4063,2.3809,2.4208,2.3831,2.3385,2.3105,2.307,2.307,2.3095,2.3095,2.3095,2.3095,2.3095,2.3095,2.3095,2.3095,2.347,2.4269,2.4734,2.5366,2.6156,2.6911,2.7139,2.6795,2.6795,2.6795,2.6812,2.7139,2.728,2.7297,2.7578,2.7701,2.7683,2.7403,2.728,2.7262,2.6946,2.6919,2.7067,2.7067,2.7184,2.7269,2.6803,2.6997,2.7403,2.6934,2.6862,2.6981,2.7082,2.6798,2.6567,2.7211,2.7091,2.6706,2.6272,2.6058,2.5987,2.5987,2.5615,2.5243,2.5243,2.4853,2.45,2.45,2.45,2.45,2.45,2.45,2.45,2.45,2.4927,2.5076,2.4555,2.4946,2.5057,2.4555,2.45,2.45,2.45,2.45,2.45,2.45,2.45,2.45,2.45,2.45,2.4549,2.4626,2.4719,2.4847,2.5019,2.5111,2.5134,2.5091,2.5171,2.5126,1.0313,1.1663,1.3402,0.0,0.0,0.0,1.9741,2.0886,2.1922,2.3437,2.4115,0.0,0.0,0.0,0.0,0.0,2.3892,2.3675,2.39,2.3453,2.3095,2.3095,2.3095,2.3095,2.3095,2.3095,2.3095,2.3095,2.3095,2.3095,2.3095,2.3348,2.3839,2.4611,2.5384,2.6156,2.6946,2.7455,2.7701,2.7701,2.7701,2.7701,2.7701,2.7701,2.7701,2.7701,2.7701,2.7701,2.7701,2.7701,2.7742,2.7829,2.7829,2.7992,2.8219,2.8219,2.835,2.8431,2.7931,2.8161,2.8555,2.8069,2.7953,2.8068,2.8184,2.788,2.7627,2.8326,2.8124,2.7657,2.7516,2.7189,2.6916,2.6916,2.6488,2.608,2.608,2.5652,2.5262,2.5262,2.5262,2.5262,2.5262,2.5262,2.5262,2.5262,2.5726,2.5875,2.5336,2.5745,2.5875,2.5354,2.5279,2.5316,2.5333,2.5314,2.5314,2.5314,2.5314,2.5185,2.4907,2.5132,2.533,2.5458,2.5563,2.5715,2.5922,2.606,2.5976,2.5677,2.5764,2.5563,1.1194,1.1693,0.0,0.0,0.0,0.0,2.1272,2.1402,2.1708,2.48,0.0,2.5303,2.496,2.5089,0.0,2.367,2.4052,2.4148,2.3225,2.3095,2.3095,2.3095,2.3095,2.3095,2.3095,2.3095,2.3095,2.3095,2.3095,2.3095,2.3119,2.3857,2.4629,2.5384,2.6191,2.6964,2.7683,2.7701,2.7701,2.7701,2.7701,2.7701,2.7701,2.7701,2.7701,2.7701,2.7701,2.7701,2.7701,2.7683,2.7869,2.8102,2.8084,2.8272,2.8485,2.8485,2.8504,2.8529,2.8529,2.8737,2.9003,2.9003,2.9178,2.9407,2.9407,2.9407,2.9407,2.9407,2.9407,2.9407,2.9407,2.818,2.6935,2.6935,2.6935,2.6916,2.6916,2.6916,2.6916,2.6916,2.6916,2.6916,2.6916,2.6916,2.6916,2.6916,2.6916,2.6916,2.6916,2.6916,2.6935,2.6991,2.6991,2.7046,2.7082,2.7101,2.7101,2.7101,2.7101,2.6728,2.5854,2.6507,2.6954,2.7101,2.7308,2.7419,2.7494,2.7772,2.7489,2.6698,2.6708,2.6264,1.12,1.2555,0.0,0.0,0.0,0.0,0.0,2.3126,0.0,0.0,2.6768,2.6512,2.5805,2.5177,0.0,2.3625,2.3567,2.3481,2.3154,2.3095,2.3095,2.3095,2.3095,2.3095,2.3095,2.3095,2.3095,2.3095,2.3095,2.3348,2.3909,2.4181,2.4919,2.6209,2.649,2.6964,2.7683,2.7701,2.7701,2.7701,2.7701,2.7701,2.7701,2.7701,2.7701,2.7701,2.7701,2.7701,2.7713,2.7897,2.802,2.8129,2.8324,2.8572,2.885,2.885,2.8984,2.9119,2.9119,2.92,2.9283,2.9283,2.9344,2.9407,2.9407,2.9407,2.9407,2.9407,2.9407,2.9407,2.9407,2.9035,2.8663,2.8663,2.8199,2.7733,2.7733,2.7306,2.6916,2.6916,2.6916,2.6916,2.6916,2.6916,2.6916,2.6916,2.7381,2.7733,2.7733,2.7251,2.6916,2.6935,2.6972,2.7009,2.7028,2.7064,2.7101,2.7101,2.7624,2.7568,2.6747,2.6915,2.7064,2.7099,2.725,2.7396,2.75,2.7668,2.7698,2.7557,2.7594,2.7486,1.2451,0.0,0.0,0.0,0.0,0.0,2.3172,0.0,0.0,0.0,0.0,2.6968,2.6029,2.5444,0.0,2.3578,2.3543,2.3545,2.3154,2.3095,2.3095,2.3095,2.3095,2.3095,2.3095,2.3095,2.3095,2.3095,2.3095,2.3453,2.4269,2.4585,2.5296,2.6578,2.6894,2.7262,2.7701,2.7701,2.7701,2.7701,2.7701,2.7701,2.7701,2.7701,2.7701,2.7701,2.7701,2.7701,2.773,2.7933,2.8083,2.8219,2.8489,2.8755,2.9067,2.9134,2.9262,2.9407,2.9407,2.9407,2.9407,2.9407,2.9407,2.9407,2.9407,2.9407,2.9407,2.9407,2.9407,2.9407,2.9407,2.9407,2.9407,2.9407,2.8998,2.8626,2.8626,2.8254,2.7901,2.7901,2.7901,2.7883,2.7902,2.7902,2.7902,2.7941,2.8331,2.8628,2.8648,2.8219,2.7922,2.7979,2.7998,2.8035,2.8073,2.811,2.8128,2.8128,2.8596,2.8633,2.8147,2.8072,2.8091,2.8126,2.8248,2.8348,2.8442,2.8605,2.8572,2.8373,2.8415,2.8269,1.4287,0.0,0.0,0.0,0.0,0.0,2.3732,2.5226,2.6159,2.6039,0.0,2.6931,2.5799,2.5743,2.5276,2.3488,2.3816,2.4003,2.3207,2.3095,2.3095,2.3095,2.3095,2.3095,2.3095,2.3095,2.3095,2.3095,2.3095,2.3453,2.4269,2.4998,2.577,2.6578,2.7315,2.7701,2.7701,2.7701,2.7701,2.7701,2.7701,2.7701,2.7701,2.7701,2.7701,2.7701,2.7701,2.7701,2.7701,2.7882,2.8099,2.8335,2.8644,2.891,2.9152,2.9326,2.9407,2.9407,2.9407,2.9407,2.9407,2.9407,2.9407,2.9407,2.9407,2.9407,2.9407,2.9407,2.9407,2.9407,2.9407,2.9407,2.9407,2.9407,2.9388,2.9407,2.9407,2.9388,2.9407,2.9407,2.9388,2.9409,2.9412,2.9412,2.9433,2.9492,2.9453,2.9433,2.9492,2.9453,2.9471,2.9569,2.9588,2.9607,2.9683,2.9683,2.9701,2.9701,2.9701,2.9701,2.9701,2.9589,2.9569,2.9701,2.977,2.982,2.9872,3.0071,2.9826,2.9183,2.9179,2.8849,0.0,1.4907,0.0,0.0,0.0,0.0,2.41,2.4704,2.5348,2.581,2.6934,2.7351,2.58,2.5561,2.5049,2.3464,2.3309,2.3295,2.3137,2.3095,2.3095,2.3095,2.3095,2.3095,2.3095,2.3095,2.3095,2.3095,2.3095,2.3453,2.4269,2.4998,2.577,2.6578,2.7315,2.7701,2.7701,2.7701,2.7701,2.7701,2.7701,2.7701,2.7701,2.7701,2.7701,2.7701,2.7701,2.7701,2.7713,2.8183,2.8394,2.8522,2.903,2.9283,2.9344,2.9386,2.9407,2.9407,2.9407,2.9407,2.9407,2.9407,2.9407,2.9407,2.9407,2.9407,2.9407,2.9411,2.9392,2.9412,2.9453,2.9491,2.9491,2.9491,2.9451,2.9392,2.9392,2.9451,2.9491,2.9491,2.9451,2.9431,2.9472,2.9433,2.9412,2.949,2.9491,2.9472,2.949,2.9488,2.9488,2.9528,2.9511,2.9531,2.955,2.9645,2.9701,2.9701,2.9701,2.9701,2.9701,2.9664,2.9664,2.9701,2.9699,2.9716,2.9734,2.9937,2.995,2.9799,2.9895,2.9932,0.0,0.0,0.0,0.0,0.0,0.0,2.4247,2.4618,2.5028,2.5297,2.648,2.7226,2.6375,2.6154,2.5579,2.3978,2.3706,2.3541,2.3154,2.3095,2.3095,2.3095,2.3095,2.3095,2.3095,2.3095,2.3095,2.3095,2.3095,2.3611,2.4752,2.5191,2.5928,2.7087,2.749,2.7701,2.7701,2.7701,2.7701,2.7701,2.7701,2.7701,2.7701,2.7701,2.7701,2.7701,2.7701,2.7701,2.773,2.811,2.8326,2.8438,2.8915,2.9156,2.9262,2.9347,2.9407,2.9407,2.9407,2.9407,2.9407,2.9407,2.9407,2.9407,2.9407,2.9407,2.9388,2.9392,2.9412,2.9412,2.9472,2.9492,2.9492,2.9492,2.9472,2.9453,2.9453,2.9472,2.9492,2.9492,2.9472,2.9472,2.9531,2.955,2.9569,2.9607,2.9569,2.9569,2.9607,2.9568,2.9568,2.9587,2.9607,2.9607,2.9607,2.9664,2.9701,2.9701,2.9701,2.9701,2.9701,2.9701,2.9701,2.9701,2.9701,2.9701,2.9682,2.9806,2.9888,2.995,3.006,3.0174,0.0,0.0,0.0,0.0,0.0,0.0,2.4284,2.4591,2.4853,2.495,2.59,2.6685,2.6569,2.6526,2.602,2.4532,2.4304,2.4075,2.34,2.3207,2.3095,2.3095,2.3095,2.3095,2.3095,2.3095,2.3095,2.3095,2.3095,2.3734,2.5138,2.5331,2.6051,2.7473,2.7631,2.7701,2.7701,2.7701,2.7701,2.7701,2.773,2.776,2.7789,2.7789,2.776,2.7701,2.7701,2.7701,2.773,2.795,2.8164,2.8353,2.8743,2.8998,2.9152,2.9347,2.9427,2.9427,2.9427,2.9427,2.9427,2.9427,2.9427,2.9427,2.9427,2.9427,2.9409,2.9431,2.9433,2.9453,2.9531,2.9531,2.9531,2.9531,2.9531,2.9512,2.9512,2.9531,2.9531,2.9531,2.9531,2.955,2.9588,2.9664,2.9701,2.9701,2.9645,2.9626,2.9683,2.9645,2.9626,2.9683,2.9701,2.9701,2.9701,2.9701,2.9701,2.9701,2.9701,2.9701,2.9701,2.9701,2.9701,2.9701,2.9701,2.9701,2.9701,2.97,2.9753,2.9872,2.9924,3.0034,0.0,0.0,0.0,0.0,0.0,0.0,0.0,0.0,2.4426,0.0,2.5823,2.5775,2.4923,2.5253,2.5359,2.4444,2.4304,2.4269,2.4163,2.3541,2.3095,2.3095,2.3095,2.3095,2.3095,2.3095,2.3095,2.3095,2.3095,2.3488,2.4409,2.505,2.5823,2.6736,2.7368,2.7701,2.7701,2.7701,2.7701,2.7701,2.7882,2.8025,2.8146,2.8146,2.7961,2.7701,2.7701,2.7701,2.773,2.8156,2.8362,2.8422,2.9021,2.924,2.9283,2.9431,2.9491,2.9491,2.9491,2.9491,2.9491,2.9491,2.9491,2.9491,2.9491,2.9491,2.9511,2.9569,2.9569,2.9588,2.9645,2.9664,2.9664,2.9664,2.9664,2.9645,2.9607,2.9626,2.9664,2.9664,2.9664,2.9645,2.9607,2.9664,2.9701,2.9701,2.9701,2.9701,2.9701,2.9701,2.9701,2.9701,2.9701,2.9701,2.9701,2.9701,2.9701,2.9701,2.9701,2.9701,2.9701,2.9701,2.9701,2.9701,2.9701,2.9701,2.9701,2.9701,2.9719,2.9735,2.9735,2.9839,1.3142,0.0,0.0,0.0,0.0,0.0,2.3785,0.0,2.4376,2.4783,2.486,2.4956,2.538,2.5611,2.5417,2.4504,2.4329,2.4146,2.3681,2.333,2.3095,2.3095,2.3095,2.3095,2.3095,2.3095,2.3095,2.3095,2.3095,2.3628,2.484,2.5226,2.5963,2.7174,2.7526,2.7701,2.7701,2.7701,2.776,2.7864,2.8035,2.8119,2.8201,2.8201,2.8119,2.7961,2.7961,2.7961,2.7989,2.8255,2.8448,2.8664,2.9003,2.9243,2.9411,2.9472,2.9492,2.9492,2.9492,2.9492,2.9492,2.9492,2.9492,2.9492,2.9492,2.9492,2.9512,2.9588,2.9926,3.0301,3.0339,3.0715,3.0959,3.0678,3.0828,3.0959,3.062,3.0096,2.9701,2.9701,3.0058,3.0358,3.0339,3.049,3.0546,3.0396,2.9983,2.9701,2.9701,2.9701,2.987,3.0321,3.0377,3.0546,3.1016,3.0208,3.0077,3.0978,3.1034,3.1034,3.1034,3.1034,3.1034,3.1034,3.0152,2.9701,2.9701,2.9701,2.9701,2.9701,2.9701,2.9736,0.0,0.0,0.0,0.0,0.0,0.0,0.0,0.0,2.4163,0.0,2.4007,2.4381,2.5477,2.5607,2.5287,2.4519,2.4329,2.4093,2.3488,2.3242,2.3095,2.3095,2.3095,2.3095,2.3095,2.3095,2.3095,2.3095,2.3095,2.3699,2.505,2.5296,2.6043,2.7425,2.7643,2.7777,2.776,2.776,2.7893,2.8081,2.8191,2.8282,2.8388,2.8388,2.8396,2.8404,2.8282,2.8201,2.8201,2.8353,2.8551,2.8785,2.9007,2.9249,2.9472,2.9512,2.955,2.955,2.955,2.955,2.955,2.955,2.955,2.955,2.955,2.9681,2.9887,2.9926,3.0507,3.1145,3.1184,3.1654,3.1992,3.1598,3.1804,3.1992,3.1598,3.0865,3.0302,3.0302,3.079,3.1166,3.1034,3.1185,3.1278,3.1222,3.0696,3.0302,3.0302,3.0434,3.0772,3.1372,3.1316,3.1391,3.186,3.0922,3.0809,3.2011,3.2499,3.2611,3.2349,3.218,3.2105,3.2105,3.0922,3.0302,3.0302,3.0302,3.019,3.0002,3.0002,2.9889,0.0,0.0,0.0,0.0,0.0,0.0,0.0,0.0,2.3446,2.3361,2.3803,2.4153,2.4046,2.4329,2.4534,2.4423,2.4329,2.4286,2.4251,2.3576,2.3095,2.3095,2.3095,2.3095,2.3095,2.3095,2.3095,2.3095,2.3095,2.347,2.4321,2.5015,2.5842,2.6808,2.7529,2.7917,2.7968,2.7968,2.8109,2.8398,2.8398,2.8562,2.8863,2.8863,2.8938,2.902,2.8456,2.8201,2.8228,2.8543,2.8694,2.8743,2.9206,2.9392,2.9433,2.9626,2.9701,2.9701,2.9701,2.9701,2.9701,2.9701,2.9701,2.9701,2.9701,3.0208,3.0827,3.0827,3.141,3.2029,3.2048,3.2067,3.2086,3.2067,3.2086,3.2086,3.2067,3.2011,3.1973,3.1973,3.2011,3.1879,3.1372,3.1297,3.1466,3.1954,3.1992,3.1973,3.1973,3.248,3.2856,3.2893,3.2386,3.1842,3.1391,3.1729,3.2011,3.2086,3.3588,3.4001,3.3006,3.2405,3.2105,3.2105,3.2011,3.1973,3.1973,3.1973,3.1579,3.0847,3.0847,3.0434,0.0,0.0,0.0,0.0,1.8001,1.93,2.0367,2.1629,2.27,2.3143,2.3271,2.3415,2.3826,2.388,2.3803,2.3647,2.3573,2.3523,2.3523,2.3295,2.3095,2.3095,2.3095,2.3095,2.3095,2.3095,2.3095,2.3095,2.3095,2.3478,2.4396,2.5137,2.5968,2.689,2.769,2.8109,2.8136,2.8335,2.8492,2.8594,2.8755,2.8902,2.9034,2.9034,2.906,2.9086,2.886,2.8785,2.8808,2.8902,2.9034,2.9163,2.9332,2.9491,2.9607,2.9664,2.9701,2.9701,2.9701,2.9701,2.9701,2.9701,3.0058,3.0471,3.0471,3.1034,3.1673,3.1673,3.2292,3.2931,3.2931,3.3325,3.37,3.37,3.37,3.37,3.37,3.2856,3.2105,3.2105,3.2555,3.2818,3.2461,3.2968,3.3475,3.3682,3.37,3.3325,3.2236,3.2292,3.2649,3.3212,3.2912,3.2893,3.3381,3.3588,3.37,3.37,3.4264,3.4433,3.4038,3.3813,3.37,3.37,3.37,3.3175,3.2105,3.2105,3.1692,3.0884,3.0884,3.0471,1.0023,0.0,0.0,0.0,0.0,1.7415,1.9295,0.0,2.1171,2.221,2.2442,2.2665,2.3371,2.3274,2.3124,2.3188,2.3126,2.3095,2.3095,2.3095,2.3095,2.3095,2.3095,2.3095,2.3095,2.3095,2.3095,2.3095,2.3144,2.3446,2.4056,2.5098,2.6223,2.7415,2.7978,2.83,2.8282,2.8569,2.8718,2.8767,2.8993,2.9148,2.9191,2.9191,2.9251,2.9293,2.9293,2.9212,2.9104,2.9169,2.9272,2.9412,2.9472,2.9569,2.9701,2.9701,2.9701,2.9701,2.9701,2.987,3.0096,3.0096,3.0659,3.1316,3.1316,3.1879,3.2536,3.2536,3.3156,3.3794,3.3794,3.4207,3.4602,3.4602,3.4602,3.4602,3.4602,3.3719,3.2931,3.2931,3.3419,3.3757,3.3569,3.4132,3.4602,3.4602,3.4602,3.4189,3.3081,3.2931,3.3156,3.3738,3.3644,3.3832,3.4526,3.4602,3.4602,3.4602,3.4602,3.4602,3.4602,3.4602,3.447,3.4207,3.4189,3.3513,3.2105,3.2386,3.1973,3.0884,3.0884,3.0471,0.0,0.0,0.0,0.0,0.0,0.0,1.8718,0.0,1.8815,2.0508,2.1319,2.1915,2.2553,2.2443,2.246,2.3088,2.3151,2.3102,2.3102,2.3119,2.3102,2.3102,2.3102,2.3102,2.3102,2.3119,2.3102,2.3102,2.3241,2.3313,2.3313,2.4889,2.6583,2.821,2.838,2.8432,2.8518,2.8644,2.8791,2.8929,2.9056,2.923,2.9412,2.9412,2.9511,2.9701,2.9701,2.9472,2.9148,2.9332,2.9412,2.9433,2.9626,2.9701,2.9701,2.9701,2.9701,2.9701,2.972,3.0246,3.0884,3.0921,3.1485,3.2142,3.2142,3.2743,3.3438,3.3438,3.4001,3.4602,3.4602,3.4602,3.4602,3.4602,3.4602,3.4602,3.4602,3.4602,3.4602,3.4602,3.4602,3.4602,3.4602,3.4602,3.4602,3.4602,3.4602,3.4602,3.4602,3.4602,3.4602,3.4602,3.4602,3.4602,3.4602,3.4602,3.4583,3.4545,3.4545,3.4545,3.4526,3.4526,3.4151,3.3381,3.3362,3.2931,3.2067,3.2949,3.2518,3.0884,3.0865,3.0452,0.9047,0.0,0.0,0.0,0.0,0.0,0.0,0.0,1.7296,1.9497,2.0008,2.0462,2.1752,2.1806,2.1886,2.2653,2.3129,2.3389,2.3389,2.3513,2.3602,2.3602,2.3602,2.3602,2.3602,2.3473,2.3405,2.345,2.3412,2.343,2.3589,2.5175,2.658,2.7608,2.8379,2.8767,2.8791,2.9052,2.9228,2.9249,2.9453,2.9569,2.9626,2.9626,2.9645,2.9701,2.9701,2.9645,2.955,2.9589,2.9626,2.9626,2.9683,2.9701,2.9701,2.9701,2.9701,2.9777,3.0377,3.0715,3.1016,3.1579,3.2349,3.3043,3.3043,3.3625,3.4264,3.4264,3.4433,3.4602,3.4602,3.4602,3.4602,3.4602,3.4602,3.4602,3.4602,3.4602,3.4602,3.4602,3.4602,3.4602,3.4602,3.4602,3.4602,3.4602,3.4602,3.4602,3.4602,3.4602,3.4602,3.4602,3.4602,3.4602,3.4602,3.4602,3.4264,3.3494,3.3669,3.3521,3.2878,3.2899,3.2805,3.2539,3.2482,3.2048,3.1241,3.2067,3.1917,3.0884,3.0302,2.9908,0.0,0.0,0.0,0.0,0.0,0.0,1.5245,1.5384,1.5662,0.0,1.883,1.935,2.0531,2.0892,2.1261,2.2023,2.2761,2.335,2.3588,2.3732,2.3816,2.3837,2.3837,2.3837,2.384,2.3738,2.3674,2.3631,2.362,2.3804,2.4234,2.5488,2.6589,2.75,2.8419,2.8934,2.8984,2.9249,2.9412,2.9412,2.9589,2.9701,2.9701,2.9701,2.9701,2.9701,2.9701,2.9701,2.9701,2.9701,2.9701,2.9701,2.9701,2.9701,2.9739,3.0077,3.0208,3.0321,3.1128,3.1654,3.2029,3.2499,3.3212,3.3907,3.3907,3.4226,3.4602,3.4602,3.4602,3.4602,3.4602,3.4602,3.4602,3.4602,3.4602,3.4602,3.4602,3.4602,3.4602,3.4602,3.4602,3.4602,3.4602,3.4602,3.4602,3.4602,3.4602,3.4602,3.4602,3.4602,3.4602,3.4602,3.4602,3.4363,3.373,3.3673,3.3428,3.2806,3.294,3.2808,3.2298,3.2317,3.2184,3.1789,3.1732,3.1299,3.0489,3.1242,3.1185,3.0396,2.9927,2.9701,0.0,0.0,0.0,0.0,0.0,0.0,1.6148,1.5311,1.4466,0.0,1.7685,1.836,1.9027,1.9767,2.0499,2.1187,2.208,2.2923,2.3603,2.3803,2.3899,2.3978,2.3978,2.3979,2.3983,2.3945,2.3903,2.3756,2.3837,2.4184,2.4827,2.5624,2.6531,2.7537,2.8361,2.8911,2.9126,2.9332,2.9433,2.9433,2.9626,2.9701,2.9701,2.9701,2.9701,2.9701,2.9701,2.9701,2.9701,2.9701,2.9701,2.9701,2.9701,2.9701,2.9795,3.0603,3.0884,3.1034,3.1936,3.2762,3.3419,3.3513,3.402,3.4602,3.4602,3.4602,3.4602,3.4602,3.4602,3.4602,3.4602,3.4602,3.4602,3.4602,3.4602,3.4602,3.4602,3.4602,3.4602,3.4602,3.4602,3.4602,3.4602,3.4602,3.4602,3.4602,3.4602,3.4623,3.4604,3.4623,3.4602,3.4602,3.4604,3.3954,3.2294,3.2256,3.2313,3.2275,3.2275,3.2218,3.2142,3.2142,3.18,3.108,3.1061,3.0665,2.9888,3.0489,3.0415,2.9719,2.9719,2.9719,0.0,0.0,0.0,0.0,0.0,0.0,1.4773,1.5174,1.5941,0.0,1.6479,1.6776,1.7489,1.8279,1.9072,1.9931,2.0745,2.1705,2.2905,2.3824,2.4375,2.4392,2.4373,2.4391,2.4461,2.4356,2.4248,2.4097,2.3919,2.3889,2.4031,2.4791,2.5695,2.6695,2.7669,2.8556,2.9332,2.955,2.9645,2.9645,2.9664,2.9701,2.9701,2.9701,2.9701,2.9701,2.9701,2.9701,2.9701,2.9701,2.9701,2.9701,2.9701,2.9701,2.9795,3.0603,3.0884,3.1128,3.263,3.3269,3.3513,3.4151,3.447,3.4602,3.4602,3.4602,3.4602,3.4602,3.4602,3.4602,3.4602,3.4602,3.4602,3.4602,3.4602,3.4602,3.4602,3.4602,3.4602,3.4602,3.4602,3.4602,3.4602,3.4602,3.4602,3.4602,3.4602,3.4626,3.4751,3.4668,3.4602,3.4602,3.4751,3.3677,3.0798,3.1336,3.172,3.1459,3.1471,3.12,3.0503,3.0516,3.0456,3.0238,3.0118,2.999,2.982,2.9938,2.9956,2.9857,2.9805,2.9805,0.0,0.0,0.0,1.6669,0.0,0.0,0.0,1.604,1.6084,1.7303,1.6834,1.6572,1.7785,1.8331,1.873,1.9136,2.0183,2.1022,2.126,2.2473,2.3319,2.335,2.3347,2.3531,2.4008,2.3998,2.4066,2.4319,2.4154,2.4018,2.3937,2.4785,2.5672,2.6622,2.7596,2.8572,2.955,2.9645,2.9701,2.9701,2.9701,2.9701,2.9701,2.9701,2.9701,2.9701,2.9701,2.9701,2.9701,2.9701,2.9945,3.0302,3.0302,3.0302,3.0452,3.1692,3.2161,3.233,3.3569,3.4001,3.4057,3.447,3.4602,3.4602,3.4602,3.4602,3.4602,3.4602,3.4602,3.4602,3.4602,3.4602,3.4602,3.4602,3.4602,3.4602,3.4602,3.4602,3.4623,3.4687,3.4687,3.4666,3.4623,3.4647,3.4668,3.4623,3.4602,3.4647,3.4831,3.415,3.3942,3.4716,3.4093,3.2933,3.1157,3.0971,3.0883,3.0715,3.0727,3.0552,3.0117,3.0128,3.0128,3.0098,3.0034,2.9984,2.9984,2.9984,2.9969,2.9937,2.9888,2.9872,0.0,0.0,0.0,0.0,0.0,1.8035,0.0,0.0,0.0,0.0,0.0,0.0,0.0,0.0,0.0,1.8497,1.9647,2.0269,1.9406,2.0506,2.1564,2.1929,2.2116,2.2487,2.3205,2.3097,2.3337,2.4213,2.3986,2.3842,2.3838,2.4744,2.5725,2.678,2.7567,2.8521,2.9683,2.9701,2.9701,2.9701,2.9701,2.9701,2.9701,2.9701,2.9701,2.9701,2.9701,2.9701,2.9701,2.987,3.0321,3.0884,3.0884,3.0977,3.1335,3.2856,3.34,3.3531,3.432,3.4602,3.4602,3.4602,3.4602,3.4602,3.4602,3.4602,3.4602,3.4602,3.4602,3.4623,3.4645,3.4645,3.4645,3.4647,3.4647,3.4626,3.4645,3.4623,3.4722,3.5071,3.515,3.5054,3.4724,3.4751,3.4791,3.4668,3.4668,3.4751,3.4926,3.3927,3.3557,3.4598,3.3653,3.2699,3.21,3.1217,3.0643,3.0529,3.0472,3.0452,3.0452,3.028,3.0204,3.0204,3.0204,3.0357,3.0682,3.0682,3.0562,3.0358,3.0311,3.0352,0.0,0.0,0.0,0.0,2.1784,0.0,0.0,0.0,1.9452,1.8178,0.0,0.0,0.0,0.0,0.0,0.0,1.8422,1.8687,1.7861,1.8466,1.9524,2.0969,2.1779,2.2262,2.2417,2.1629,2.1742,2.3324,2.2601,2.2353,2.2922,2.3897,2.5152,2.6743,2.7009,2.7961,2.9683,2.9701,2.9701,2.9701,2.9701,2.9701,2.9701,2.9701,2.9701,2.9701,2.9701,2.9701,2.9758,3.0471,3.0828,3.0884,3.0884,3.1354,3.2086,3.3043,3.34,3.3531,3.432,3.4602,3.4602,3.4602,3.4602,3.4602,3.4602,3.4602,3.4602,3.4602,3.4602,3.4623,3.4747,3.4768,3.4809,3.485,3.4812,3.4772,3.4788,3.4747,3.5009,3.6094,3.6405,3.6141,3.5059,3.4889,3.487,3.487,3.4927,3.5019,3.5141,3.5021,3.4598,3.3761,3.4394,3.426,3.273,3.2481,3.221,3.1752,3.1484,3.135,3.135,3.0605,3.0204,3.0204,3.0204,3.093,3.2405,3.2405,3.2157,3.1679,3.1684,3.1932,0.0,0.0,0.0,0.0,0.0,0.0,2.0573,0.0,1.9722,0.0,0.0,0.0,0.0,0.0,0.0,0.0,1.793,0.0,1.63,1.7176,1.8203,1.8882,1.9635,2.0696,2.2163,2.1925,2.2162,2.3337,2.2118,2.186,2.3027,2.3552,2.4774,2.686,2.7045,2.794,2.9683,2.9701,2.9701,2.9701,2.9701,2.9701,2.9701,2.9701,2.9701,2.9701,2.9701,2.9964,3.0434,3.0772,3.1485,3.2349,3.2349,3.2574,3.2968,3.3794,3.4095,3.4132,3.447,3.4602,3.4602,3.4602,3.4602,3.4602,3.4602,3.4602,3.4602,3.4602,3.4666,3.4727,3.4788,3.4849,3.4869,3.4889,3.487,3.5002,3.5453,3.5129,3.5111,3.6307,3.7165,3.7547,3.7109,3.6766,3.6194,3.5224,3.5089,3.5124,3.5193,3.4617,3.4273,3.4464,3.4044,3.3872,3.414,3.4159,3.3777,3.2879,3.2439,3.221,3.221,3.1847,3.1503,3.1197,3.1197,3.1694,3.2691,3.3012,3.3394,3.3796,3.2821,3.2481,2.3547,0.0,0.0,0.0,0.0,0.0,0.0,0.0,0.0,0.0,0.0,0.0,0.0,0.0,0.0,0.0,0.0,1.7374,0.0,1.633,0.0,1.7161,1.8241,1.9775,2.1796,2.1368,2.1473,2.2731,2.1253,2.1086,2.284,2.3296,2.4586,2.6934,2.7117,2.7993,2.9683,2.9701,2.9701,2.9701,2.9701,2.9701,2.9701,2.9701,2.9701,2.9701,2.9927,3.0359,3.094,3.141,3.2311,3.3419,3.3644,3.3738,3.3794,3.4438,3.4645,3.4623,3.4645,3.4623,3.4602,3.4602,3.4602,3.4602,3.4602,3.4623,3.4645,3.4645,3.4728,3.4849,3.4868,3.4908,3.5021,3.5286,3.5324,3.5533,3.6329,3.6006,3.5874,3.6994,3.7737,3.8366,3.8955,3.8171,3.712,3.605,3.5496,3.5209,3.5209,3.4483,3.4273,3.5114,3.412,3.3891,3.5095,3.5209,3.4846,3.4025,3.3605,3.3169,3.2711,3.2825,3.2745,3.2344,3.2649,3.3012,3.3379,3.3777,3.4388,3.5171,3.3738,3.3184,2.4309,2.4639,2.4687,2.2254,2.2219,2.2384,2.0791,2.1643,2.2571,2.1843,0.0,0.0,0.0,0.0,0.0,0.0,0.0,0.0,0.0,0.0,0.0,0.0,0.0,0.0,2.1149,1.899,1.8546,2.0909,1.9526,1.9588,2.1909,2.2978,2.4586,2.6934,2.7117,2.7993,2.9683,2.9701,2.9701,2.9701,2.9701,2.9701,2.9701,2.9701,2.9701,2.9739,3.0527,3.0865,3.1015,3.2649,3.3362,3.3494,3.4264,3.4545,3.4586,3.4728,3.4747,3.4727,3.4768,3.4727,3.4602,3.4602,3.4602,3.4602,3.4602,3.4687,3.4788,3.4788,3.4849,3.4927,3.5057,3.5092,3.5319,3.6226,3.64,3.6574,3.7376,3.749,3.768,3.8556,3.8137,3.8175,3.9948,3.84,3.7082,3.754,3.6241,3.5209,3.5209,3.5171,3.5171,3.5209,3.5152,3.5152,3.5209,3.5209,3.519,3.5152,3.5133,3.4388,3.2768,3.3203,3.3471,3.3452,3.4522,3.5095,3.5133,3.5152,3.5171,3.519,3.435,3.4369,2.4928,2.5798,2.6232,2.3746,2.3725,2.3762,2.1625,2.2003,2.245,2.1114,2.2629,0.0,0.0,0.0,0.0,0.0,0.0,0.0,0.0,0.0,0.0,0.0,0.0,0.0,0.0,1.9252,1.9613,2.0973,2.0007,2.0195,2.2098,2.3041,2.4354,2.6272,2.6906,2.7993,2.9683,2.9701,2.9701,2.9701,2.9701,2.9701,2.9701,2.9701,2.9701,2.9739,3.0565,3.1203,3.1785,3.2931,3.3719,3.4226,3.4489,3.4602,3.4623,3.4747,3.4788,3.4788,3.4849,3.4831,3.4791,3.4752,3.473,3.4708,3.4666,3.4727,3.4788,3.4788,3.4927,3.5038,3.5092,3.5564,3.6094,3.6415,3.6892,3.7486,3.8289,3.8346,3.8308,3.8556,3.8422,3.8211,3.8075,3.7406,3.67,3.6126,3.5572,3.5209,3.5209,3.5209,3.5209,3.5209,3.5209,3.5209,3.5209,3.5209,3.5209,3.5209,3.5209,3.4961,3.4388,3.4541,3.4636,3.4636,3.4999,3.5209,3.5209,3.5209,3.5209,3.519,3.4923,3.4942,2.4837,2.5707,2.6174,2.3979,2.4049,2.4083,2.1942,2.2371,2.2812,2.1486,2.3006,2.4326,0.0,0.0,0.0,0.0,0.0,0.0,0.0,1.5303,0.0,0.0,0.0,0.0,0.0,0.0,1.8863,2.0515,1.9575,1.9901,2.2173,2.3055,2.4272,2.5944,2.6773,2.7862,2.9213,2.9551,2.9701,2.9701,2.9701,2.9701,2.9701,2.9701,2.9852,3.0171,3.0978,3.1804,3.263,3.3475,3.4132,3.4602,3.4602,3.4623,3.4687,3.479,3.4868,3.4907,3.4946,3.4927,3.4889,3.4851,3.4831,3.483,3.479,3.483,3.4907,3.4907,3.502,3.5221,3.5526,3.6056,3.6661,3.7254,3.7789,3.84,3.9223,3.905,3.8726,3.8689,3.823,3.7655,3.7005,3.6547,3.6184,3.584,3.5458,3.5209,3.5209,3.5209,3.5209,3.5209,3.5209,3.5209,3.5209,3.5209,3.5209,3.5209,3.5209,3.5209,3.5209,3.5209,3.5209,3.5209,3.5209,3.5209,3.5209,3.5209,3.5209,3.5209,3.5209,3.5209]}]]